ftp/pub/palmer/observations_modified/2019/September/AR190903_BASE.txt

Download

Sample DateTime	Unit Id	WS Avg 2min	WD Avg 2min	WGS 10min	WGD 10min	Air Temp	Rel Humidity	Dew Point	Pyranometer	Quantum	Air Pressure	Snow Level	Rainfall	PW Current	Visibility	CBase 1	CBase 2	CBase 3	Vert Vis
2019/09/03  00:00:00  BASE  0.294    340  1.75224  37   -4.6  73    -8.7  0     0     1017.0   NA       0.0000   9999     0     0     0    
2019/09/03  00:01:00  BASE  0.22344  358  1.75224  37   -4.6  73    -8.7  0     0     1016.9   NA       0.0000   9999     0     0     0    
2019/09/03  00:02:00  BASE  0.47628  0    1.66404  340  -4.6  73    -8.7  0     0     1016.9   NA       0.0000   9999     0     0     0    
2019/09/03  00:03:00  BASE  0.8232   16   1.66404  340  -4.7  73    -8.8  0     0     1016.9   NA       0.0000   9999     0     0     0    
2019/09/03  00:04:00  BASE  1.30536  42   1.90512  53   -4.7  73    -8.9  0     0     1017.0   NA       0.0000   9999     0     0     0    
2019/09/03  00:05:00  BASE  1.68756  46   2.32848  50   -4.8  73    -9.0  0     0     1017.0   NA       0.0000   9999     0     0     0    
2019/09/03  00:06:00  BASE  2.0286   52   2.32848  50   -4.9  73    -9.1  0     0     1017.0   NA       0.0000   9999     0     0     0    
2019/09/03  00:07:00  BASE  2.05212  57   2.32848  50   -5.0  73    -9.2  0     0     1017.0   NA       0.0000   9999     0     0     0    
2019/09/03  00:08:00  BASE  2.01096  59   2.32848  50   -5.1  73    -9.2  0     0     1017.0   NA       0.0000   9999     0     0     0    
2019/09/03  00:09:00  BASE  2.01096  58   2.32848  50   -5.2  73    -9.2  0     0     1017.0   NA       0.0000   9999     0     0     0    
2019/09/03  00:10:00  BASE  2.09916  53   2.42256  53   -5.2  73    -9.3  0     0     1017.0   NA       0.0000   9999     0     0     0    
2019/09/03  00:11:00  BASE  2.1168   48   2.42256  53   -5.2  73    -9.3  0     0     1017.0   NA       0.0000   9999     0     0     0    
2019/09/03  00:12:00  BASE  1.92276  47   2.42256  53   -5.3  74    -9.2  0     0     1017.0   NA       0.0000   9999     0     0     0    
2019/09/03  00:13:00  BASE  1.84632  48   2.42256  53   -5.3  74    -9.2  0     0     1017.0   NA       0.0000   9999     0     0     0    
2019/09/03  00:14:00  BASE  1.65816  45   2.42256  53   -5.3  74    -9.2  0     0     1017.0   NA       0.0000   9999     0     0     0    
2019/09/03  00:15:00  BASE  1.43472  40   2.42256  53   -5.3  74    -9.2  0     0     1017.0   NA       0.0000   9999     0     0     0    
2019/09/03  00:16:00  BASE  1.40532  39   2.42256  53   -5.2  74    -9.1  0     0     1017.0   NA       0.0000   9999     0     0     0    
2019/09/03  00:17:00  BASE  1.40532  39   2.42256  53   -5.2  74    -9.1  0     0     1017.0   NA       0.0000   9999     0     0     0    
2019/09/03  00:18:00  BASE  1.32888  37   2.42256  53   -5.2  74    -9.1  0     0     1017.0   NA       0.0000   9999     0     0     0    
2019/09/03  00:19:00  BASE  1.24068  38   2.42256  53   -5.2  74    -9.1  0     0     1017.0   NA       0.0000   9999     0     0     0    
2019/09/03  00:20:00  BASE  1.21716  39   2.21088  41   -5.1  74    -9.1  0     0     1017.0   NA       0.0000   9999     0     0     0    
2019/09/03  00:21:00  BASE  1.25832  39   2.0286   49   -5.1  74    -9.1  0     0     1017.1   NA       0.0000   9999     0     0     0    
2019/09/03  00:22:00  BASE  1.30536  36   1.90512  51   -5.1  74    -9.0  0     0     1017.1   NA       0.0000   9999     0     0     0    
2019/09/03  00:23:00  BASE  1.40532  36   1.69344  44   -5.1  74    -9.1  0     0     1017.1   NA       0.0000   9999     0     0     0    
2019/09/03  00:24:00  BASE  1.65816  40   2.0874   39   -5.1  74    -9.1  0     0     1017.1   NA       0.0000   9999     0     0     0    
2019/09/03  00:25:00  BASE  2.04624  41   2.48136  44   -5.2  73    -9.2  0     0     1017.1   NA       0.0000   9999     0     0     0    
2019/09/03  00:26:00  BASE  2.32848  43   2.48136  44   -5.3  73    -9.3  0     0     1017.2   NA       0.0000   9999     0     0     0    
2019/09/03  00:27:00  BASE  2.4402   43   2.63424  45   -5.4  73    -9.5  0     0     1017.2   NA       0.0000   9999     0     0     0    
2019/09/03  00:28:00  BASE  2.47548  43   2.63424  45   -5.6  73    -9.6  0     0     1017.2   NA       0.0000   9999     0     0     0    
2019/09/03  00:29:00  BASE  2.4402   43   2.63424  45   -5.7  73    -9.7  0     0     1017.2   NA       0.0000   9999     0     0     0    
2019/09/03  00:30:00  BASE  2.27556  44   2.63424  45   -5.8  74    -9.8  0     0     1017.2   NA       0.0000   9999     0     0     0    
2019/09/03  00:31:00  BASE  1.95216  44   2.63424  45   -5.8  74    -9.7  0     0     1017.2   NA       0.0000   9999     0     0     0    
2019/09/03  00:32:00  BASE  1.69932  39   2.63424  45   -5.8  74    -9.6  0     0     1017.2   NA       0.0000   9999     0     0     0    
2019/09/03  00:33:00  BASE  1.5582   39   2.63424  45   -5.8  75    -9.6  0     0     1017.2   NA       0.0000   9999     0     0     0    
2019/09/03  00:34:00  BASE  1.5876   41   2.63424  45   -5.7  75    -9.4  0     0     1017.2   NA       0.0000   9999     0     0     0    
2019/09/03  00:35:00  BASE  1.69344  41   2.63424  45   -5.6  75    -9.4  0     0     1017.2   NA       0.0000   9999     0     0     0    
2019/09/03  00:36:00  BASE  1.74048  41   2.63424  45   -5.6  75    -9.4  0     0     1017.2   NA       0.0000   9999     0     0     0    
2019/09/03  00:37:00  BASE  1.69932  40   2.59896  40   -5.5  74    -9.4  0     0     1017.2   NA       0.0000   9999     0     0     0    
2019/09/03  00:38:00  BASE  1.5876   39   2.51076  42   -5.5  74    -9.5  0     0     1017.2   NA       0.0000   9999     0     0     0    
2019/09/03  00:39:00  BASE  1.45236  36   2.42256  54   -5.5  73    -9.5  0     0     1017.2   NA       0.0000   9999     0     0     0    
2019/09/03  00:40:00  BASE  1.28184  29   2.0286   42   -5.5  73    -9.6  0     0     1017.2   NA       0.0000   9999     0     0     0    
2019/09/03  00:41:00  BASE  1.35828  27   2.0286   42   -5.5  73    -9.6  0     0     1017.2   NA       0.0000   9999     0     0     0    
2019/09/03  00:42:00  BASE  1.51704  26   2.0286   42   -5.5  73    -9.6  0     0     1017.2   NA       0.0000   9999     0     0     0    
2019/09/03  00:43:00  BASE  1.44648  24   2.0286   42   -5.5  73    -9.6  0     0     1017.2   NA       0.0000   9999     0     0     0    
2019/09/03  00:44:00  BASE  1.21716  16   2.0286   42   -5.5  73    -9.6  0     0     1017.2   NA       0.0000   9999     0     0     0    
2019/09/03  00:45:00  BASE  1.09368  10   1.96392  32   -5.5  73    -9.6  0     0     1017.2   NA       0.0000   9999     0     0     0    
2019/09/03  00:46:00  BASE  1.04664  15   1.87572  20   -5.6  73    -9.7  0     0     1017.2   NA       0.0000   9999     0     0     0    
2019/09/03  00:47:00  BASE  0.89376  12   1.87572  20   -5.5  73    -9.6  0     0     1017.2   NA       0.0000   9999     0     0     0    
2019/09/03  00:48:00  BASE  0.92316  14   1.87572  20   -5.5  73    -9.6  0     0     1017.2   NA       0.0000   9999     0     0     0    
2019/09/03  00:49:00  BASE  1.22304  25   1.87572  20   -5.5  73    -9.6  0     0     1017.3   NA       0.0000   9999     0     0     0    
2019/09/03  00:50:00  BASE  1.4994   27   1.87572  20   -5.5  73    -9.6  0     0     1017.3   NA       0.0000   9999     0     0     0    
2019/09/03  00:51:00  BASE  1.66992  23   1.84632  14   -5.6  73    -9.7  0     0     1017.2   NA       0.0000   9999     0     0     0    
2019/09/03  00:52:00  BASE  1.87572  15   2.0874   17   -5.6  73    -9.7  0     0     1017.3   NA       0.0000   9999     0     0     0    
2019/09/03  00:53:00  BASE  2.05212  11   2.24028  5    -5.7  73    -9.8  0     0     1017.3   NA       0.0000   9999     0     0     0    
2019/09/03  00:54:00  BASE  2.05212  12   2.24028  5    -5.8  73    -9.8  0     0     1017.3   NA       0.0000   9999     0     0     0    
2019/09/03  00:55:00  BASE  2.04036  13   2.59896  7    -5.8  73    -9.8  0     0     1017.3   NA       0.0000   9999     0     0     0    
2019/09/03  00:56:00  BASE  1.86396  18   2.59896  7    -5.8  73    -9.8  0     0     1017.3   NA       0.0000   9999     0     0     0    
2019/09/03  00:57:00  BASE  1.5582   24   2.59896  7    -5.9  74    -9.9  0     0     1017.3   NA       0.0000   9999     0     0     0    
2019/09/03  00:58:00  BASE  1.33476  27   2.59896  7    -5.9  74    -9.9  0     0     1017.3   NA       0.0000   9999     0     0     0    
2019/09/03  00:59:00  BASE  1.16424  34   2.59896  7    -5.9  74    -9.9  0     0     1017.3   NA       0.0000   9999     0     0     0    
2019/09/03  01:00:00  BASE  1.09956  32   2.59896  7    -5.9  74    -9.8  0     0     1017.3   NA       0.0000   9999     0     0     0    
2019/09/03  01:01:00  BASE  1.06428  25   2.59896  7    -5.8  74    -9.7  0     0     1017.3   NA       0.0000   9999     0     0     0    
2019/09/03  01:02:00  BASE  1.11132  20   2.59896  7    -5.7  74    -9.6  0     0     1017.3   NA       0.0000   9999     0     0     0    
2019/09/03  01:03:00  BASE  1.19952  13   2.59896  7    -5.6  74    -9.5  0     0     1017.3   NA       0.0000   9999     0     0     0    
2019/09/03  01:04:00  BASE  1.27008  5    2.59896  7    -5.5  73    -9.5  0     0     1017.3   NA       0.0000   9999     0     0     0    
2019/09/03  01:05:00  BASE  1.39356  355  1.90512  24   -5.4  73    -9.5  0     0     1017.3   NA       0.0000   9999     0     0     0    
2019/09/03  01:06:00  BASE  1.54644  351  1.81692  352  -5.4  72    -9.6  0     0     1017.3   NA       0.0000   9999     0     0     0    
2019/09/03  01:07:00  BASE  1.71108  355  1.87572  354  -5.4  72    -9.7  0     0     1017.3   NA       0.0000   9999     0     0     0    
2019/09/03  01:08:00  BASE  1.87572  359  2.32848  3    -5.4  71    -9.8  0     0     1017.3   NA       0.0000   9999     0     0     0    
2019/09/03  01:09:00  BASE  1.764    11   2.32848  3    -5.4  71    -9.8  0     0     1017.3   NA       0.0000   9999     0     0     0    
2019/09/03  01:10:00  BASE  1.62288  20   2.32848  3    -5.5  71    -9.9  0     0     1017.3   NA       0.0000   9999     0     0     0    
2019/09/03  01:11:00  BASE  1.63464  15   2.32848  3    -5.6  71    -10.0 0     0     1017.3   NA       0.0000   9999     0     0     0    
2019/09/03  01:12:00  BASE  1.51116  11   2.32848  3    -5.7  71    -10.1 0     0     1017.3   NA       0.0000   9999     0     0     0    
2019/09/03  01:13:00  BASE  1.37004  6    2.32848  3    -5.8  71    -10.2 0     0     1017.3   NA       0.0000   9999     0     0     0    
2019/09/03  01:14:00  BASE  1.43472  352  2.32848  3    -5.8  71    -10.2 0     0     1017.3   NA       0.0000   9999     0     0     0    
2019/09/03  01:15:00  BASE  1.56408  337  2.32848  3    -5.8  72    -10.1 0     0     1017.4   NA       0.0000   9999     0     0     0    
2019/09/03  01:16:00  BASE  1.68168  335  2.32848  3    -5.8  72    -10.1 0     0     1017.5   NA       0.0000   9999     0     0     0    
2019/09/03  01:17:00  BASE  1.92864  331  2.48136  330  -5.8  72    -10.1 0     0     1017.5   NA       0.0000   9999     0     0     0    
2019/09/03  01:18:00  BASE  2.04624  328  2.48136  330  -5.7  71    -10.1 0     0     1017.5   NA       0.0000   9999     0     0     0    
2019/09/03  01:19:00  BASE  1.8228   331  2.48136  330  -5.7  71    -10.1 0     0     1017.5   NA       0.0000   9999     0     0     0    
2019/09/03  01:20:00  BASE  1.72284  335  2.48136  330  -5.8  71    -10.2 0     0     1017.5   NA       0.0000   9999     0     0     0    
2019/09/03  01:21:00  BASE  2.09328  337  2.99292  339  -5.8  71    -10.2 0     0     1017.5   NA       0.0000   9999     0     0     0    
2019/09/03  01:22:00  BASE  2.47548  338  3.234    346  -5.9  71    -10.3 0     0     1017.5   NA       0.0000   9999     0     0     0    
2019/09/03  01:23:00  BASE  2.7342   348  3.26928  351  -5.9  71    -10.3 0     0     1017.5   NA       0.0000   9999     0     0     0    
2019/09/03  01:24:00  BASE  2.86944  352  3.26928  351  -5.9  71    -10.4 0     0     1017.5   NA       0.0000   9999     0     0     0    
2019/09/03  01:25:00  BASE  3.087    349  4.1454   352  -5.9  71    -10.4 0     0     1017.5   NA       0.0000   9999     0     0     0    
2019/09/03  01:26:00  BASE  3.10464  352  4.1454   352  -5.9  70    -10.4 0     0     1017.5   NA       0.0000   9999     0     0     0    
2019/09/03  01:27:00  BASE  2.89884  353  4.1454   352  -5.8  70    -10.5 0     0     1017.5   NA       0.0000   9999     0     0     0    
2019/09/03  01:28:00  BASE  2.79888  357  4.1454   352  -5.8  69    -10.6 0     0     1017.6   NA       0.0000   9999     0     0     0    
2019/09/03  01:29:00  BASE  2.5284   12   4.1454   352  -5.8  69    -10.7 0     0     1017.6   NA       0.0000   9999     0     0     0    
2019/09/03  01:30:00  BASE  2.19324  23   4.1454   352  -5.9  68    -10.8 0     0     1017.6   NA       0.0000   9999     0     0     0    
2019/09/03  01:31:00  BASE  2.15796  27   4.1454   352  -6.1  68    -11.0 0     0     1017.6   NA       0.0000   9999     0     0     0    
2019/09/03  01:32:00  BASE  2.28144  29   4.1454   352  -6.2  69    -11.0 0     0     1017.6   NA       0.0000   9999     0     0     0    
2019/09/03  01:33:00  BASE  2.54016  28   4.1454   352  -6.3  69    -11.0 0     0     1017.6   NA       0.0000   9999     0     0     0    
2019/09/03  01:34:00  BASE  2.7636   22   4.1454   352  -6.3  70    -10.9 0     0     1017.5   NA       0.0000   9999     0     0     0    
2019/09/03  01:35:00  BASE  2.81064  15   3.35748  352  -6.3  70    -10.9 0     0     1017.5   NA       0.0000   9999     0     0     0    
2019/09/03  01:36:00  BASE  2.85768  14   3.35748  352  -6.2  69    -10.9 0     0     1017.6   NA       0.0000   9999     0     0     0    
2019/09/03  01:37:00  BASE  2.79888  16   3.29868  24   -6.2  68    -11.0 0     0     1017.6   NA       0.0000   9999     0     0     0    
2019/09/03  01:38:00  BASE  2.7048   18   3.29868  24   -6.1  67    -11.2 0     0     1017.6   NA       0.0000   9999     0     0     0    
2019/09/03  01:39:00  BASE  2.51664  19   3.29868  24   -6.1  67    -11.3 0     0     1017.6   NA       0.0000   9999     0     0     0    
2019/09/03  01:40:00  BASE  2.54604  15   3.29868  24   -6.1  66    -11.4 0     0     1017.6   NA       0.0000   9999     0     0     0    
2019/09/03  01:41:00  BASE  2.74008  8    3.29868  24   -6.1  66    -11.5 0     0     1017.6   NA       0.0000   9999     0     0     0    
2019/09/03  01:42:00  BASE  2.68716  359  3.29868  24   -6.0  65    -11.5 0     0     1017.7   NA       0.0000   9999     0     0     0    
2019/09/03  01:43:00  BASE  2.51076  349  3.1752   7    -6.0  65    -11.5 0     0     1017.7   NA       0.0000   9999     0     0     0    
2019/09/03  01:44:00  BASE  2.37552  347  3.1752   7    -5.9  65    -11.5 0     0     1017.6   NA       0.0000   9999     0     0     0    
2019/09/03  01:45:00  BASE  2.28144  351  3.1458   353  -5.9  65    -11.5 0     0     1017.6   NA       0.0000   9999     0     0     0    
2019/09/03  01:46:00  BASE  2.26968  357  3.1458   353  -5.9  65    -11.4 0     0     1017.6   NA       0.0000   9999     0     0     0    
2019/09/03  01:47:00  BASE  2.28732  2    3.1458   353  -5.9  65    -11.4 0     0     1017.6   NA       0.0000   9999     0     0     0    
2019/09/03  01:48:00  BASE  2.46372  3    3.1458   353  -5.9  66    -11.3 0     0     1017.6   NA       0.0000   9999     0     0     0    
2019/09/03  01:49:00  BASE  2.42844  6    3.1458   353  -5.9  66    -11.2 0     0     1017.7   NA       0.0000   9999     0     0     0    
2019/09/03  01:50:00  BASE  2.14032  8    3.1458   353  -5.9  67    -11.0 0     0     1017.6   NA       0.0000   9999     0     0     0    
2019/09/03  01:51:00  BASE  1.92864  10   3.1458   353  -6.0  68    -11.0 0     0     1017.6   NA       0.0000   9999     0     0     0    
2019/09/03  01:52:00  BASE  1.92276  10   2.93412  3    -5.9  69    -10.8 0     0     1017.6   NA       0.0000   9999     0     0     0    
2019/09/03  01:53:00  BASE  2.01684  14   2.93412  3    -5.9  69    -10.6 0     0     1017.6   NA       0.0000   9999     0     0     0    
2019/09/03  01:54:00  BASE  2.10504  16   2.93412  3    -5.9  70    -10.5 0     0     1017.6   NA       0.0000   9999     0     0     0    
2019/09/03  01:55:00  BASE  2.18736  16   2.93412  3    -6.0  71    -10.4 0     0     1017.7   NA       0.0000   9999     0     0     0    
2019/09/03  01:56:00  BASE  2.2638   16   2.93412  3    -6.0  71    -10.3 0     0     1017.7   NA       0.0000   9999     0     0     0    
2019/09/03  01:57:00  BASE  2.4402   20   2.93412  3    -5.9  72    -10.2 0     0     1017.7   NA       0.0000   9999     0     0     0    
2019/09/03  01:58:00  BASE  2.5578   22   3.1164   22   -6.0  72    -10.1 0     0     1017.7   NA       0.0000   9999     0     0     0    
2019/09/03  01:59:00  BASE  2.56956  19   3.1164   22   -6.0  73    -10.1 0     0     1017.7   NA       0.0000   9999     0     0     0    
2019/09/03  02:00:00  BASE  2.3814   18   3.1164   22   -6.0  73    -10.1 0     0     1017.7   NA       0.0000   9999     0     0     0    
2019/09/03  02:01:00  BASE  2.30496  17   3.1164   22   -6.1  73    -10.0 0     0     1017.7   NA       0.0000   9999     0     0     0    
2019/09/03  02:02:00  BASE  2.42256  15   3.1164   22   -6.1  74    -10.1 0     0     1017.7   NA       0.0000   9999     0     0     0    
2019/09/03  02:03:00  BASE  2.38728  18   3.1164   22   -6.1  74    -10.0 0     0     1017.7   NA       0.0000   9999     0     0     0    
2019/09/03  02:04:00  BASE  2.16972  23   3.1164   22   -6.0  75    -9.8  0     0     1017.7   NA       0.0000   9999     0     0     0    
2019/09/03  02:05:00  BASE  1.78752  16   3.1164   22   -5.9  75    -9.6  0     0     1017.7   NA       0.0000   9999     0     0     0    
2019/09/03  02:06:00  BASE  1.51704  16   3.1164   22   -5.8  75    -9.5  0     0     1017.7   NA       0.0000   9999     0     0     0    
2019/09/03  02:07:00  BASE  1.51704  22   3.1164   22   -5.7  76    -9.3  0     0     1017.7   NA       0.0000   9999     0     0     0    
2019/09/03  02:08:00  BASE  1.8228   18   2.75184  11   -5.6  76    -9.2  0     0     1017.7   NA       0.0000   9999     0     0     0    
2019/09/03  02:09:00  BASE  2.058    6    2.75184  11   -5.6  76    -9.1  0     0     1017.7   NA       0.0000   9999     0     0     0    
2019/09/03  02:10:00  BASE  1.9992   1    2.75184  11   -5.5  76    -9.1  0     0     1017.8   NA       0.0000   9999     0     0     0    
2019/09/03  02:11:00  BASE  1.83456  5    2.75184  11   -5.6  76    -9.1  0     0     1017.8   NA       0.0000   9999     0     0     0    
2019/09/03  02:12:00  BASE  1.98156  6    2.56956  9    -5.6  76    -9.2  0     0     1017.8   NA       0.0000   9999     0     0     0    
2019/09/03  02:13:00  BASE  2.3814   8    2.69304  11   -5.7  76    -9.2  0     0     1017.8   NA       0.0000   9999     0     0     0    
2019/09/03  02:14:00  BASE  2.56368  13   2.84592  18   -5.8  76    -9.4  0     0     1017.8   NA       0.0000   9999     0     0     0    
2019/09/03  02:15:00  BASE  2.46372  19   2.84592  18   -6.0  76    -9.5  0     0     1017.8   NA       0.0000   9999     0     0     0    
2019/09/03  02:16:00  BASE  2.16384  21   2.84592  18   -6.1  76    -9.7  0     0     1017.8   NA       0.0000   9999     0     0     0    
2019/09/03  02:17:00  BASE  1.911    21   2.84592  18   -6.3  76    -9.9  0     0     1017.8   NA       0.0000   9999     0     0     0    
2019/09/03  02:18:00  BASE  1.96392  20   2.84592  18   -6.4  76    -9.9  0     0     1017.8   NA       0.0000   9999     0     0     0    
2019/09/03  02:19:00  BASE  2.09328  17   2.84592  18   -6.4  76    -9.8  0     0     1017.9   NA       0.0000   9999     0     0     0    
2019/09/03  02:20:00  BASE  2.04624  15   2.84592  18   -6.3  77    -9.8  0     0     1017.8   NA       0.0000   9999     0     0     0    
2019/09/03  02:21:00  BASE  2.0874   9    2.84592  18   -6.3  77    -9.7  0     0     1017.8   NA       0.0000   9999     0     0     0    
2019/09/03  02:22:00  BASE  2.04624  5    2.84592  18   -6.2  77    -9.6  0     0     1017.8   NA       0.0000   9999     0     0     0    
2019/09/03  02:23:00  BASE  1.9698   359  2.84592  18   -6.1  77    -9.5  0     0     1017.8   NA       0.0000   9999     0     0     0    
2019/09/03  02:24:00  BASE  1.95216  352  2.75184  21   -6.1  77    -9.5  0     0     1017.8   NA       0.0000   9999     0     0     0    
2019/09/03  02:25:00  BASE  1.81104  352  2.54016  12   -6.1  77    -9.4  0     0     1017.8   NA       0.0000   9999     0     0     0    
2019/09/03  02:26:00  BASE  1.6758   1    2.54016  12   -6.1  78    -9.4  0     0     1017.8   NA       0.0000   9999     0     0     0    
2019/09/03  02:27:00  BASE  1.62288  5    2.54016  12   -6.2  78    -9.4  0     0     1017.8   NA       0.0000   9999     0     0     0    
2019/09/03  02:28:00  BASE  1.68168  9    2.35788  12   -6.2  78    -9.4  0     0     1017.9   NA       0.0000   9999     0     0     0    
2019/09/03  02:29:00  BASE  1.9404   21   2.35788  12   -6.2  78    -9.4  0     0     1017.9   NA       0.0000   9999     0     0     0    
2019/09/03  02:30:00  BASE  2.28144  25   2.63424  20   -6.2  78    -9.4  0     0     1017.9   NA       0.0000   9999     0     0     0    
2019/09/03  02:31:00  BASE  2.63424  20   3.26928  3    -6.3  78    -9.5  0     0     1017.9   NA       0.0000   9999     0     0     0    
2019/09/03  02:32:00  BASE  2.93412  14   3.48096  2    -6.3  78    -9.5  0     0     1017.9   NA       0.0000   9999     0     0     0    
2019/09/03  02:33:00  BASE  2.90472  11   3.48096  2    -6.3  78    -9.5  0     0     1017.9   NA       0.0000   9999     0     0     0    
2019/09/03  02:34:00  BASE  2.6166   20   3.48096  2    -6.4  78    -9.6  0     0     1017.9   NA       0.0000   9999     0     0     0    
2019/09/03  02:35:00  BASE  2.39904  26   3.48096  2    -6.4  78    -9.6  0     0     1017.9   NA       0.0000   9999     0     0     0    
2019/09/03  02:36:00  BASE  2.27556  21   3.48096  2    -6.4  78    -9.5  0     0     1017.9   NA       0.0000   9999     0     0     0    
2019/09/03  02:37:00  BASE  1.8522   10   3.48096  2    -6.3  79    -9.5  0     0     1017.9   NA       0.0000   9999     0     0     0    
2019/09/03  02:38:00  BASE  1.62288  357  3.48096  2    -6.3  79    -9.3  0     0     1017.9   NA       0.0000   9999     0     0     0    
2019/09/03  02:39:00  BASE  1.68756  339  3.48096  2    -6.1  79    -9.1  0     0     1017.9   NA       0.0000   9999     0     0     0    
2019/09/03  02:40:00  BASE  1.38768  322  3.48096  2    -6.0  80    -9.0  0     0     1017.9   NA       0.0000   9999     0     0     0    
2019/09/03  02:41:00  BASE  1.58172  313  3.48096  2    -5.9  80    -8.9  0     0     1017.9   NA       0.0000   9999     0     0     0    
2019/09/03  02:42:00  BASE  1.78752  312  3.087    10   -5.9  80    -8.8  0     0     1017.9   NA       0.0000   9999     0     0     0    
2019/09/03  02:43:00  BASE  1.84044  320  2.87532  29   -5.8  80    -8.7  0     0     1017.9   NA       0.0000   9999     0     0     0    
2019/09/03  02:44:00  BASE  2.1462   328  2.96352  306  -5.8  80    -8.7  0     0     1017.9   NA       0.0000   9999     0     0     0    
2019/09/03  02:45:00  BASE  1.84044  332  2.96352  306  -5.8  80    -8.7  0     0     1017.9   NA       0.0000   9999     0     0     0    
2019/09/03  02:46:00  BASE  1.72872  335  2.96352  306  -5.8  80    -8.7  0     0     1017.9   NA       0.0000   9999     0     0     0    
2019/09/03  02:47:00  BASE  2.16384  336  3.02232  348  -5.9  80    -8.8  0     0     1018.0   NA       0.0000   9999     0     0     0    
2019/09/03  02:48:00  BASE  2.499    343  3.02232  348  -6.0  80    -8.9  0     0     1018.0   NA       0.0000   9999     0     0     0    
2019/09/03  02:49:00  BASE  2.60484  346  3.02232  348  -6.2  80    -9.1  0     0     1018.1   NA       0.0000   9999     0     0     0    
2019/09/03  02:50:00  BASE  2.84004  346  3.59856  343  -6.3  80    -9.2  0     0     1018.1   NA       0.0000   9999     0     0     0    
2019/09/03  02:51:00  BASE  3.06348  344  3.59856  343  -6.4  80    -9.2  0     0     1018.1   NA       0.0000   9999     0     0     0    
2019/09/03  02:52:00  BASE  2.7636   350  3.59856  343  -6.4  81    -9.2  0     0     1018.1   NA       0.0000   9999     0     0     0    
2019/09/03  02:53:00  BASE  2.51076  1    3.59856  343  -6.4  81    -9.1  0     0     1018.1   NA       0.0000   9999     0     0     0    
2019/09/03  02:54:00  BASE  2.42256  4    3.59856  343  -6.3  81    -9.0  0     0     1018.0   NA       0.0000   9999     0     0     0    
2019/09/03  02:55:00  BASE  2.4108   357  3.59856  343  -6.3  81    -9.0  0     0     1017.9   NA       0.0000   9999     0     0     0    
2019/09/03  02:56:00  BASE  2.54016  356  3.59856  343  -6.2  81    -8.9  0     0     1017.9   NA       0.0000   9999     0     0     0    
2019/09/03  02:57:00  BASE  2.51076  2    3.59856  343  -6.2  82    -8.8  0     0     1017.9   NA       0.0000   9999     0     0     0    
2019/09/03  02:58:00  BASE  2.15208  6    3.59856  343  -6.1  82    -8.7  0     0     1018.0   NA       0.0000   9999     0     0     0    
2019/09/03  02:59:00  BASE  1.85808  9    3.59856  343  -6.1  82    -8.6  0     0     1018.1   NA       0.0000   9999     0     0     0    
2019/09/03  03:00:00  BASE  1.7052   7    3.2046   338  -6.1  83    -8.6  0     0     1018.1   NA       0.0000   9999     0     0     0    
2019/09/03  03:01:00  BASE  1.62876  11   2.93412  317  -6.2  83    -8.6  0     0     1018.1   NA       0.0000   9999     0     0     0    
2019/09/03  03:02:00  BASE  1.7934   16   2.93412  317  -6.2  83    -8.6  0     0     1018.2   NA       0.0000   9999     0     0     0    
2019/09/03  03:03:00  BASE  1.9404   15   2.93412  317  -6.3  83    -8.7  0     0     1018.2   NA       0.0000   9999     0     0     0    
2019/09/03  03:04:00  BASE  2.18736  20   2.93412  317  -6.4  84    -8.7  0     0     1018.1   NA       0.0000   9999     0     0     0    
2019/09/03  03:05:00  BASE  2.85768  27   3.59856  33   -6.5  84    -8.7  0     0     1018.1   NA       0.0000   9999     0     0     0    
2019/09/03  03:06:00  BASE  3.30456  33   3.59856  33   -6.5  85    -8.7  0     0     1018.1   NA       0.0000   9999     0     0     0    
2019/09/03  03:07:00  BASE  3.06348  45   3.59856  33   -6.6  85    -8.6  0     0     1018.1   NA       0.0000   9999     0     0     0    
2019/09/03  03:08:00  BASE  2.55192  50   3.59856  33   -6.6  86    -8.5  0     0     1018.1   NA       0.0000   9999     0     0     0    
2019/09/03  03:09:00  BASE  2.16384  51   3.59856  33   -6.5  86    -8.4  0     0     1018.1   NA       0.0000   9999     0     0     0    
2019/09/03  03:10:00  BASE  2.04624  55   3.59856  33   -6.3  87    -8.1  0     0     1017.9   NA       0.0000   9999     0     0     0    
2019/09/03  03:11:00  BASE  1.91688  54   3.59856  33   -6.1  88    -7.8  0     0     1017.9   NA       0.0000   9999     0     0     0    
2019/09/03  03:12:00  BASE  1.81692  46   3.59856  33   -5.9  88    -7.5  0     0     1017.9   NA       0.0000   9999     0     0     0    
2019/09/03  03:13:00  BASE  1.83456  30   3.59856  33   -5.8  89    -7.4  0     0     1017.9   NA       0.0000   9999     0     0     0    
2019/09/03  03:14:00  BASE  1.64052  21   3.59856  33   -5.7  89    -7.3  0     0     1017.9   NA       0.0000   9999     0     0     0    
2019/09/03  03:15:00  BASE  1.39944  14   3.53976  35   -5.7  89    -7.3  0     0     1018.0   NA       0.0000   9999     0     0     0    
2019/09/03  03:16:00  BASE  1.50528  4    3.0576   50   -5.7  89    -7.3  0     0     1018.1   NA       0.0000   9999     0     0     0    
2019/09/03  03:17:00  BASE  1.3818   7    2.54016  54   -5.7  89    -7.2  0     0     1018.1   NA       0.0000   9999     0     0     0    
2019/09/03  03:18:00  BASE  1.4406   17   2.42256  57   -5.6  89    -7.1  0     0     1018.1   NA       0.0000   9999     0     0     0    
2019/09/03  03:19:00  BASE  1.7346   24   2.42256  57   -5.6  89    -7.2  0     0     1018.0   NA       0.0000   9999     0     0     0    
2019/09/03  03:20:00  BASE  1.89336  29   2.42256  57   -5.6  89    -7.2  0     0     1017.9   NA       0.0000   9999     0     0     0    
2019/09/03  03:21:00  BASE  2.1168   37   2.45196  51   -5.7  89    -7.3  0     0     1017.9   NA       0.0000   9999     0     0     0    
2019/09/03  03:22:00  BASE  2.28144  40   3.087    37   -5.8  88    -7.5  0     0     1017.9   NA       0.0000   9999     0     0     0    
2019/09/03  03:23:00  BASE  2.41668  39   3.087    37   -5.9  88    -7.6  0     0     1017.9   NA       0.0000   9999     0     0     0    
2019/09/03  03:24:00  BASE  2.09916  46   3.087    37   -6.0  88    -7.6  0     0     1017.9   NA       0.0000   9999     0     0     0    
2019/09/03  03:25:00  BASE  1.9404   53   3.087    37   -6.0  88    -7.6  0     0     1017.9   NA       0.0000   9999     0     0     0    
2019/09/03  03:26:00  BASE  2.42256  48   3.2046   49   -5.9  88    -7.6  0     0     1017.9   NA       0.0000   9999     0     0     0    
2019/09/03  03:27:00  BASE  2.71656  45   3.2046   49   -5.9  87    -7.7  0     0     1017.8   NA       0.0000   9999     0     0     0    
2019/09/03  03:28:00  BASE  2.48724  45   3.2046   49   -5.9  87    -7.8  0     0     1017.8   NA       0.0000   9999     0     0     0    
2019/09/03  03:29:00  BASE  2.37552  40   3.2046   49   -5.9  86    -7.9  0     0     1017.8   NA       0.0000   9999     0     0     0    
2019/09/03  03:30:00  BASE  2.31084  32   3.2046   49   -6.0  85    -8.1  0     0     1017.8   NA       0.0000   9999     0     0     0    
2019/09/03  03:31:00  BASE  2.04036  27   3.2046   49   -6.0  84    -8.2  0     0     1017.8   NA       0.0000   9999     0     0     0    
2019/09/03  03:32:00  BASE  1.83456  21   3.2046   49   -5.9  84    -8.2  0     0     1017.8   NA       0.0000   9999     0     0     0    
2019/09/03  03:33:00  BASE  1.7346   20   3.2046   49   -5.9  83    -8.3  0     0     1017.8   NA       0.0000   9999     0     0     0    
2019/09/03  03:34:00  BASE  1.54644  25   3.2046   49   -5.9  83    -8.4  0     0     1017.8   NA       0.0000   9999     0     0     0    
2019/09/03  03:35:00  BASE  1.39944  31   3.2046   49   -5.8  83    -8.3  0     0     1017.8   NA       0.0000   9999     0     0     0    
2019/09/03  03:36:00  BASE  1.62876  35   2.81064  42   -5.8  82    -8.4  0     0     1017.8   NA       0.0000   9999     0     0     0    
2019/09/03  03:37:00  BASE  1.85808  36   2.66364  36   -5.8  82    -8.4  0     0     1017.8   NA       0.0000   9999     0     0     0    
2019/09/03  03:38:00  BASE  1.89924  42   2.66364  36   -5.8  81    -8.5  0     0     1017.8   NA       0.0000   9999     0     0     0    
2019/09/03  03:39:00  BASE  2.08152  48   2.51076  52   -5.7  81    -8.5  0     0     1017.8   NA       0.0000   9999     0     0     0    
2019/09/03  03:40:00  BASE  2.07564  52   2.51076  52   -5.7  80    -8.5  0     0     1017.8   NA       0.0000   9999     0     0     0    
2019/09/03  03:41:00  BASE  2.0874   54   2.54016  48   -5.7  80    -8.6  0     0     1017.8   NA       0.0000   9999     0     0     0    
2019/09/03  03:42:00  BASE  2.37552  49   2.69304  53   -5.7  80    -8.6  0     0     1017.8   NA       0.0000   9999     0     0     0    
2019/09/03  03:43:00  BASE  2.48724  43   2.78124  42   -5.6  80    -8.5  0     0     1017.8   NA       0.0000   9999     0     0     0    
2019/09/03  03:44:00  BASE  2.38728  41   2.78124  42   -5.6  80    -8.6  0     0     1017.8   NA       0.0000   9999     0     0     0    
2019/09/03  03:45:00  BASE  2.12268  41   2.78124  42   -5.6  80    -8.6  0     0     1017.8   NA       0.0000   9999     0     0     0    
2019/09/03  03:46:00  BASE  1.92276  43   2.78124  42   -5.6  79    -8.6  0     0     1017.8   NA       0.0000   9999     0     0     0    
2019/09/03  03:47:00  BASE  1.93452  45   2.78124  42   -5.6  79    -8.7  0     0     1017.8   NA       0.0000   9999     0     0     0    
2019/09/03  03:48:00  BASE  1.96392  50   2.78124  42   -5.7  79    -8.8  0     0     1017.8   NA       0.0000   9999     0     0     0    
2019/09/03  03:49:00  BASE  2.01684  54   2.78124  42   -5.7  78    -8.9  0     0     1017.8   NA       0.0000   9999     0     0     0    
2019/09/03  03:50:00  BASE  2.06976  55   2.78124  42   -5.7  78    -8.9  0     0     1017.8   NA       0.0000   9999     0     0     0    
2019/09/03  03:51:00  BASE  1.9698   54   2.78124  42   -5.8  78    -8.9  0     0     1017.8   NA       0.0000   9999     0     0     0    
2019/09/03  03:52:00  BASE  1.87572  54   2.78124  42   -5.8  78    -8.9  0     0     1017.8   NA       0.0000   9999     0     0     0    
2019/09/03  03:53:00  BASE  1.94628  50   2.45196  42   -5.8  78    -8.9  0     0     1017.8   NA       0.0000   9999     0     0     0    
2019/09/03  03:54:00  BASE  2.24616  46   2.99292  40   -5.8  78    -8.9  0     0     1017.8   NA       0.0000   9999     0     0     0    
2019/09/03  03:55:00  BASE  2.31084  50   2.99292  40   -5.8  78    -9.0  0     0     1017.8   NA       0.0000   9999     0     0     0    
2019/09/03  03:56:00  BASE  2.14032  51   2.99292  40   -5.8  79    -9.0  0     0     1017.8   NA       0.0000   9999     0     0     0    
2019/09/03  03:57:00  BASE  2.13444  48   2.99292  40   -5.9  79    -9.0  0     0     1017.8   NA       0.0000   9999     0     0     0    
2019/09/03  03:58:00  BASE  2.30496  43   2.99292  40   -5.9  79    -9.0  0     0     1017.8   NA       0.0000   9999     0     0     0    
2019/09/03  03:59:00  BASE  2.4696   40   2.99292  40   -6.0  79    -9.0  0     0     1017.8   NA       0.0000   9999     0     0     0    
2019/09/03  04:00:00  BASE  2.6166   37   2.99292  40   -6.0  79    -9.0  0     0     1017.8   NA       0.0000   9999     0     0     0    
2019/09/03  04:01:00  BASE  2.68716  39   3.234    40   -6.0  79    -9.0  0     0     1017.8   NA       0.0000   9999     0     0     0    
2019/09/03  04:03:00  BASE  2.51076  45   3.234    40   -6.0  80    -8.9  0     0     1017.8   NA       0.0000   9999     0     0     0    
2019/09/03  04:04:00  BASE  2.2932   48   3.234    40   -6.0  80    -8.9  0     0     1017.8   NA       0.0000   9999     0     0     0    
2019/09/03  04:05:00  BASE  2.16384  48   3.234    40   -6.0  80    -8.9  0     0     1017.8   NA       0.0000   9999     0     0     0    
2019/09/03  04:06:00  BASE  1.9698   54   3.234    40   -6.1  80    -9.0  0     0     1017.8   NA       0.0000   9999     0     0     0    
2019/09/03  04:07:00  BASE  1.9992   57   3.234    40   -6.1  80    -9.0  0     0     1017.8   NA       0.0000   9999     0     0     0    
2019/09/03  04:08:00  BASE  2.04624  54   3.234    40   -6.1  80    -9.0  0     0     1017.8   NA       0.0000   9999     0     0     0    
2019/09/03  04:09:00  BASE  2.06388  49   3.234    40   -6.1  80    -9.0  0     0     1017.8   NA       0.0000   9999     0     0     0    
2019/09/03  04:10:00  BASE  2.11092  45   3.234    40   -6.1  80    -9.0  0     0     1017.8   NA       0.0000   9999     0     0     0    
2019/09/03  04:11:00  BASE  2.00508  46   3.234    40   -6.1  80    -9.0  0     0     1017.8   NA       0.0000   9999     0     0     0    
2019/09/03  04:12:00  BASE  2.11092  45   2.66364  44   -6.1  80    -9.0  0     0     1017.8   NA       0.0000   9999     0     0     0    
2019/09/03  04:13:00  BASE  2.18148  43   2.54016  40   -6.1  80    -8.9  0     0     1017.8   NA       0.0000   9999     0     0     0    
2019/09/03  04:14:00  BASE  2.12856  42   2.54016  40   -6.1  81    -8.9  0     0     1017.8   NA       0.0000   9999     0     0     0    
2019/09/03  04:15:00  BASE  2.06388  41   2.54016  40   -6.0  81    -8.8  0     0     1017.8   NA       0.0000   9999     0     0     0    
2019/09/03  04:16:00  BASE  1.96392  44   2.54016  40   -6.0  81    -8.8  0     0     1017.8   NA       0.0000   9999     0     0     0    
2019/09/03  04:17:00  BASE  2.0874   41   2.54016  40   -6.1  81    -8.8  0     0     1017.8   NA       0.0000   9999     0     0     0    
2019/09/03  04:18:00  BASE  2.16384  39   2.54016  40   -6.1  81    -8.8  0     0     1017.8   NA       0.0000   9999     0     0     0    
2019/09/03  04:19:00  BASE  2.09916  37   2.54016  40   -6.1  81    -8.8  0     0     1017.8   NA       0.0000   9999     0     0     0    
2019/09/03  04:20:00  BASE  2.02272  35   2.54016  40   -6.1  81    -8.8  0     0     1017.8   NA       0.0000   9999     0     0     0    
2019/09/03  04:21:00  BASE  1.96392  38   2.54016  40   -6.1  81    -8.8  0     0     1017.8   NA       0.0000   9999     0     0     0    
2019/09/03  04:22:00  BASE  2.1168   37   2.51076  42   -6.1  81    -8.8  0     0     1017.8   NA       0.0000   9999     0     0     0    
2019/09/03  04:23:00  BASE  2.22852  36   2.51076  42   -6.1  81    -8.8  0     0     1017.8   NA       0.0000   9999     0     0     0    
2019/09/03  04:24:00  BASE  2.21088  39   2.48136  33   -6.1  81    -8.8  0     0     1017.8   NA       0.0000   9999     0     0     0    
2019/09/03  04:25:00  BASE  2.24028  39   2.54016  36   -6.1  81    -8.8  0     0     1017.8   NA       0.0000   9999     0     0     0    
2019/09/03  04:26:00  BASE  2.3814   38   2.87532  27   -6.1  81    -8.8  0     0     1017.8   NA       0.0000   9999     0     0     0    
2019/09/03  04:27:00  BASE  2.40492  35   2.87532  27   -6.1  81    -8.8  0     0     1017.8   NA       0.0000   9999     0     0     0    
2019/09/03  04:28:00  BASE  2.2638   39   2.87532  27   -6.1  81    -8.7  0     0     1017.8   NA       0.0000   9999     0     0     0    
2019/09/03  04:29:01  BASE  2.2344   44   2.87532  27   -6.0  81    -8.7  0     0     1017.8   NA       0.0000   9999     0     0     0    
2019/09/03  04:30:00  BASE  2.31672  38   2.87532  36   -6.0  82    -8.6  0     0     1017.8   NA       0.0000   9999     0     0     0    
2019/09/03  04:31:00  BASE  2.2344   38   2.87532  36   -6.0  81    -8.6  0     0     1017.8   NA       0.0000   9999     0     0     0    
2019/09/03  04:32:00  BASE  2.08152  44   2.87532  36   -6.0  81    -8.6  0     0     1017.8   NA       0.0000   9999     1740  0     0    
2019/09/03  04:33:00  BASE  2.0874   44   2.87532  36   -6.0  81    -8.7  0     0     1017.8   NA       0.0000   9999     1770  0     0    
2019/09/03  04:34:00  BASE  1.9992   39   2.87532  36   -6.0  81    -8.7  0     0     1017.9   NA       0.0000   9999     1770  0     0    
2019/09/03  04:35:00  BASE  1.911    38   2.87532  36   -6.0  81    -8.7  0     0     1017.9   NA       0.0000   9999     1740  0     0    
2019/09/03  04:36:00  BASE  1.81692  34   2.87532  36   -6.0  82    -8.6  0     0     1017.9   NA       0.0000   9999     1710  0     0    
2019/09/03  04:37:00  BASE  1.6758   26   2.87532  36   -5.9  82    -8.5  0     0     1017.9   NA       0.0000   9999     1770  0     0    
2019/09/03  04:38:00  BASE  1.617    24   2.87532  36   -5.8  82    -8.4  0     0     1017.9   NA       0.0000   9999     1640  0     0    
2019/09/03  04:39:00  BASE  1.62288  20   2.87532  36   -5.7  82    -8.4  0     0     1017.9   NA       0.0000   9999     1540  0     0    
2019/09/03  04:40:00  BASE  1.66992  12   2.51076  49   -5.7  81    -8.4  0     0     1017.9   NA       0.0000   9999     1570  0     0    
2019/09/03  04:41:00  BASE  1.60524  7    2.51076  49   -5.6  81    -8.3  0     0     1017.9   NA       0.0000   9999     1540  0     0    
2019/09/03  04:42:00  BASE  1.49352  10   2.51076  49   -5.6  81    -8.3  0     0     1017.9   NA       0.0000   9999     1570  0     0    
2019/09/03  04:43:00  BASE  1.4406   13   2.35788  51   -5.6  81    -8.4  0     0     1017.9   NA       0.0000   9999     1570  0     0    
2019/09/03  04:44:00  BASE  1.27008  11   2.35788  51   -5.6  81    -8.4  0     0     1017.9   NA       0.0000   9999     1310  0     0    
2019/09/03  04:45:00  BASE  1.617    355  2.87532  336  -5.5  80    -8.4  0     0     1017.9   NA       0.0000   9999     1480  0     0    
2019/09/03  04:46:00  BASE  1.77576  328  2.87532  336  -5.5  80    -8.3  0     0     1017.9   NA       0.0000   9999     1480  0     0    
2019/09/03  04:47:00  BASE  1.48764  318  2.87532  336  -5.5  80    -8.3  0     0     1017.8   NA       0.0000   9999     1480  0     0    
2019/09/03  04:48:00  BASE  1.18188  343  2.87532  336  -5.4  80    -8.2  0     0     1017.9   NA       0.0000   9999     1480  0     0    
2019/09/03  04:49:00  BASE  0.71736  3    2.87532  336  -5.4  80    -8.2  0     0     1017.9   NA       0.0000   9999     1480  0     0    
2019/09/03  04:50:00  BASE  0.99372  345  2.87532  336  -5.4  81    -8.2  0     0     1017.9   NA       0.0000   9999     1540  0     0    
2019/09/03  04:51:00  BASE  1.19952  324  2.87532  336  -5.3  81    -8.1  0     0     1017.9   NA       0.0000   9999     1410  0     0    
2019/09/03  04:52:00  BASE  0.94668  344  2.87532  336  -5.4  81    -8.2  0     0     1017.9   NA       0.0000   9999     1440  0     0    
2019/09/03  04:53:00  BASE  0.84672  7    2.87532  336  -5.4  81    -8.2  0     0     1017.9   NA       0.0000   9999     1480  0     0    
2019/09/03  04:54:00  BASE  0.84672  359  2.87532  336  -5.4  81    -8.2  0     0     1017.9   NA       0.0000   9999     1480  0     0    
2019/09/03  04:55:00  BASE  0.95844  348  1.75224  301  -5.4  81    -8.2  0     0     1017.9   NA       0.0000   9999     1510  0     0    
2019/09/03  04:56:00  BASE  1.12896  344  1.75224  301  -5.5  81    -8.2  0     0     1017.9   NA       0.0000   9999     1480  0     0    
2019/09/03  04:57:00  BASE  1.24656  341  1.69344  319  -5.5  81    -8.2  0     0     1017.9   NA       0.0000   9999     1480  0     0    
2019/09/03  04:58:00  BASE  1.4112   335  1.78752  335  -5.5  81    -8.2  0     0     1017.8   NA       0.0000   9999     1310  0     0    
2019/09/03  04:59:00  BASE  1.58172  336  1.81692  330  -5.5  81    -8.2  0     0     1017.8   NA       0.0000   9999     1380  0     0    
2019/09/03  05:00:00  BASE  1.75812  341  2.1168   344  -5.5  81    -8.2  0     0     1017.8   NA       0.0000   9999     1350  0     0    
2019/09/03  05:01:00  BASE  1.9698   341  2.26968  341  -5.5  81    -8.2  0     0     1017.8   NA       0.0000   9999     1380  0     0    
2019/09/03  05:02:00  BASE  1.91688  344  2.26968  341  -5.5  81    -8.2  0     0     1017.8   NA       0.0000   9999     1440  0     0    
2019/09/03  05:03:00  BASE  1.71696  354  2.26968  341  -5.5  81    -8.2  0     0     1017.8   NA       0.0000   9999     1410  0     0    
2019/09/03  05:04:00  BASE  1.764    2    2.26968  341  -5.5  81    -8.2  0     0     1017.8   NA       0.0000   9999     1350  0     0    
2019/09/03  05:05:00  BASE  2.15208  4    2.56956  2    -5.5  81    -8.1  0     0     1017.8   NA       0.0000   9999     1380  0     0    
2019/09/03  05:06:00  BASE  2.18148  3    2.56956  2    -5.5  82    -8.1  0     0     1017.8   NA       0.0000   9999     1410  0     0    
2019/09/03  05:07:00  BASE  1.8228   4    2.56956  2    -5.5  82    -8.1  0     0     1017.8   NA       0.0000   9999     1480  0     0    
2019/09/03  05:08:00  BASE  1.58172  8    2.56956  2    -5.5  82    -8.0  0     0     1017.8   NA       0.0000   9999     1540  0     0    
2019/09/03  05:09:00  BASE  1.40532  18   2.56956  2    -5.5  82    -8.1  0     0     1017.8   NA       0.0000   9999     1540  0     0    
2019/09/03  05:10:00  BASE  1.3818   22   2.56956  2    -5.5  82    -8.1  0     0     1017.8   NA       0.0000   9999     1610  0     0    
2019/09/03  05:11:00  BASE  1.35828  18   2.56956  2    -5.5  82    -8.1  0     0     1017.8   NA       0.0000   9999     1570  0     0    
2019/09/03  05:12:00  BASE  1.31712  25   2.56956  2    -5.5  83    -8.0  0     0     1017.8   NA       0.0000   9999     1410  0     0    
2019/09/03  05:13:00  BASE  1.3524   41   2.56956  2    -5.6  83    -8.0  0     0     1017.8   NA       0.0000   9999     1410  0     0    
2019/09/03  05:14:00  BASE  1.56408  43   2.56956  2    -5.6  83    -8.0  0     0     1017.8   NA       0.0000   9999     1410  0     0    
2019/09/03  05:15:00  BASE  1.50528  28   2.32848  347  -5.5  83    -7.9  0     0     1017.8   NA       0.0000   9999     1440  0     0    
2019/09/03  05:16:00  BASE  1.62876  17   2.35788  28   -5.5  84    -7.9  0     0     1017.8   NA       0.0000   9999     1480  0     0    
2019/09/03  05:17:00  BASE  1.95216  10   2.35788  28   -5.5  84    -7.8  0     0     1017.8   NA       0.0000   9999     1310  0     0    
2019/09/03  05:18:00  BASE  1.83456  6    2.35788  28   -5.5  84    -7.8  0     0     1017.8   NA       0.0000   9999     1310  0     0    
2019/09/03  05:19:00  BASE  1.7934   4    2.35788  28   -5.6  84    -7.8  0     0     1017.8   NA       0.0000   9999     1280  0     0    
2019/09/03  05:20:00  BASE  1.8816   1    2.35788  28   -5.6  85    -7.7  0     0     1017.8   NA       0.0000   9999     1380  0     0    
2019/09/03  05:21:00  BASE  2.09328  2    2.51076  1    -5.6  85    -7.7  0     0     1017.7   NA       0.0000   9999     1350  0     0    
2019/09/03  05:22:00  BASE  2.4108   3    2.63424  1    -5.6  86    -7.6  0     0     1017.7   NA       0.0000   9999     1350  0     0    
2019/09/03  05:23:00  BASE  2.62248  357  2.96352  355  -5.6  86    -7.5  0     0     1017.7   NA       0.0000   9999     1380  0     0    
2019/09/03  05:24:00  BASE  2.4402   352  2.96352  355  -5.5  87    -7.3  0     0     1017.7   NA       0.0000   9999     1350  0     0    
2019/09/03  05:25:00  BASE  2.03448  357  2.96352  355  -5.4  87    -7.3  0     0     1017.7   NA       0.0000   9999     1350  0     0    
2019/09/03  05:26:00  BASE  1.98156  0    2.96352  355  -5.4  87    -7.2  0     0     1017.7   NA       0.0000   9999     1350  0     0    
2019/09/03  05:27:00  BASE  2.205    353  2.96352  355  -5.4  87    -7.2  0     0     1017.8   NA       0.0000   9999     1280  0     0    
2019/09/03  05:28:00  BASE  2.46372  351  2.96352  355  -5.4  87    -7.2  0     0     1017.7   NA       0.0000   9999     1280  0     0    
2019/09/03  05:29:00  BASE  2.55192  354  2.96352  355  -5.4  88    -7.1  0     0     1017.7   NA       0.0000   9999     1280  0     0    
2019/09/03  05:30:00  BASE  2.45196  357  2.96352  355  -5.4  88    -7.1  0     0     1017.7   NA       0.0000   9999     1310  0     0    
2019/09/03  05:31:00  BASE  2.205    356  2.96352  355  -5.4  88    -7.0  0     0     1017.7   NA       0.0000   9999     1310  0     0    
2019/09/03  05:32:00  BASE  2.08152  349  2.96352  355  -5.3  89    -6.9  0     0     1017.7   NA       0.0000   9999     1350  0     0    
2019/09/03  05:33:00  BASE  1.98156  348  2.87532  352  -5.2  89    -6.8  0     0     1017.7   NA       0.0000   9999     1350  0     0    
2019/09/03  05:34:00  BASE  1.81692  349  2.87532  352  -5.2  89    -6.7  0     0     1017.7   NA       0.0000   9999     1350  0     0    
2019/09/03  05:35:00  BASE  2.2932   344  2.93412  340  -5.2  89    -6.7  0     0     1017.7   NA       0.0000   9999     1350  0     0    
2019/09/03  05:36:00  BASE  2.75772  341  2.96352  343  -5.2  89    -6.7  0     0     1017.7   NA       0.0000   9999     1310  0     0    
2019/09/03  05:37:00  BASE  2.59308  337  2.96352  343  -5.2  89    -6.6  0     0     1017.7   NA       0.0000   9999     1280  0     0    
2019/09/03  05:38:00  BASE  2.27556  336  2.96352  343  -5.2  90    -6.6  0     0     1017.7   NA       0.0000   9999     1310  0     0    
2019/09/03  05:39:00  BASE  2.48136  337  2.96352  343  -5.2  90    -6.6  0     0     1017.7   NA       0.0000   9999     1280  0     0    
2019/09/03  05:40:00  BASE  2.74596  338  2.96352  343  -5.2  90    -6.5  0     0     1017.7   NA       0.0000   9999     1250  0     0    
2019/09/03  05:41:00  BASE  2.499    338  2.96352  343  -5.2  90    -6.5  0     0     1017.8   NA       0.0000   9999     1250  0     0    
2019/09/03  05:42:00  BASE  2.33436  332  2.96352  343  -5.1  91    -6.4  0     0     1017.8   NA       0.0000   9999     1080  0     0    
2019/09/03  05:43:00  BASE  2.15796  331  2.96352  343  -5.1  91    -6.4  0     0     1017.7   NA       0.0000   9999     980   0     0    
2019/09/03  05:44:00  BASE  2.00508  338  2.96352  343  -5.2  91    -6.4  0     0     1017.7   NA       0.0000   9999     980   0     0    
2019/09/03  05:45:00  BASE  2.34612  347  2.96352  343  -5.2  91    -6.4  0     0     1017.7   NA       0.0000   9999     980   0     0    
2019/09/03  05:46:00  BASE  2.76948  352  2.96352  353  -5.2  91    -6.4  0     0     1017.7   NA       0.0000   9999     1020  0     0    
2019/09/03  05:47:00  BASE  2.92824  352  3.1164   350  -5.2  91    -6.4  0     0     1017.7   NA       0.0000   9999     1150  0     0    
2019/09/03  05:48:00  BASE  2.7636   352  3.1164   350  -5.3  92    -6.4  0     0     1017.7   NA       0.0000   9999     1020  0     0    
2019/09/03  05:49:00  BASE  2.55192  359  3.1164   350  -5.3  92    -6.4  0     0     1017.7   NA       0.0000   9999     1120  0     0    
2019/09/03  05:50:00  BASE  2.57544  358  3.1164   350  -5.3  92    -6.4  0     0     1017.7   NA       0.0000   9999     1080  0     0    
2019/09/03  05:51:00  BASE  2.71656  345  3.48096  336  -5.3  92    -6.5  0     0     1017.7   NA       0.0000   9999     920   0     0    
2019/09/03  05:52:00  BASE  2.87532  339  3.48096  336  -5.3  92    -6.5  0     0     1017.6   NA       0.0000   9999     950   0     0    
2019/09/03  05:53:00  BASE  3.06936  334  4.05132  327  -5.3  92    -6.4  0     0     1017.6   NA       0.0000   9999     980   0     0    
2019/09/03  05:54:00  BASE  3.00468  315  4.35708  310  -5.2  92    -6.3  0     0     1017.6   NA       0.0000   9999     890   0     0    
2019/09/03  05:55:00  BASE  2.76948  285  4.35708  310  -5.2  93    -6.2  0     0     1017.6   NA       0.0000   9999     920   0     0    
2019/09/03  05:56:00  BASE  3.05172  273  4.35708  310  -5.1  93    -6.0  0     0     1017.6   NA       0.0000   9999     850   0     0    
2019/09/03  05:57:00  BASE  3.6162   274  4.65696  270  -5.1  94    -5.9  0     0     1017.5   NA       0.0000   9999     980   0     0    
2019/09/03  05:58:00  BASE  4.25124  274  5.08032  278  -5.0  95    -5.8  0     0     1017.5   NA       0.0000   9999     950   0     0    
2019/09/03  05:59:00  BASE  4.2924   277  5.08032  278  -5.0  95    -5.7  0     0     1017.5   NA       0.0000   9999     1050  0     0    
2019/09/03  06:00:00  BASE  3.89844  274  5.08032  278  -5.1  96    -5.6  0     0     1017.5   NA       0.0000   9999     1050  0     0    
2019/09/03  06:01:00  BASE  3.68088  272  5.08032  278  -5.1  97    -5.6  0     0     1017.5   NA       0.0000   9999     1080  0     0    
2019/09/03  06:02:00  BASE  3.75732  273  5.08032  278  -5.1  97    -5.5  0     0     1017.5   NA       0.0000   9999     1080  0     0    
2019/09/03  06:03:00  BASE  3.95724  273  5.08032  278  -5.1  98    -5.4  0     0     1017.5   NA       0.0000   9999     1080  0     0    
2019/09/03  06:04:00  BASE  3.77496  275  5.08032  278  -5.2  98    -5.4  0     0     1017.4   NA       0.0000   9999     1080  0     0    
2019/09/03  06:05:00  BASE  3.66912  281  5.08032  278  -5.2  99    -5.3  0     0     1017.5   NA       0.0000   9999     1120  0     0    
2019/09/03  06:06:00  BASE  3.65736  280  5.08032  278  -5.2  99    -5.3  0     0     1017.5   NA       0.0000   9999     1150  0     0    
2019/09/03  06:07:00  BASE  3.71616  278  5.08032  278  -5.2  100   -5.2  0     0     1017.5   NA       0.0000   9999     1050  0     0    
2019/09/03  06:08:00  BASE  3.72204  280  4.65696  274  -5.2  100   -5.2  0     0     1017.5   NA       0.0000   9999     1120  0     0    
2019/09/03  06:09:00  BASE  3.4986   279  4.65696  274  -5.2  100   -5.2  0     0     1017.5   NA       0.0000   9999     1150  0     0    
2019/09/03  06:10:00  BASE  3.35748  271  4.65696  274  -5.2  100   -5.2  0     0     1017.6   NA       0.0000   9999     1050  0     0    
2019/09/03  06:11:00  BASE  3.33984  264  4.65696  274  -5.2  100   -5.2  0     0     1017.6   NA       0.0000   9999     1120  0     0    
2019/09/03  06:12:00  BASE  3.53388  264  4.68636  273  -5.2  100   -5.2  0     0     1017.5   NA       0.0000   9999     1150  0     0    
2019/09/03  06:13:00  BASE  3.9102   267  4.83924  258  -5.2  100   -5.2  0     0     1017.5   NA       0.0000   9999     1050  0     0    
2019/09/03  06:14:00  BASE  3.93372  269  4.83924  258  -5.2  100   -5.2  0     0     1017.5   NA       0.0000   9999     1080  0     0    
2019/09/03  06:15:00  BASE  3.44568  266  4.83924  258  -5.2  100   -5.2  0     0     1017.5   NA       0.0000   9999     1050  0     0    
2019/09/03  06:16:00  BASE  3.47508  259  4.83924  258  -5.2  100   -5.2  0     0     1017.4   NA       0.0000   9999     1080  0     0    
2019/09/03  06:17:00  BASE  3.675    261  4.83924  258  -5.3  100   -5.3  0     0     1017.3   NA       0.0000   9999     1120  0     0    
2019/09/03  06:18:00  BASE  3.57504  267  4.83924  258  -5.3  100   -5.3  0     0     1017.3   NA       0.0000   9999     1120  0     0    
2019/09/03  06:19:00  BASE  3.88668  262  4.83924  258  -5.3  100   -5.3  0     0     1017.3   NA       0.0000   9999     1120  0     0    
2019/09/03  06:20:00  BASE  4.0572   260  4.83924  258  -5.3  100   -5.3  0     0     1017.3   NA       0.0000   9999     1020  0     0    
2019/09/03  06:21:00  BASE  3.51036  265  4.83924  258  -5.3  100   -5.3  0     0     1017.3   NA       0.0000   9999     980   0     0    
2019/09/03  06:22:00  BASE  3.32808  267  4.83924  258  -5.4  100   -5.4  0     0     1017.2   NA       0.0000   9999     1020  0     0    
2019/09/03  06:23:00  BASE  3.42216  265  4.65696  264  -5.4  100   -5.4  0     0     1017.2   NA       0.0000   9999     750   0     0    
2019/09/03  06:24:00  BASE  3.3516   263  4.59816  263  -5.4  100   -5.4  0     0     1017.2   NA       0.0000   9999     820   0     0    
2019/09/03  06:25:00  BASE  3.6456   260  4.59816  263  -5.4  100   -5.4  0     0     1017.2   NA       0.0000   9999     820   0     0    
2019/09/03  06:26:00  BASE  3.42804  259  4.59816  263  -5.4  100   -5.4  0     0     1017.2   NA       0.0000   9999     920   0     0    
2019/09/03  06:27:00  BASE  3.26928  256  4.59816  263  -5.4  100   -5.4  0     0     1017.2   NA       0.0000   9999     1020  0     0    
2019/09/03  06:28:00  BASE  3.4692   253  4.59816  263  -5.4  100   -5.4  0     0     1017.2   NA       0.0000   9999     1120  0     0    
2019/09/03  06:29:00  BASE  3.48096  254  4.56876  264  -5.4  100   -5.4  0     0     1017.2   NA       0.0000   9999     980   0     0    
2019/09/03  06:30:00  BASE  3.6456   254  4.38648  262  -5.4  100   -5.4  0     0     1017.2   NA       0.0000   9999     1020  0     0    
2019/09/03  06:31:01  BASE  3.7044   255  4.38648  262  -5.4  100   -5.4  0     0     1017.2   NA       0.0000   9999     1120  0     0    
2019/09/03  06:32:00  BASE  3.51624  258  4.38648  262  -5.5  100   -5.5  0     0     1017.2   NA       0.0000   9999     850   0     0    
2019/09/03  06:33:00  BASE  3.3222   261  4.38648  262  -5.5  100   -5.5  0     0     1017.2   NA       0.0000   9999     1050  0     0    
2019/09/03  06:34:00  BASE  3.39864  258  4.38648  262  -5.5  100   -5.5  0     0     1017.2   NA       0.0000   9999     1120  0     0    
2019/09/03  06:35:00  BASE  4.01016  254  4.68636  250  -5.5  100   -5.5  0     0     1017.2   NA       0.0000   9999     1080  0     0    
2019/09/03  06:36:00  BASE  4.01016  255  4.68636  250  -5.5  100   -5.5  0     0     1017.2   NA       0.0000   9999     1020  0     0    
2019/09/03  06:37:00  BASE  3.77496  256  4.68636  250  -5.5  100   -5.5  0     0     1017.2   NA       0.0000   9999     1080  0     0    
2019/09/03  06:38:00  BASE  4.09248  252  4.68636  250  -5.5  100   -5.5  0     0     1017.2   NA       0.0000   9999     980   0     0    
2019/09/03  06:39:00  BASE  4.13364  252  4.68636  250  -5.5  100   -5.5  0     0     1017.2   NA       0.0000   9999     1050  0     0    
2019/09/03  06:40:01  BASE  3.97488  254  4.68636  250  -5.5  100   -5.5  0     0     1017.2   NA       0.0000   9999     1080  0     0    
2019/09/03  06:41:00  BASE  3.66912  261  4.68636  250  -5.5  100   -5.5  0     0     1017.2   NA       0.0000   9999     1020  0     0    
2019/09/03  06:42:01  BASE  3.30456  271  4.68636  250  -5.5  100   -5.5  0     0     1017.2   NA       0.0000   9999     980   0     0    
2019/09/03  06:43:00  BASE  2.78124  272  4.68636  250  -5.5  100   -5.5  0     0     1017.2   NA       0.0000   9999     1020  0     0    
2019/09/03  06:44:00  BASE  2.59896  263  4.68636  250  -5.5  100   -5.5  0     0     1017.2   NA       0.0000   9999     1050  0     0    
2019/09/03  06:45:00  BASE  2.71656  260  4.56876  257  -5.6  100   -5.6  0     0     1017.2   NA       0.0000   9999     1020  0     0    
2019/09/03  06:46:00  BASE  2.69892  266  4.56876  257  -5.6  100   -5.6  0     0     1017.2   NA       0.0000   9999     1050  0     0    
2019/09/03  06:47:00  BASE  3.07524  267  4.56876  257  -5.6  100   -5.6  0     0     1017.1   NA       0.0000   9999     1050  0     0    
2019/09/03  06:48:00  BASE  3.2046   265  4.56876  257  -5.6  100   -5.6  0     0     1017.1   NA       0.0000   9999     1050  0     0    
2019/09/03  06:49:00  BASE  2.75772  264  4.56876  257  -5.6  100   -5.6  0     0     1017.2   NA       0.0000   9999     1050  0     0    
2019/09/03  06:50:00  BASE  2.55192  262  4.38648  254  -5.6  100   -5.6  0     0     1017.2   NA       0.0000   9999     950   0     0    
2019/09/03  06:51:00  BASE  2.35788  267  3.86904  253  -5.6  100   -5.6  0     0     1017.1   NA       0.0000   9999     980   0     0    
2019/09/03  06:52:00  BASE  2.04036  271  3.86904  253  -5.6  100   -5.6  0     0     1017.1   NA       0.0000   9999     980   0     0    
2019/09/03  06:53:00  BASE  2.21088  268  3.86904  253  -5.6  100   -5.6  0     0     1017.1   NA       0.0000   9999     980   0     0    
2019/09/03  06:54:00  BASE  2.793    263  3.81024  261  -5.6  100   -5.6  0     0     1017.1   NA       0.0000   9999     980   0     0    
2019/09/03  06:55:00  BASE  3.03996  260  3.81024  261  -5.6  100   -5.6  0     0     1017.1   NA       0.0000   9999     950   0     0    
2019/09/03  06:56:00  BASE  2.92236  263  3.81024  261  -5.6  100   -5.6  0     0     1017.0   NA       0.0000   9999     950   0     0    
2019/09/03  06:57:00  BASE  2.98704  263  3.81024  253  -5.6  100   -5.6  0     0     1017.0   NA       0.0000   9999     980   0     0    
2019/09/03  06:58:01  BASE  3.04584  261  3.81024  253  -5.7  100   -5.7  0     0     1017.0   NA       0.0000   9999     980   0     0    
2019/09/03  06:59:00  BASE  2.91648  261  3.81024  253  -5.7  100   -5.7  0     0     1017.0   NA       0.0000   9999     980   0     0    
2019/09/03  07:00:00  BASE  3.05172  269  3.81024  253  -5.7  100   -5.7  0     0     1016.9   NA       0.0000   9999     980   0     0    
2019/09/03  07:01:01  BASE  3.09876  271  3.81024  253  -5.7  100   -5.7  0     0     1016.9   NA       0.0000   9999     950   0     0    
2019/09/03  07:02:00  BASE  2.94588  270  3.81024  253  -5.7  100   -5.7  0     0     1016.9   NA       0.0000   9999     980   0     0    
2019/09/03  07:03:00  BASE  3.09288  272  3.81024  253  -5.7  100   -5.7  0     0     1016.9   NA       0.0000   9999     950   0     0    
2019/09/03  07:04:00  BASE  3.19872  269  4.02192  270  -5.7  100   -5.7  0     0     1016.9   NA       0.0000   9999     950   0     0    
2019/09/03  07:05:00  BASE  3.13992  262  4.02192  270  -5.8  100   -5.8  0     0     1016.9   NA       0.0000   9999     950   0     0    
2019/09/03  07:06:00  BASE  3.09288  256  4.02192  270  -5.8  100   -5.8  0     0     1016.9   NA       0.0000   9999     950   0     0    
2019/09/03  07:07:00  BASE  2.72244  261  4.02192  270  -5.8  100   -5.8  0     0     1016.9   NA       0.0000   9999     980   0     0    
2019/09/03  07:08:00  BASE  2.2932   273  4.02192  270  -5.8  100   -5.8  0     0     1016.9   NA       0.0000   9999     980   0     0    
2019/09/03  07:09:00  BASE  2.27556  275  4.02192  270  -5.8  100   -5.8  0     0     1016.9   NA       0.0000   9999     950   0     0    
2019/09/03  07:10:00  BASE  2.46372  274  4.02192  270  -5.8  100   -5.8  0     0     1016.9   NA       0.0000   9999     980   0     0    
2019/09/03  07:11:00  BASE  2.69892  278  4.02192  270  -5.8  100   -5.8  0     0     1016.9   NA       0.0000   9999     950   0     0    
2019/09/03  07:12:00  BASE  2.69304  280  4.02192  270  -5.7  100   -5.7  0     0     1016.9   NA       0.0000   9999     980   0     0    
2019/09/03  07:13:00  BASE  2.69304  274  4.02192  270  -5.7  100   -5.7  0     0     1016.9   NA       0.0000   9999     950   0     0    
2019/09/03  07:14:00  BASE  2.84592  263  3.53976  267  -5.7  100   -5.7  0     0     1016.9   NA       0.0000   9999     950   0     0    
2019/09/03  07:15:01  BASE  2.65188  262  3.41628  277  -5.7  100   -5.7  0     0     1016.9   NA       0.0000   9999     950   0     0    
2019/09/03  07:16:01  BASE  2.78124  266  3.41628  277  -5.7  100   -5.7  0     0     1016.9   NA       0.0000   9999     950   0     0    
2019/09/03  07:17:01  BASE  3.28104  258  3.62796  248  -5.8  100   -5.8  0     0     1016.9   NA       0.0000   9999     850   0     0    
2019/09/03  07:18:00  BASE  3.2634   250  3.62796  248  -5.8  100   -5.8  0     0     1016.9   NA       0.0000   9999     850   0     0    
2019/09/03  07:19:00  BASE  3.03996  251  3.62796  248  -5.8  100   -5.8  0     0     1016.9   NA       0.0000   9999     890   0     0    
2019/09/03  07:20:00  BASE  2.90472  248  3.62796  248  -5.8  100   -5.8  0     0     1016.9   NA       0.0000   9999     920   0     0    
2019/09/03  07:21:00  BASE  2.7048   245  3.62796  248  -5.9  100   -5.9  0     0     1016.9   NA       0.0000   9999     950   0     0    
2019/09/03  07:22:00  BASE  2.205    251  3.62796  248  -5.9  100   -5.9  0     0     1016.9   NA       0.0000   9999     950   0     0    
2019/09/03  07:23:00  BASE  1.82868  256  3.62796  248  -5.9  100   -5.9  0     0     1016.9   NA       0.0000   9999     920   0     0    
2019/09/03  07:24:00  BASE  2.00508  258  3.62796  248  -5.9  100   -5.9  0     0     1016.9   NA       0.0000   9999     850   0     0    
2019/09/03  07:25:00  BASE  2.09916  280  3.62796  248  -5.9  100   -5.9  0     0     1016.9   NA       0.0000   9999     920   0     0    
2019/09/03  07:26:00  BASE  1.95216  283  3.62796  248  -5.8  100   -5.8  0     0     1016.9   NA       0.0000   9999     920   0     0    
2019/09/03  07:27:00  BASE  1.8522   270  3.41628  256  -5.8  100   -5.8  0     0     1017.0   NA       0.0000   9999     920   0     0    
2019/09/03  07:28:00  BASE  1.81104  266  3.41628  256  -5.8  100   -5.8  0     0     1017.0   NA       0.0000   9999     920   0     0    
2019/09/03  07:29:00  BASE  2.11092  258  3.0576   241  -5.8  100   -5.8  0     0     1017.0   NA       0.0000   9999     890   0     0    
2019/09/03  07:30:00  BASE  2.16384  262  3.02232  258  -5.8  100   -5.8  0     0     1017.0   NA       0.0000   9999     890   0     0    
2019/09/03  07:31:00  BASE  2.16972  269  3.35748  265  -5.8  100   -5.8  0     0     1017.0   NA       0.0000   9999     920   0     0    
2019/09/03  07:32:00  BASE  2.7048   273  3.35748  265  -5.8  100   -5.8  0     0     1017.0   NA       0.0000   9999     920   0     0    
2019/09/03  07:33:00  BASE  2.92824  267  3.35748  260  -5.8  100   -5.8  0     0     1017.0   NA       0.0000   9999     920   0     0    
2019/09/03  07:34:00  BASE  2.95764  262  3.41628  273  -5.8  100   -5.8  0     0     1017.0   NA       0.0000   9999     920   0     0    
2019/09/03  07:35:00  BASE  3.00468  265  3.41628  254  -5.8  100   -5.8  0     0     1017.0   NA       0.0000   9999     850   0     0    
2019/09/03  07:36:00  BASE  2.87532  270  3.41628  254  -5.8  100   -5.8  0     0     1017.0   NA       0.0000   9999     850   0     0    
2019/09/03  07:37:00  BASE  2.87532  271  3.62796  269  -5.8  100   -5.8  0     0     1017.0   NA       0.0000   9999     850   0     0    
2019/09/03  07:38:00  BASE  3.07524  270  3.62796  277  -5.8  100   -5.8  0     0     1017.0   NA       0.0000   9999     920   0     0    
2019/09/03  07:39:00  BASE  3.06936  271  3.62796  277  -5.9  100   -5.9  0     0     1017.0   NA       0.0000   9999     920   0     0    
2019/09/03  07:40:00  BASE  3.11052  269  3.83964  269  -5.9  100   -5.9  0     0     1017.0   NA       0.0000   9999     850   0     0    
2019/09/03  07:41:00  BASE  2.92236  270  3.83964  269  -5.9  100   -5.9  0     0     1017.0   NA       0.0000   9999     820   0     0    
2019/09/03  07:42:00  BASE  2.55192  271  3.83964  269  -5.9  100   -5.9  0     0     1017.0   NA       0.0000   9999     890   0     0    
2019/09/03  07:43:00  BASE  2.46372  270  3.83964  269  -5.9  100   -5.9  0     0     1017.0   NA       0.0000   9999     890   0     0    
2019/09/03  07:44:00  BASE  2.42844  260  3.83964  269  -5.9  100   -5.9  0     0     1017.0   NA       0.0000   9999     890   0     0    
2019/09/03  07:45:00  BASE  2.81064  249  3.83964  269  -5.9  100   -5.9  0     0     1017.0   NA       0.0000   9999     920   0     0    
2019/09/03  07:46:00  BASE  3.01056  250  3.83964  269  -5.9  100   -5.9  0     0     1017.0   NA       0.0000   9999     890   0     0    
2019/09/03  07:47:00  BASE  2.69304  254  3.83964  269  -5.9  100   -5.9  0     0     1017.0   NA       0.0000   9999     850   0     0    
2019/09/03  07:48:00  BASE  2.49312  257  3.83964  269  -5.9  100   -5.9  0     0     1017.0   NA       0.0000   9999     890   0     0    
2019/09/03  07:49:00  BASE  2.36376  265  3.83964  269  -5.9  100   -5.9  0     0     1017.0   NA       0.0000   9999     890   0     0    
2019/09/03  07:50:00  BASE  2.06976  271  3.53976  247  -5.9  100   -5.9  0     0     1017.1   NA       0.0000   9999     890   0     0    
2019/09/03  07:51:00  BASE  1.81692  262  3.53976  247  -5.9  100   -5.9  0     0     1017.1   NA       0.0000   9999     920   0     0    
2019/09/03  07:52:00  BASE  2.19912  259  3.53976  247  -5.9  100   -5.9  0     0     1017.0   NA       0.0000   9999     920   0     0    
2019/09/03  07:53:00  BASE  2.63424  264  3.53976  247  -5.9  100   -5.9  0     0     1017.0   NA       0.0000   9999     850   0     0    
2019/09/03  07:54:00  BASE  2.38728  261  3.53976  247  -5.9  100   -5.9  0     0     1017.0   NA       0.0000   9999     890   0     0    
2019/09/03  07:55:00  BASE  2.01684  260  3.087    276  -5.9  100   -5.9  0     0     1017.0   NA       0.0000   9999     890   0     0    
2019/09/03  07:56:00  BASE  2.19324  259  3.087    276  -6.0  100   -6.0  0     0     1017.0   NA       0.0000   9999     920   0     0    
2019/09/03  07:57:00  BASE  2.42844  262  3.087    276  -6.0  100   -6.0  0     0     1017.0   NA       0.0000   9999     950   0     0    
2019/09/03  07:58:00  BASE  2.18148  283  3.087    276  -6.0  100   -6.0  0     0     1017.0   NA       0.0000   9999     950   0     0    
2019/09/03  07:59:00  BASE  2.22852  294  3.38688  317  -6.0  100   -6.0  0     0     1017.0   NA       0.0000   9999     920   0     0    
2019/09/03  08:00:00  BASE  2.8812   302  3.75144  315  -6.0  100   -6.0  0     0     1017.0   NA       0.0000   9999     950   0     0    
2019/09/03  08:01:00  BASE  3.13992  311  3.75144  315  -6.0  100   -6.0  0     0     1017.0   NA       0.0000   9999     950   0     0    
2019/09/03  08:02:01  BASE  3.28104  321  3.93372  328  -6.0  100   -6.0  0     0     1017.0   NA       0.0000   9999     950   0     0    
2019/09/03  08:03:00  BASE  3.68676  328  4.08072  332  -6.0  100   -6.0  0     0     1016.9   NA       0.0000   9999     950   0     0    
2019/09/03  08:04:00  BASE  3.4986   322  4.08072  332  -6.0  100   -6.0  0     0     1016.9   NA       0.0000   9999     950   0     0    
2019/09/03  08:05:00  BASE  3.21048  316  4.08072  332  -6.1  100   -6.1  0     0     1017.0   NA       0.0000   9999     920   0     0    
2019/09/03  08:06:00  BASE  2.94     316  4.08072  332  -6.1  100   -6.1  0     0     1016.9   NA       0.0000   9999     950   0     0    
2019/09/03  08:07:00  BASE  2.79888  314  4.08072  332  -6.1  100   -6.1  0     0     1016.9   NA       0.0000   9999     920   0     0    
2019/09/03  08:08:00  BASE  2.90472  313  4.08072  332  -6.1  100   -6.1  0     0     1016.9   NA       0.0000   9999     950   0     0    
2019/09/03  08:09:00  BASE  3.22224  318  4.08072  332  -6.1  100   -6.1  0     0     1016.9   NA       0.0000   9999     920   0     0    
2019/09/03  08:10:00  BASE  3.31632  323  4.08072  332  -6.1  100   -6.1  0     0     1016.9   NA       0.0000   9999     950   0     0    
2019/09/03  08:11:00  BASE  3.1164   325  4.08072  332  -6.1  100   -6.1  0     0     1016.9   NA       0.0000   9999     950   0     0    
2019/09/03  08:12:01  BASE  2.81652  320  4.08072  332  -6.1  100   -6.1  0     0     1016.9   NA       0.0000   9999     950   0     0    
2019/09/03  08:13:01  BASE  2.56368  315  3.96312  313  -6.1  100   -6.1  0     0     1016.9   NA       0.0000   9999     950   0     0    
2019/09/03  08:14:01  BASE  2.83416  318  3.96312  313  -6.1  100   -6.1  0     0     1016.9   NA       0.0000   9999     950   0     0    
2019/09/03  08:15:01  BASE  3.30456  308  4.08072  292  -6.1  100   -6.1  0     0     1016.9   NA       0.0000   9999     950   0     0    
2019/09/03  08:16:01  BASE  3.4104   300  4.08072  292  -6.1  100   -6.1  0     0     1016.9   NA       0.0000   9999     890   0     0    
2019/09/03  08:17:01  BASE  3.27516  303  4.08072  292  -6.1  100   -6.1  0     0     1016.9   NA       0.0000   9999     920   0     0    
2019/09/03  08:18:01  BASE  3.381    303  4.08072  292  -6.1  100   -6.1  0     0     1016.9   NA       0.0000   9999     920   0     0    
2019/09/03  08:19:01  BASE  3.4692   306  4.08072  292  -6.1  100   -6.1  0     0     1016.9   NA       0.0000   9999     890   0     0    
2019/09/03  08:20:01  BASE  3.56916  312  4.08072  292  -6.1  100   -6.1  0     0     1016.9   NA       0.0000   9999     890   0     0    
2019/09/03  08:21:01  BASE  3.24576  319  4.08072  292  -6.1  100   -6.1  0     0     1016.9   NA       0.0000   9999     890   0     0    
2019/09/03  08:22:01  BASE  2.77536  324  4.08072  292  -6.1  100   -6.1  0     0     1016.9   NA       0.0000   9999     920   0     0    
2019/09/03  08:23:00  BASE  2.64012  322  4.08072  292  -6.1  100   -6.1  0     0     1016.8   NA       0.0000   9999     850   0     0    
2019/09/03  08:24:01  BASE  2.40492  315  4.08072  292  -6.1  100   -6.1  0     0     1016.8   NA       0.0000   9999     920   0     0    
2019/09/03  08:25:00  BASE  2.37552  311  3.93372  312  -6.1  100   -6.1  0     0     1016.7   NA       0.0000   9999     950   0     0    
2019/09/03  08:26:01  BASE  2.22852  317  3.93372  312  -6.1  100   -6.1  0     0     1016.7   NA       0.0000   9999     980   0     0    
2019/09/03  08:27:01  BASE  1.81692  330  3.93372  312  -6.2  100   -6.2  0     0     1016.7   NA       0.0000   9999     980   0     0    
2019/09/03  08:28:01  BASE  1.63464  337  3.93372  312  -6.2  100   -6.2  0     0     1016.7   NA       0.0000   9999     1020  0     0    
2019/09/03  08:29:00  BASE  1.764    337  3.93372  312  -6.2  100   -6.2  0     0     1016.7   NA       0.0000   9999     920   0     0    
2019/09/03  08:30:00  BASE  1.96392  336  3.087    321  -6.2  100   -6.2  0     0     1016.7   NA       0.0000   9999     920   0     0    
2019/09/03  08:31:00  BASE  2.36376  331  3.2046   315  -6.2  100   -6.2  0     0     1016.7   NA       0.0000   9999     950   0     0    
2019/09/03  08:32:00  BASE  2.95176  318  3.59856  308  -6.2  100   -6.2  0     0     1016.7   NA       0.0000   9999     980   0     0    
2019/09/03  08:33:00  BASE  3.12228  303  3.59856  308  -6.2  100   -6.2  0     0     1016.7   NA       0.0000   9999     980   0     0    
2019/09/03  08:34:00  BASE  2.8224   300  3.59856  308  -6.2  100   -6.2  0     0     1016.7   NA       0.0000   9999     950   0     0    
2019/09/03  08:35:00  BASE  2.3814   310  3.59856  308  -6.2  100   -6.2  0     0     1016.7   NA       0.0000   9999     1020  0     0    
2019/09/03  08:36:00  BASE  2.01684  313  3.59856  308  -6.2  100   -6.2  0     0     1016.7   NA       0.0000   9999     1020  0     0    
2019/09/03  08:37:00  BASE  1.93452  307  3.59856  308  -6.2  100   -6.2  0     0     1016.7   NA       0.0000   9999     1020  0     0    
2019/09/03  08:38:00  BASE  1.8816   297  3.59856  308  -6.2  100   -6.2  0     0     1016.7   NA       0.0000   9999     980   0     0    
2019/09/03  08:39:00  BASE  1.92276  290  3.59856  308  -6.2  100   -6.2  0     0     1016.7   NA       0.0000   9999     950   0     0    
2019/09/03  08:40:00  BASE  1.9404   291  3.59856  308  -6.1  100   -6.1  0     0     1016.7   NA       0.0000   9999     950   0     0    
2019/09/03  08:41:01  BASE  1.80516  294  3.59856  308  -6.1  100   -6.1  0     0     1016.7   NA       0.0000   9999     850   0     0    
2019/09/03  08:42:01  BASE  1.92864  300  3.29868  285  -6.1  100   -6.1  0     0     1016.7   NA       0.0000   9999     850   0     0    
2019/09/03  08:43:01  BASE  2.25792  314  3.087    304  -6.1  100   -6.1  0     0     1016.6   NA       0.0000   9999     890   0     0    
2019/09/03  08:44:01  BASE  2.25792  333  2.59896  326  -6.2  100   -6.2  0     0     1016.6   NA       0.0000   9999     950   0     0    
2019/09/03  08:45:01  BASE  1.89924  342  2.59896  326  -6.2  100   -6.2  0     0     1016.6   NA       0.0000   9999     980   0     0    
2019/09/03  08:46:01  BASE  1.75812  343  2.59896  326  -6.2  100   -6.2  0     0     1016.6   NA       0.0000   9999     980   0     0    
2019/09/03  08:47:00  BASE  1.7052   341  2.59896  326  -6.2  100   -6.2  0     0     1016.6   NA       0.0000   9999     980   0     0    
2019/09/03  08:48:00  BASE  1.64052  332  2.59896  326  -6.2  100   -6.2  0     0     1016.6   NA       0.0000   9999     980   0     0    
2019/09/03  08:49:00  BASE  1.65816  326  2.59896  326  -6.2  100   -6.2  0     0     1016.5   NA       0.0000   9999     950   0     0    
2019/09/03  08:50:00  BASE  1.83456  325  2.59896  326  -6.2  100   -6.2  0     0     1016.5   NA       0.0000   9999     980   0     0    
2019/09/03  08:51:00  BASE  2.18736  317  2.63424  314  -6.2  100   -6.2  0     0     1016.5   NA       0.0000   9999     980   0     0    
2019/09/03  08:52:00  BASE  2.47548  309  2.81064  308  -6.2  100   -6.2  0     0     1016.6   NA       0.0000   9999     1020  0     0    
2019/09/03  08:53:00  BASE  2.54604  310  2.81064  308  -6.2  100   -6.2  0     0     1016.6   NA       0.0000   9999     950   0     0    
2019/09/03  08:54:00  BASE  2.5284   315  2.81064  308  -6.2  100   -6.2  0     0     1016.6   NA       0.0000   9999     1020  0     0    
2019/09/03  08:55:00  BASE  2.50488  295  2.81064  240  -6.2  100   -6.2  0     0     1016.6   NA       0.0000   9999     1020  0     0    
2019/09/03  08:56:00  BASE  2.5578   266  3.02232  263  -6.2  100   -6.2  0     0     1016.6   NA       0.0000   9999     1050  0     0    
2019/09/03  08:57:00  BASE  2.31672  260  3.02232  263  -6.2  100   -6.2  0     0     1016.6   NA       0.0000   9999     980   0     0    
2019/09/03  08:58:00  BASE  1.71108  268  3.02232  263  -6.3  100   -6.3  0     0     1016.6   NA       0.0000   9999     950   0     0    
2019/09/03  08:59:00  BASE  1.37004  277  3.02232  263  -6.3  100   -6.3  0     0     1016.6   NA       0.0000   9999     920   0     0    
2019/09/03  09:00:00  BASE  1.29948  285  3.02232  263  -6.3  100   -6.3  0     0     1016.6   NA       0.0000   9999     920   0     0    
2019/09/03  09:01:00  BASE  1.21128  299  3.02232  263  -6.3  100   -6.3  0     0     1016.6   NA       0.0000   9999     1020  0     0    
2019/09/03  09:02:01  BASE  1.21716  303  3.02232  263  -6.3  100   -6.3  0     0     1016.6   NA       0.0000   9999     1020  0     0    
2019/09/03  09:03:01  BASE  1.30536  306  3.02232  263  -6.2  100   -6.2  0     0     1016.6   NA       0.0000   9999     980   0     0    
2019/09/03  09:04:00  BASE  1.25244  314  3.02232  263  -6.2  100   -6.2  0     0     1016.6   NA       0.0000   9999     980   0     0    
2019/09/03  09:05:00  BASE  1.11132  312  3.02232  263  -6.2  100   -6.2  0     0     1016.6   NA       0.0000   9999     1020  0     0    
2019/09/03  09:06:00  BASE  1.07604  296  2.35788  263  -6.2  100   -6.2  0     0     1016.6   NA       0.0000   9999     980   0     0    
2019/09/03  09:07:00  BASE  1.69344  273  4.116    258  -6.2  100   -6.2  0     0     1016.6   NA       0.0000   9999     950   0     0    
2019/09/03  09:08:00  BASE  2.66952  266  4.116    258  -6.2  100   -6.2  0     0     1016.6   NA       0.0000   9999     950   0     0    
2019/09/03  09:09:00  BASE  2.94     273  4.116    258  -6.2  100   -6.2  0     0     1016.6   NA       0.0000   9999     950   0     0    
2019/09/03  09:10:00  BASE  3.03408  278  4.1454   295  -6.2  100   -6.2  0     0     1016.5   NA       0.0000   9999     980   0     0    
2019/09/03  09:11:00  BASE  3.56916  282  4.41588  281  -6.2  100   -6.2  0     0     1016.5   NA       0.0000   9999     950   0     0    
2019/09/03  09:12:00  BASE  3.63972  286  4.41588  281  -6.2  100   -6.2  0     0     1016.5   NA       0.0000   9999     980   0     0    
2019/09/03  09:13:00  BASE  3.4986   279  4.41588  281  -6.2  100   -6.2  0     0     1016.5   NA       0.0000   9999     980   0     0    
2019/09/03  09:14:00  BASE  3.09876  264  4.41588  281  -6.2  100   -6.2  0     0     1016.5   NA       0.0000   9999     1020  0     0    
2019/09/03  09:15:00  BASE  2.49312  264  4.41588  281  -6.2  100   -6.2  0     0     1016.5   NA       0.0000   9999     1020  0     0    
2019/09/03  09:16:00  BASE  2.8812   263  4.41588  281  -6.2  100   -6.2  0     0     1016.5   NA       0.0000   9999     1050  0     0    
2019/09/03  09:17:00  BASE  3.58092  257  4.41588  281  -6.2  100   -6.2  0     0     1016.5   NA       0.0000   9999     1050  0     0    
2019/09/03  09:18:00  BASE  3.78084  258  4.41588  281  -6.2  100   -6.2  0     0     1016.5   NA       0.0000   9999     1020  0     0    
2019/09/03  09:19:00  BASE  3.48096  263  4.41588  281  -6.3  100   -6.3  0     0     1016.6   NA       0.0000   9999     1020  0     0    
2019/09/03  09:20:01  BASE  3.43392  276  4.41588  281  -6.3  100   -6.3  0     0     1016.6   NA       0.0000   9999     1020  0     0    
2019/09/03  09:21:01  BASE  3.66324  284  4.35708  261  -6.3  100   -6.4  0     0     1016.6   NA       0.0000   9999     1050  0     0    
2019/09/03  09:22:01  BASE  3.29868  285  4.35708  261  -6.4  100   -6.4  0     0     1016.6   NA       0.0000   9999     1180  0     0    
2019/09/03  09:23:01  BASE  2.96352  284  4.35708  261  -6.4  100   -6.4  0     0     1016.6   NA       0.0000   9999     1250  0     0    
2019/09/03  09:24:01  BASE  2.59896  284  4.35708  261  -6.4  100   -6.4  0     0     1016.7   NA       0.0000   9999     1180  0     0    
2019/09/03  09:25:01  BASE  2.28144  279  4.35708  261  -6.3  100   -6.3  0     0     1016.7   NA       0.0000   9999     920   0     0    
2019/09/03  09:26:01  BASE  1.97568  282  4.35708  261  -6.3  100   -6.3  0     0     1016.7   NA       0.0000   9999     890   0     0    
2019/09/03  09:27:01  BASE  1.45824  288  4.35708  261  -6.3  100   -6.3  0     0     1016.7   NA       0.0000   9999     980   0     0    
2019/09/03  09:28:01  BASE  1.31712  292  4.05132  285  -6.3  100   -6.3  0     0     1016.7   NA       0.0000   9999     980   0     0    
2019/09/03  09:29:00  BASE  1.19952  298  4.05132  285  -6.4  100   -6.4  0     0     1016.7   NA       0.0000   9999     1020  0     0    
2019/09/03  09:30:00  BASE  1.21716  300  4.05132  285  -6.4  100   -6.4  0     0     1016.7   NA       0.0000   9999     950   0     0    
2019/09/03  09:31:00  BASE  1.61112  295  3.51036  283  -6.4  100   -6.4  0     0     1016.7   NA       0.0000   9999     980   0     0    
2019/09/03  09:32:00  BASE  1.84044  287  3.48096  279  -6.3  100   -6.3  0     0     1016.7   NA       0.0000   9999     1020  0     0    
2019/09/03  09:33:00  BASE  2.05212  298  2.75184  288  -6.3  100   -6.3  0     0     1016.7   NA       0.0000   9999     980   0     0    
2019/09/03  09:34:01  BASE  2.09916  310  2.56956  274  -6.3  100   -6.3  0     0     1016.7   NA       0.0000   9999     920   0     0    
2019/09/03  09:35:01  BASE  1.6464   302  2.45196  303  -6.3  100   -6.3  0     0     1016.7   NA       0.0000   9999     920   0     0    
2019/09/03  09:36:01  BASE  1.65816  306  2.45196  303  -6.4  100   -6.4  0     0     1016.7   NA       0.0000   9999     890   0     0    
2019/09/03  09:37:01  BASE  2.31084  318  2.96352  307  -6.4  100   -6.4  0     0     1016.6   NA       0.0000   9999     920   0     0    
2019/09/03  09:38:00  BASE  2.81064  315  3.1458   322  -6.4  100   -6.4  0     0     1016.6   NA       0.0000   9999     950   0     0    
2019/09/03  09:39:00  BASE  2.7342   309  3.1458   322  -6.4  100   -6.4  0     0     1016.6   NA       0.0000   9999     950   0     0    
2019/09/03  09:40:00  BASE  2.10504  312  3.1458   322  -6.4  100   -6.4  0     0     1016.6   NA       0.0000   9999     920   0     0    
2019/09/03  09:41:00  BASE  1.27596  320  3.1458   322  -6.4  100   -6.4  0     0     1016.6   NA       0.0000   9999     920   0     0    
2019/09/03  09:42:00  BASE  1.029    319  3.1458   322  -6.4  100   -6.4  0     0     1016.6   NA       0.0000   9999     920   0     0    
2019/09/03  09:43:00  BASE  1.4406   311  3.1458   322  -6.4  100   -6.4  0     0     1016.5   NA       0.0000   9999     850   0     0    
2019/09/03  09:44:00  BASE  1.69344  303  3.1458   322  -6.4  100   -6.4  0     0     1016.5   NA       0.0000   9999     850   0     0    
2019/09/03  09:45:00  BASE  1.81104  294  3.1458   322  -6.4  100   -6.4  0     0     1016.5   NA       0.0000   9999     890   0     0    
2019/09/03  09:46:00  BASE  1.60524  294  3.1458   322  -6.4  100   -6.4  0     0     1016.5   NA       0.0000   9999     920   0     0    
2019/09/03  09:47:00  BASE  1.64052  294  3.1458   322  -6.4  100   -6.4  0     0     1016.4   NA       0.0000   9999     890   0     0    
2019/09/03  09:48:00  BASE  2.01684  293  2.96352  308  -6.3  100   -6.3  0     0     1016.4   NA       0.0000   9999     920   0     0    
2019/09/03  09:49:00  BASE  2.75184  293  3.93372  294  -6.3  100   -6.3  0     0     1016.4   NA       0.0000   9999     890   0     0    
2019/09/03  09:50:00  BASE  3.19872  284  3.93372  294  -6.3  100   -6.3  0     0     1016.4   NA       0.0000   9999     890   0     0    
2019/09/03  09:51:00  BASE  2.53428  281  3.93372  294  -6.3  100   -6.3  0     0     1016.4   NA       0.0000   9999     890   0     0    
2019/09/03  09:52:00  BASE  2.30496  273  3.93372  294  -6.2  100   -6.2  0     0     1016.4   NA       0.0000   9999     920   0     0    
2019/09/03  09:53:00  BASE  2.97528  262  4.116    257  -6.2  100   -6.2  0     0     1016.3   NA       0.0000   9999     890   0     0    
2019/09/03  09:54:00  BASE  3.45156  256  4.2042   256  -6.2  100   -6.2  0     0     1016.3   NA       0.0000   9999     850   0     0    
2019/09/03  09:55:00  BASE  2.97528  249  4.2042   256  -6.3  100   -6.3  0     0     1016.3   NA       0.0000   9999     820   0     0    
2019/09/03  09:56:00  BASE  2.6166   250  4.2042   256  -6.3  100   -6.3  0     0     1016.3   NA       0.0000   9999     820   0     0    
2019/09/03  09:57:00  BASE  2.63424  248  4.2042   256  -6.4  100   -6.4  0     0     1016.3   NA       0.0000   9999     890   0     0    
2019/09/03  09:58:00  BASE  2.48724  240  4.2042   256  -6.4  100   -6.4  0     0     1016.2   NA       0.0000   9999     890   0     0    
2019/09/03  09:59:01  BASE  2.42256  239  4.2042   256  -6.4  100   -6.4  0     0     1016.1   NA       0.0000   9999     890   0     0    
2019/09/03  10:00:01  BASE  2.352    245  4.2042   256  -6.4  100   -6.4  0     0     1016.1   NA       0.0000   9999     850   0     0    
2019/09/03  10:01:01  BASE  2.98116  264  4.2042   256  -6.4  100   -6.4  0     0     1016.1   NA       0.0000   9999     890   0     0    
2019/09/03  10:02:01  BASE  3.0282   275  4.2042   256  -6.4  100   -6.4  0     0     1016.1   NA       0.0000   9999     850   0     0    
2019/09/03  10:03:01  BASE  2.08152  279  4.2042   256  -6.4  100   -6.4  0     0     1015.9   NA       0.0000   9999     890   0     0    
2019/09/03  10:04:01  BASE  2.06388  288  3.99252  274  -6.5  100   -6.5  0     0     1015.9   NA       0.0000   9999     920   0     0    
2019/09/03  10:05:01  BASE  2.87532  294  3.99252  274  -6.5  100   -6.5  0     0     1015.9   NA       0.0000   9999     980   0     0    
2019/09/03  10:06:01  BASE  3.36336  295  3.99252  274  -6.5  100   -6.5  0     0     1015.9   NA       0.0000   9999     1020  0     0    
2019/09/03  10:07:01  BASE  3.19284  292  3.99252  274  -6.5  100   -6.5  0     0     1015.9   NA       0.0000   9999     1020  0     0    
2019/09/03  10:08:01  BASE  3.03408  289  3.99252  274  -6.4  100   -6.4  0     0     1015.9   NA       0.0000   9999     950   0     0    
2019/09/03  10:09:01  BASE  2.8812   285  3.99252  274  -6.4  100   -6.4  0     0     1015.9   NA       0.0000   9999     980   0     0    
2019/09/03  10:10:00  BASE  2.50488  283  3.99252  274  -6.4  100   -6.4  0     0     1015.9   NA       0.0000   9999     1120  0     0    
2019/09/03  10:11:00  BASE  2.13444  282  3.59856  297  -6.5  100   -6.5  0     0     1015.9   NA       0.0000   9999     890   0     0    
2019/09/03  10:12:00  BASE  2.13444  294  3.59856  297  -6.5  100   -6.5  0     0     1015.9   NA       0.0000   9999     920   0     0    
2019/09/03  10:13:00  BASE  2.27556  311  3.59856  297  -6.5  100   -6.5  0     0     1015.9   NA       0.0000   9999     850   0     0    
2019/09/03  10:14:00  BASE  2.32848  320  3.59856  297  -6.5  100   -6.5  0     0     1015.9   NA       0.0000   9999     850   0     0    
2019/09/03  10:15:00  BASE  2.64012  321  3.59856  297  -6.6  100   -6.6  0     0     1015.9   NA       0.0000   9999     890   0     0    
2019/09/03  10:16:00  BASE  2.499    314  3.29868  289  -6.6  100   -6.6  0     0     1015.9   NA       0.0000   9999     920   0     0    
2019/09/03  10:17:00  BASE  1.99332  314  3.29868  289  -6.6  100   -6.6  0     0     1015.9   NA       0.0000   9999     950   0     0    
2019/09/03  10:18:00  BASE  2.2344   323  3.234    282  -6.6  100   -6.6  0     0     1015.9   NA       0.0000   9999     820   0     0    
2019/09/03  10:19:00  BASE  2.48724  324  3.2046   315  -6.6  100   -6.6  0     0     1016.0   NA       0.0000   9999     820   0     0    
2019/09/03  10:20:00  BASE  2.57544  313  3.2046   315  -6.6  100   -6.6  0     0     1016.1   NA       0.0000   9999     950   0     0    
2019/09/03  10:21:00  BASE  2.42844  295  3.53976  293  -6.6  100   -6.6  0     0     1016.1   NA       0.0000   9999     750   0     0    
2019/09/03  10:22:00  BASE  2.87532  285  4.05132  275  -6.5  100   -6.5  0     0     1016.1   NA       0.0000   9999     750   0     0    
2019/09/03  10:23:00  BASE  2.98116  277  4.05132  275  -6.5  100   -6.5  0     0     1016.3   NA       0.0000   9999     660   0     0    
2019/09/03  10:24:00  BASE  2.34612  274  4.05132  275  -6.5  100   -6.5  0     0     1016.3   NA       0.0000   9999     660   0     0    
2019/09/03  10:25:00  BASE  2.5872   278  4.05132  275  -6.5  100   -6.5  0     0     1016.3   NA       0.0000   9999     690   0     0    
2019/09/03  10:26:00  BASE  2.68716  272  4.05132  275  -6.5  100   -6.5  0     0     1016.2   NA       0.0000   9999     720   0     0    
2019/09/03  10:27:00  BASE  3.46332  264  4.93332  268  -6.5  100   -6.5  0     0     1016.2   NA       0.0000   9999     660   0     0    
2019/09/03  10:28:00  BASE  3.97488  256  4.93332  268  -6.5  100   -6.5  0     0     1016.2   NA       0.0000   9999     690   0     0    
2019/09/03  10:29:00  BASE  3.69264  251  4.93332  268  -6.5  100   -6.5  0     0     1016.1   NA       0.0000   9999     690   0     0    
2019/09/03  10:30:00  BASE  3.48096  256  4.93332  268  -6.6  100   -6.6  0     0     1016.1   NA       0.0000   9999     720   0     0    
2019/09/03  10:31:00  BASE  3.4398   268  4.93332  268  -6.6  100   -6.6  0     0     1016.1   NA       0.0000   9999     720   0     0    
2019/09/03  10:32:00  BASE  3.72204  272  4.93332  268  -6.6  100   -6.6  0     0     1016.1   NA       0.0000   9999     690   0     0    
2019/09/03  10:33:00  BASE  3.45156  272  4.93332  268  -6.6  100   -6.6  0     0     1016.1   NA       0.0000   9999     690   0     0    
2019/09/03  10:34:00  BASE  3.0576   270  4.93332  268  -6.6  100   -6.6  0     0     1016.2   NA       0.0000   9999     750   0     0    
2019/09/03  10:35:00  BASE  3.381    258  4.93332  268  -6.6  100   -6.6  0     0     1016.1   NA       0.0000   9999     750   0     0    
2019/09/03  10:36:00  BASE  3.81612  251  4.93332  268  -6.7  100   -6.7  0     0     1016.1   NA       0.0000   9999     660   0     0    
2019/09/03  10:37:00  BASE  3.48684  252  4.65696  270  -6.7  100   -6.7  0     0     1016.1   NA       0.0000   9999     660   0     0    
2019/09/03  10:38:01  BASE  3.16932  252  4.65696  270  -6.7  100   -6.7  0     0     1016.1   NA       0.0000   9999     660   0     0    
2019/09/03  10:39:01  BASE  2.78712  251  4.65696  270  -6.7  100   -6.7  0     0     1016.1   NA       0.0000   9999     660   0     0    
2019/09/03  10:40:01  BASE  2.32848  256  4.65696  270  -6.8  100   -6.8  0     0     1016.1   NA       0.0000   9999     790   0     0    
2019/09/03  10:41:01  BASE  2.15208  278  4.56876  246  -6.8  100   -6.8  0     0     1016.1   NA       0.0000   9999     820   0     0    
2019/09/03  10:42:01  BASE  2.45784  296  4.56876  246  -6.8  100   -6.8  0     0     1016.1   NA       0.0000   9999     820   0     0    
2019/09/03  10:43:00  BASE  3.15168  293  4.56876  246  -6.8  100   -6.8  0     0     1016.1   NA       0.0000   9999     820   0     0    
2019/09/03  10:44:00  BASE  2.87532  279  4.56876  246  -6.8  100   -6.8  0     0     1016.1   NA       0.0000   9999     850   0     0    
2019/09/03  10:45:00  BASE  2.10504  265  4.47468  244  -6.8  100   -6.8  0     0     1016.1   NA       0.0000   9999     850   0     0    
2019/09/03  10:46:00  BASE  1.74048  260  3.86904  286  -6.8  100   -6.8  0     0     1016.1   NA       0.0000   9999     890   0     0    
2019/09/03  10:47:00  BASE  1.66404  275  3.86904  286  -6.8  100   -6.8  0     0     1016.1   NA       0.0000   9999     850   0     0    
2019/09/03  10:48:00  BASE  1.99332  288  3.86904  286  -6.8  100   -6.8  0     0     1016.1   NA       0.0000   9999     850   0     0    
2019/09/03  10:49:00  BASE  2.36964  284  3.86904  286  -6.8  100   -6.8  0     0     1016.1   NA       0.0000   9999     850   0     0    
2019/09/03  10:50:00  BASE  2.39904  274  3.86904  286  -6.8  100   -6.8  0     0     1016.1   NA       0.0000   9999     820   0     0    
2019/09/03  10:51:00  BASE  2.6166   264  3.86904  286  -6.8  100   -6.8  0     0     1016.0   NA       0.0000   9999     890   0     0    
2019/09/03  10:52:00  BASE  2.92236  249  3.86904  286  -6.8  100   -6.8  0     0     1016.0   NA       0.0000   9999     820   0     0    
2019/09/03  10:53:00  BASE  2.69892  233  3.83964  256  -6.8  100   -6.8  0     0     1016.1   NA       0.0000   9999     750   0     0    
2019/09/03  10:54:00  BASE  2.4402   229  3.83964  256  -6.9  100   -6.9  0     0     1016.1   NA       0.0000   9999     790   0     0    
2019/09/03  10:55:00  BASE  1.58172  227  3.83964  256  -6.9  100   -6.9  0     0     1016.1   NA       0.0000   9999     750   0     0    
2019/09/03  10:56:00  BASE  0.59388  193  3.83964  256  -6.9  100   -6.9  0     0     1016.1   NA       0.0000   9999     720   0     0    
2019/09/03  10:57:00  BASE  0.68208  173  3.83964  256  -6.9  100   -6.9  0     0     1016.0   NA       0.0000   9999     690   0     0    
2019/09/03  10:58:00  BASE  0.78792  220  3.83964  256  -7.0  100   -7.0  0     0     1015.9   NA       0.0000   9999     790   0     0    
2019/09/03  10:59:00  BASE  0.78792  277  3.83964  256  -7.0  100   -7.0  0     0     1015.9   NA       0.0000   9999     890   0     0    
2019/09/03  11:00:00  BASE  1.07604  291  3.83964  256  -7.0  100   -7.0  0     0     1015.9   NA       0.0000   9999     890   0     0    
2019/09/03  11:01:00  BASE  1.2642   305  3.38688  258  -7.0  100   -7.0  0     0     1015.9   NA       0.0000   9999     850   0     0    
2019/09/03  11:02:00  BASE  1.35828  313  3.02232  238  -7.0  100   -7.0  0     0     1015.9   NA       0.0000   9999     890   0     0    
2019/09/03  11:03:00  BASE  1.17012  310  3.02232  238  -7.0  100   -7.0  0     0     1015.9   NA       0.0000   9999     890   0     0    
2019/09/03  11:04:00  BASE  1.04076  312  1.90512  223  -7.0  100   -7.0  0     0     1015.9   NA       0.0000   9999     850   0     0    
2019/09/03  11:05:00  BASE  1.07604  314  1.63464  318  -7.0  100   -7.0  1     0     1015.9   NA       0.0000   9999     790   0     0    
2019/09/03  11:06:00  BASE  0.4998   315  1.63464  318  -7.0  100   -7.0  1     0     1015.9   NA       0.0000   9999     750   0     0    
2019/09/03  11:07:00  BASE  0        330  1.63464  318  -7.0  100   -7.0  1     0     1015.9   NA       0.0000   9999     850   0     0    
2019/09/03  11:08:00  BASE  0        341  1.57584  303  -7.0  100   -7.0  1     0     1015.9   NA       0.0000   9999     920   0     0    
2019/09/03  11:09:00  BASE  0        325  1.57584  303  -7.0  100   -7.0  1     0     1015.9   NA       0.0000   9999     790   0     0    
2019/09/03  11:10:00  BASE  0.0294   279  1.57584  303  -7.0  100   -7.0  1     0     1015.8   NA       0.0000   9999     750   0     0    
2019/09/03  11:11:00  BASE  0.15288  261  1.57584  303  -6.9  100   -6.9  1     0     1015.8   NA       0.0000   9999     750   0     0    
2019/09/03  11:12:00  BASE  0.69384  246  1.57584  238  -6.9  100   -6.9  1     0     1015.8   NA       0.0000   9999     790   0     0    
2019/09/03  11:13:00  BASE  1.323    218  2.35788  228  -6.9  100   -6.9  1     0     1015.8   NA       0.0000   9999     790   0     0    
2019/09/03  11:14:00  BASE  1.9404   212  3.087    216  -6.9  100   -6.9  2     0     1015.8   NA       0.0000   9999     790   0     0    
2019/09/03  11:15:00  BASE  2.34612  209  3.087    216  -6.8  100   -6.8  2     0     1015.8   NA       0.0000   9999     720   0     0    
2019/09/03  11:16:00  BASE  1.9404   203  3.087    216  -6.8  100   -6.8  2     0     1015.8   NA       0.0000   9999     690   0     0    
2019/09/03  11:17:00  BASE  1.2054   211  3.087    216  -6.8  100   -6.8  2     0     1015.8   NA       0.0000   9999     790   0     0    
2019/09/03  11:18:00  BASE  0.63504  216  3.087    216  -6.9  100   -6.9  2     0     1015.8   NA       0.0000   9999     850   0     0    
2019/09/03  11:19:00  BASE  0.46452  222  3.087    216  -6.9  100   -6.9  3     0     1015.9   NA       0.0000   9999     720   0     0    
2019/09/03  11:20:00  BASE  0.58212  232  3.087    216  -6.9  100   -6.9  3     0     1015.9   NA       0.0000   9999     690   0     0    
2019/09/03  11:21:00  BASE  1.01136  239  3.087    216  -6.9  100   -6.9  3     0     1015.9   NA       0.0000   9999     790   0     0    
2019/09/03  11:22:00  BASE  1.69932  249  3.087    216  -6.9  100   -6.9  3     0     1015.8   NA       0.0000   9999     720   0     0    
2019/09/03  11:23:00  BASE  1.90512  251  3.087    216  -6.9  100   -6.9  4     0     1015.8   NA       0.0000   9999     690   0     0    
2019/09/03  11:24:00  BASE  1.48176  252  2.90472  212  -6.9  100   -6.9  4     0     1015.8   NA       0.0000   9999     720   0     0    
2019/09/03  11:25:00  BASE  1.06428  258  2.42256  245  -6.9  100   -6.9  4     0     1015.8   NA       0.0000   9999     790   0     0    
2019/09/03  11:26:00  BASE  1.01724  275  2.42256  245  -6.9  100   -6.9  5     0     1015.8   NA       0.0000   9999     750   0     0    
2019/09/03  11:27:00  BASE  0.64092  289  2.42256  245  -6.9  100   -6.9  5     0     1015.7   NA       0.0000   9999     750   0     0    
2019/09/03  11:28:00  BASE  0.71736  293  2.42256  245  -6.9  100   -6.9  5     0     1015.7   NA       0.0000   9999     750   0     0    
2019/09/03  11:29:00  BASE  1.62288  280  2.42256  258  -6.9  100   -6.9  6     0     1015.8   NA       0.0000   9999     790   0     0    
2019/09/03  11:30:00  BASE  1.89924  266  2.42256  258  -6.9  100   -6.9  6     0     1015.8   NA       0.0000   9999     820   0     0    
2019/09/03  11:31:00  BASE  2.04036  269  2.81064  276  -6.9  100   -6.9  6     0     1015.8   NA       0.0000   9999     790   0     0    
2019/09/03  11:32:00  BASE  2.07564  273  2.81064  276  -6.9  100   -6.9  7     0     1015.7   NA       0.0000   9999     720   0     0    
2019/09/03  11:33:00  BASE  1.75224  271  2.81064  276  -6.9  100   -6.9  7     0     1015.7   NA       0.0000   9999     750   0     0    
2019/09/03  11:34:00  BASE  1.75812  271  2.81064  276  -6.9  100   -6.9  7     0     1015.7   NA       0.0000   9999     790   0     0    
2019/09/03  11:35:00  BASE  2.2932   281  3.1164   289  -6.9  100   -6.9  8     0     1015.7   NA       0.0000   9999     790   0     0    
2019/09/03  11:36:00  BASE  2.72244  290  3.29868  287  -6.9  100   -6.9  8     0     1015.7   NA       0.0000   9999     720   0     0    
2019/09/03  11:37:00  BASE  2.7048   280  3.29868  287  -6.9  100   -6.9  9     0     1015.7   NA       0.0000   9999     790   0     0    
2019/09/03  11:38:00  BASE  2.48136  259  3.29868  287  -6.9  100   -6.9  9     0     1015.7   NA       0.0000   9999     790   0     0    
2019/09/03  11:39:00  BASE  2.49312  251  3.29868  287  -6.9  100   -6.9  9     0     1015.7   NA       0.0000   9999     820   0     0    
2019/09/03  11:40:00  BASE  2.66952  258  3.29868  287  -6.9  100   -6.9  10    0     1015.7   NA       0.0000   9999     820   0     0    
2019/09/03  11:41:00  BASE  2.43432  269  3.29868  287  -6.8  100   -6.8  10    0     1015.7   NA       0.0000   9999     820   0     0    
2019/09/03  11:42:00  BASE  2.43432  274  3.29868  287  -6.8  100   -6.8  11    0     1015.6   NA       0.0000   9999     790   0     0    
2019/09/03  11:43:00  BASE  2.646    274  3.29868  287  -6.8  100   -6.8  11    0     1015.6   NA       0.0000   9999     750   0     0    
2019/09/03  11:44:00  BASE  2.41668  270  3.29868  287  -6.8  100   -6.8  11    0     1015.6   NA       0.0000   9999     690   0     0    
2019/09/03  11:45:00  BASE  2.1756   268  3.29868  287  -6.8  100   -6.8  12    0     1015.6   NA       0.0000   9999     690   0     0    
2019/09/03  11:46:00  BASE  2.19324  258  3.26928  290  -6.8  100   -6.8  12    0     1015.6   NA       0.0000   9999     750   0     0    
2019/09/03  11:47:00  BASE  2.00508  249  3.26928  290  -6.8  100   -6.8  12    0     1015.6   NA       0.0000   9999     720   0     0    
2019/09/03  11:48:00  BASE  1.62288  247  3.26928  290  -6.9  100   -6.9  13    0     1015.6   NA       0.0000   9999     790   0     0    
2019/09/03  11:49:00  BASE  1.25832  246  3.26928  290  -6.9  100   -6.9  14    0     1015.6   NA       0.0000   9999     820   0     0    
2019/09/03  11:50:00  BASE  1.05252  248  3.26928  290  -6.9  100   -6.9  14    0     1015.5   NA       0.0000   9999     750   0     0    
2019/09/03  11:51:00  BASE  1.04664  253  3.26928  290  -6.9  100   -6.9  14    0     1015.4   NA       0.0000   9999     690   0     0    
2019/09/03  11:52:00  BASE  0.92316  261  2.96352  279  -6.9  100   -6.9  15    0     1015.4   NA       0.0000   9999     720   0     0    
2019/09/03  11:53:00  BASE  0.78792  263  2.54016  261  -6.9  100   -6.9  15    0     1015.4   NA       0.0000   9999     750   0     0    
2019/09/03  11:54:00  BASE  0.79968  270  2.42256  253  -6.9  100   -6.9  16    0     1015.4   NA       0.0000   9999     750   0     0    
2019/09/03  11:55:00  BASE  0.86436  285  2.42256  253  -6.9  100   -6.9  16    0     1015.4   NA       0.0000   9999     750   0     0    
2019/09/03  11:56:00  BASE  0.72912  296  2.0286   248  -6.9  100   -6.9  17    0     1015.4   NA       0.0000   9999     750   0     0    
2019/09/03  11:57:00  BASE  0.2646   305  1.66404  245  -6.9  100   -6.9  17    0     1015.4   NA       0.0000   9999     750   0     0    
2019/09/03  11:58:00  BASE  0        317  1.35828  261  -6.9  100   -6.9  18    0     1015.4   NA       0.0000   9999     720   0     0    
2019/09/03  11:59:00  BASE  0.0294   338  1.35828  261  -6.9  100   -6.9  19    0     1015.3   NA       0.0000   9999     720   0     0    
2019/09/03  12:00:00  BASE  0.57036  356  1.45236  2    -6.9  100   -6.9  19    0     1015.3   NA       0.0000   9999     690   0     0    
2019/09/03  12:01:00  BASE  1.1466   8    1.81692  12   -6.9  100   -6.9  20    0     1015.3   NA       0.0000   9999     690   0     0    
2019/09/03  12:02:00  BASE  1.38768  15   1.81692  17   -6.9  100   -6.9  20    0     1015.3   NA       0.0000   9999     720   0     0    
2019/09/03  12:03:00  BASE  1.40532  17   1.81692  17   -6.9  100   -6.9  21    0     1015.3   NA       0.0000   9999     690   0     0    
2019/09/03  12:04:00  BASE  1.12308  19   1.81692  17   -6.9  100   -6.9  22    0     1015.3   NA       0.0000   9999     750   0     0    
2019/09/03  12:05:00  BASE  0.9114   21   1.81692  17   -6.9  100   -6.9  23    0     1015.3   NA       0.0000   9999     750   0     0    
2019/09/03  12:06:00  BASE  0.81732  25   1.81692  17   -6.9  100   -6.9  23    0     1015.2   NA       0.0000   9999     750   0     0    
2019/09/03  12:07:00  BASE  1.07016  33   1.81692  17   -6.9  100   -6.9  23    0     1015.1   NA       0.0000   9999     820   0     0    
2019/09/03  12:08:00  BASE  1.52292  38   1.81692  36   -6.9  100   -6.9  24    0     1015.1   NA       0.0000   9999     820   0     0    
2019/09/03  12:09:00  BASE  1.62876  32   1.81692  36   -6.9  100   -6.9  25    0     1015.2   NA       0.0000   9999     850   0     0    
2019/09/03  12:10:00  BASE  1.58172  19   1.81692  36   -6.9  100   -6.9  25    0     1015.2   NA       0.0000   9999     850   0     0    
2019/09/03  12:11:00  BASE  1.64052  11   1.81692  36   -6.9  100   -6.9  26    0     1015.2   NA       0.0000   9999     820   0     0    
2019/09/03  12:12:00  BASE  1.75224  10   2.0874   14   -6.9  100   -6.9  27    0     1015.1   NA       0.0000   9999     720   0     0    
2019/09/03  12:13:00  BASE  1.92276  12   2.21088  11   -6.9  100   -6.9  27    0     1015.1   NA       0.0000   9999     750   0     0    
2019/09/03  12:14:00  BASE  2.0286   15   2.32848  102  -6.9  100   -6.9  27    0     1015.1   NA       0.0000   9999     790   0     0    
2019/09/03  12:15:00  BASE  2.36376  4    2.99292  354  -6.9  100   -6.9  27    0     1015.0   NA       0.0000   9999     750   0     0    
2019/09/03  12:16:00  BASE  2.75772  355  2.99292  354  -6.9  100   -6.9  27    0     1015.0   NA       0.0000   9999     790   0     0    
2019/09/03  12:17:00  BASE  2.71068  358  2.99292  354  -6.9  100   -6.9  28    0     1015.1   NA       0.0000   9999     790   0     0    
2019/09/03  12:18:00  BASE  2.54016  360  2.99292  354  -6.9  100   -6.9  29    0     1015.0   NA       0.0000   9999     750   0     0    
2019/09/03  12:19:00  BASE  2.51664  2    2.99292  354  -6.9  100   -6.9  30    0     1015.0   NA       0.0000   9999     750   22340 0    
2019/09/03  12:20:00  BASE  2.72832  4    3.1458   2    -6.9  100   -6.9  31    0     1014.9   NA       0.0000   9999     790   0     0    
2019/09/03  12:21:00  BASE  2.9694   3    3.1458   2    -6.9  100   -6.9  31    0     1014.9   NA       0.0000   9999     750   0     0    
2019/09/03  12:22:00  BASE  3.1458   5    3.44568  6    -6.9  100   -6.9  32    0     1014.8   NA       0.0000   9999     750   0     0    
2019/09/03  12:23:00  BASE  3.22224  8    3.44568  6    -6.9  100   -6.9  33    0     1014.8   NA       0.0000   9999     720   0     0    
2019/09/03  12:24:00  BASE  3.12816  9    3.44568  6    -6.9  100   -6.9  33    0     1014.8   NA       0.0000   9999     720   0     0    
2019/09/03  12:25:00  BASE  3.12228  9    3.44568  6    -6.9  100   -6.9  35    0     1014.8   NA       0.0000   9999     750   0     0    
2019/09/03  12:26:00  BASE  3.1752   14   3.44568  6    -6.9  100   -6.9  36    0     1014.8   NA       0.0000   9999     790   0     0    
2019/09/03  12:27:00  BASE  3.05172  18   3.44568  6    -6.9  100   -6.9  38    0     1014.8   NA       0.0000   9999     790   0     0    
2019/09/03  12:28:00  BASE  3.01056  20   3.44568  6    -6.9  100   -6.9  39    0     1014.7   NA       0.0000   9999     790   0     0    
2019/09/03  12:29:00  BASE  3.06348  21   3.44568  6    -6.9  100   -6.9  39    0     1014.8   NA       0.0000   9999     790   0     0    
2019/09/03  12:30:00  BASE  3.03996  23   3.44568  6    -6.9  100   -6.9  40    0     1014.7   NA       0.0000   9999     850   0     0    
2019/09/03  12:31:00  BASE  2.81064  27   3.44568  6    -6.9  100   -6.9  43    0     1014.8   NA       0.0000   9999     850   0     0    
2019/09/03  12:32:00  BASE  2.60484  27   3.32808  10   -6.8  100   -6.8  45    0     1014.8   NA       0.0000   9999     820   0     0    
2019/09/03  12:33:00  BASE  2.61072  24   3.32808  10   -6.8  100   -6.8  46    0     1014.8   NA       0.0000   9999     850   0     0    
2019/09/03  12:34:00  BASE  2.51076  21   3.29868  11   -6.8  100   -6.8  47    0     1014.8   NA       0.0000   9999     1080  0     0    
2019/09/03  12:35:00  BASE  2.26968  17   3.26928  28   -6.8  100   -6.8  47    0     1014.8   NA       0.0000   9999     1050  0     0    
2019/09/03  12:36:00  BASE  2.00508  12   3.26928  28   -6.8  100   -6.8  48    0     1014.7   NA       0.0000   9999     1050  0     0    
2019/09/03  12:37:00  BASE  1.58172  2    3.26928  28   -6.8  100   -6.8  49    0     1014.7   NA       0.0000   9999     1080  0     0    
2019/09/03  12:38:00  BASE  1.19952  357  3.26928  28   -6.8  100   -6.8  50    0     1014.7   NA       0.0000   9999     1050  0     0    
2019/09/03  12:39:00  BASE  1.40532  355  3.26928  28   -6.7  100   -6.7  50    0     1014.7   NA       0.0000   9999     1050  0     0    
2019/09/03  12:40:00  BASE  1.88748  344  3.1164   30   -6.7  100   -6.7  50    0     1014.7   NA       0.0000   9999     1020  0     0    
2019/09/03  12:41:00  BASE  2.24616  330  2.87532  16   -6.7  100   -6.7  50    0     1014.7   NA       0.0000   9999     1120  0     0    
2019/09/03  12:42:00  BASE  2.08152  318  2.87532  16   -6.7  100   -6.7  51    0     1014.7   NA       0.0000   9999     1150  0     0    
2019/09/03  12:43:00  BASE  1.43472  324  2.81064  328  -6.6  100   -6.6  52    0     1014.7   NA       0.0000   9999     1210  0     0    
2019/09/03  12:44:01  BASE  1.50528  343  2.81064  328  -6.6  100   -6.6  52    0     1014.6   NA       0.0000   9999     1020  0     0    
2019/09/03  12:45:01  BASE  2.1756   353  2.96352  349  -6.6  100   -6.6  53    0     1014.6   NA       0.0000   9999     980   0     0    
2019/09/03  12:46:01  BASE  2.45196  354  2.96352  349  -6.6  100   -6.6  54    0     1014.6   NA       0.0000   9999     980   0     0    
2019/09/03  12:47:01  BASE  2.59896  347  3.087    339  -6.6  100   -6.6  55    0     1014.6   NA       0.0000   9999     1050  0     0    
2019/09/03  12:48:01  BASE  2.43432  343  3.087    339  -6.5  100   -6.5  55    0     1014.7   NA       0.0000   9999     1120  0     0    
2019/09/03  12:49:01  BASE  2.21088  347  3.087    339  -6.5  100   -6.5  56    0     1014.7   NA       0.0000   9999     1080  0     0    
2019/09/03  12:50:01  BASE  2.00508  349  3.087    339  -6.5  100   -6.5  57    0     1014.7   NA       0.0000   9999     1280  0     0    
2019/09/03  12:51:01  BASE  1.55232  350  3.087    339  -6.5  100   -6.5  57    0     1014.7   NA       0.0000   9999     1210  0     0    
2019/09/03  12:52:01  BASE  1.71696  353  3.087    339  -6.5  100   -6.5  56    0     1014.6   NA       0.0000   9999     1080  0     0    
2019/09/03  12:53:01  BASE  2.12268  355  3.087    339  -6.5  100   -6.5  56    0     1014.6   NA       0.0000   9999     1150  0     0    
2019/09/03  12:54:01  BASE  2.02272  356  3.087    339  -6.5  100   -6.5  56    0     1014.6   NA       0.0000   9999     1120  0     0    
2019/09/03  12:55:01  BASE  1.86396  1    3.087    339  -6.5  100   -6.5  56    0     1014.6   NA       0.0000   9999     1080  0     0    
2019/09/03  12:56:01  BASE  1.81104  4    3.087    339  -6.5  100   -6.5  56    0     1014.6   NA       0.0000   9999     1050  0     0    
2019/09/03  12:57:01  BASE  1.79928  2    2.54016  352  -6.5  100   -6.5  56    0     1014.6   NA       0.0000   9999     1080  0     0    
2019/09/03  12:58:01  BASE  1.86984  3    2.54016  352  -6.5  100   -6.5  55    0     1014.6   NA       0.0000   9999     1080  0     0    
2019/09/03  12:59:01  BASE  1.9404   359  2.42256  353  -6.5  100   -6.5  55    0     1014.6   NA       0.0000   9999     1050  0     0    
2019/09/03  13:00:00  BASE  1.99332  3    2.42256  353  -6.4  100   -6.4  56    0     1014.6   NA       0.0000   9999     1120  0     0    
2019/09/03  13:01:00  BASE  2.03448  12   2.42256  353  -6.4  100   -6.4  57    0     1014.6   NA       0.0000   9999     1150  0     0    
2019/09/03  13:02:00  BASE  1.89336  7    2.42256  353  -6.4  100   -6.4  58    0     1014.5   NA       0.0000   9999     1120  0     0    
2019/09/03  13:03:00  BASE  1.65816  4    2.38728  354  -6.4  100   -6.4  59    0     1014.6   NA       0.0000   9999     1120  0     0    
2019/09/03  13:04:00  BASE  1.61112  355  2.38728  354  -6.4  100   -6.4  61    0     1014.5   NA       0.0000   9999     1210  0     0    
2019/09/03  13:05:00  BASE  1.57584  346  2.38728  354  -6.3  100   -6.3  64    0     1014.5   NA       0.0000   9999     1210  0     0    
2019/09/03  13:06:00  BASE  1.40532  334  2.38728  354  -6.3  100   -6.3  66    0     1014.5   NA       0.0000   9999     1310  0     0    
2019/09/03  13:07:00  BASE  0.91728  305  2.38728  354  -6.3  100   -6.3  65    0     1014.5   NA       0.0000   9999     1150  0     0    
2019/09/03  13:08:00  BASE  0.27048  258  2.38728  354  -6.3  100   -6.3  63    0     1014.5   NA       0.0000   9999     1120  0     0    
2019/09/03  13:09:00  BASE  0        232  2.35788  13   -6.2  100   -6.2  62    0     1014.5   NA       0.0000   9999     1050  0     0    
2019/09/03  13:10:00  BASE  0        336  2.26968  141  -6.2  100   -6.2  62    0     1014.5   NA       0.0000   9999     1080  0     0    
2019/09/03  13:11:00  BASE  0.27048  351  1.87572  348  -6.2  100   -6.2  62    0     1014.5   NA       0.0000   9999     1080  0     0    
2019/09/03  13:12:00  BASE  0.48804  321  1.87572  348  -6.2  100   -6.2  62    0     1014.5   NA       0.0000   9999     1080  0     0    
2019/09/03  13:13:00  BASE  0.66444  271  1.75224  349  -6.2  100   -6.2  62    0     1014.5   NA       0.0000   9999     1080  0     0    
2019/09/03  13:14:00  BASE  1.04076  236  1.63464  352  -6.2  100   -6.2  61    0     1014.5   NA       0.0000   9999     1150  0     0    
2019/09/03  13:15:00  BASE  1.28772  236  1.60524  321  -6.2  100   -6.2  60    0     1014.5   NA       0.0000   9999     1050  0     0    
2019/09/03  13:16:00  BASE  1.15248  237  1.51116  243  -6.2  100   -6.2  60    0     1014.5   NA       0.0000   9999     1080  0     0    
2019/09/03  13:17:00  BASE  1.2642   239  2.66364  233  -6.2  100   -6.2  61    0     1014.5   NA       0.0000   9999     1150  0     0    
2019/09/03  13:18:00  BASE  1.8522   246  2.66364  253  -6.1  100   -6.1  63    0     1014.4   NA       0.0000   9999     1210  0     0    
2019/09/03  13:19:00  BASE  2.16972  249  2.75184  245  -6.1  100   -6.1  65    0     1014.4   NA       0.0000   9999     1180  0     0    
2019/09/03  13:20:00  BASE  2.499    250  3.53976  230  -6.1  100   -6.1  66    0     1014.4   NA       0.0000   9999     1150  0     0    
2019/09/03  13:21:00  BASE  2.92824  240  3.86904  227  -6.0  100   -6.0  68    0     1014.3   NA       0.0000   9999     1120  0     0    
2019/09/03  13:22:00  BASE  3.8514   231  5.02152  237  -6.0  100   -6.0  70    0     1014.2   NA       0.0000   9999     1080  0     0    
2019/09/03  13:23:00  BASE  4.86864  225  5.50368  223  -6.0  100   -6.0  72    0     1014.2   NA       0.0000   9999     1150  0     0    
2019/09/03  13:24:00  BASE  4.68048  221  5.50368  223  -6.0  100   -6.0  74    0     1014.2   NA       0.0000   9999     1310  0     0    
2019/09/03  13:25:00  BASE  4.23948  216  5.50368  223  -6.0  100   -6.0  74    0     1014.2   NA       0.0000   9999     1020  0     0    
2019/09/03  13:26:00  BASE  4.04544  216  5.50368  223  -6.0  100   -6.0  74    0     1014.2   NA       0.0000   9999     1050  0     0    
2019/09/03  13:27:00  BASE  3.5574   222  5.50368  223  -6.1  100   -6.1  74    0     1014.2   NA       0.0000   9999     1050  0     0    
2019/09/03  13:28:00  BASE  3.2634   241  5.50368  223  -6.1  100   -6.1  75    0     1014.2   NA       0.0000   9999     1080  0     0    
2019/09/03  13:29:00  BASE  3.38688  257  5.50368  223  -6.1  100   -6.1  77    0     1014.2   NA       0.0000   9999     1050  0     0    
2019/09/03  13:30:00  BASE  3.60444  251  5.50368  223  -6.1  100   -6.1  78    0     1014.2   NA       0.0000   9999     1050  0     0    
2019/09/03  13:31:00  BASE  3.39864  234  5.50368  223  -6.1  100   -6.1  78    0     1014.2   NA       0.0000   9999     1120  23330 0    
2019/09/03  13:32:00  BASE  3.86904  223  6.05052  219  -6.1  100   -6.1  76    0     1014.2   NA       0.0000   9999     920   0     0    
2019/09/03  13:33:00  BASE  5.4684   225  6.95604  228  -6.1  100   -6.1  75    0     1014.2   NA       0.0000   9999     1020  0     0    
2019/09/03  13:34:00  BASE  6.02112  229  6.95604  228  -6.0  100   -6.0  74    0     1014.2   NA       0.0000   9999     850   0     0    
2019/09/03  13:35:00  BASE  5.54484  230  6.95604  228  -6.0  100   -6.0  74    0     1014.2   NA       0.0000   9999     950   0     0    
2019/09/03  13:36:00  BASE  5.59188  233  6.95604  228  -6.1  100   -6.1  74    0     1014.2   NA       0.0000   9999     720   0     0    
2019/09/03  13:37:00  BASE  5.28612  232  6.95604  228  -6.1  100   -6.1  77    0     1014.2   NA       0.0000   9999     690   0     0    
2019/09/03  13:38:00  BASE  4.66284  235  6.95604  228  -6.2  100   -6.2  79    0     1014.2   NA       0.0000   9999     790   0     0    
2019/09/03  13:39:00  BASE  4.65696  240  6.95604  228  -6.2  100   -6.3  82    0     1014.2   NA       0.0000   9999     790   0     0    
2019/09/03  13:40:00  BASE  4.9098   238  6.95604  228  -6.3  100   -6.3  87    0     1014.2   NA       0.0000   9999     720   0     0    
2019/09/03  13:41:00  BASE  4.98624  237  6.95604  228  -6.3  100   -6.3  92    0     1014.2   NA       0.0000   9999     750   0     0    
2019/09/03  13:42:00  BASE  4.62756  242  6.95604  228  -6.4  100   -6.4  96    0     1014.2   NA       0.0000   9999     920   0     0    
2019/09/03  13:43:00  BASE  3.9984   245  6.71496  233  -6.4  100   -6.4  95    0     1014.2   NA       0.0000   9999     750   0     0    
2019/09/03  13:44:00  BASE  3.56916  241  6.56208  236  -6.4  100   -6.4  91    0     1014.2   NA       0.0000   9999     790   0     0    
2019/09/03  13:45:00  BASE  3.2634   235  6.56208  236  -6.5  100   -6.5  90    0     1014.2   NA       0.0000   9999     820   0     0    
2019/09/03  13:46:00  BASE  3.39864  233  5.50368  240  -6.5  100   -6.5  91    0     1014.2   NA       0.0000   9999     850   0     0    
2019/09/03  13:47:00  BASE  4.21596  234  5.50368  240  -6.5  100   -6.5  91    0     1014.2   NA       0.0000   9999     890   0     0    
2019/09/03  13:48:00  BASE  4.45704  234  5.50368  240  -6.5  100   -6.5  95    0     1014.3   NA       0.0000   9999     890   0     0    
2019/09/03  13:49:00  BASE  4.01604  228  5.50368  240  -6.5  100   -6.5  100   0     1014.4   NA       0.0000   9999     820   0     0    
2019/09/03  13:50:00  BASE  3.83376  216  5.35668  239  -6.6  100   -6.6  105   0     1014.3   NA       0.0000   9999     950   0     0    
2019/09/03  13:51:00  BASE  3.68676  209  5.1744   231  -6.6  100   -6.6  111   0     1014.4   NA       0.0000   9999     980   23260 0    
2019/09/03  13:52:01  BASE  3.25752  200  5.1744   231  -6.6  100   -6.6  115   0     1014.4   NA       0.0000   9999     920   0     0    
2019/09/03  13:53:01  BASE  3.04584  196  5.1744   231  -6.6  100   -6.6  110   0     1014.4   NA       0.0000   9999     890   0     0    
2019/09/03  13:54:01  BASE  3.03996  202  5.1744   231  -6.6  100   -6.6  103   0     1014.4   NA       0.0000   9999     1020  21100 0    
2019/09/03  13:55:01  BASE  3.46332  199  5.1744   231  -6.6  100   -6.6  97    0     1014.4   NA       0.0000   9999     950   0     0    
2019/09/03  13:56:01  BASE  3.68676  194  5.1744   231  -6.6  100   -6.6  93    0     1014.4   NA       0.0000   9999     920   0     0    
2019/09/03  13:57:01  BASE  3.15168  192  4.62756  237  -6.6  100   -6.6  89    0     1014.4   NA       0.0000   9999     850   0     0    
2019/09/03  13:58:01  BASE  2.80476  193  4.50996  215  -6.6  100   -6.6  86    0     1014.4   NA       0.0000   9999     790   0     0    
2019/09/03  13:59:01  BASE  2.89884  194  4.50996  215  -6.6  100   -6.6  85    0     1014.4   NA       0.0000   9999     690   0     0    
2019/09/03  14:00:01  BASE  2.66952  190  4.38648  190  -6.6  100   -6.6  85    0     1014.4   NA       0.0000   9999     720   0     0    
2019/09/03  14:01:01  BASE  2.3226   187  4.38648  190  -6.6  100   -6.6  84    0     1014.4   NA       0.0000   9999     690   0     0    
2019/09/03  14:02:01  BASE  2.48724  190  4.38648  190  -6.6  100   -6.6  84    0     1014.4   NA       0.0000   9999     720   0     0    
2019/09/03  14:03:01  BASE  2.92236  198  4.38648  190  -6.6  100   -6.6  83    0     1014.4   NA       0.0000   9999     750   0     0    
2019/09/03  14:04:01  BASE  2.9694   203  4.38648  190  -6.6  100   -6.6  82    0     1014.4   NA       0.0000   9999     750   0     0    
2019/09/03  14:05:01  BASE  2.59896  211  3.69264  194  -6.6  100   -6.6  81    0     1014.4   NA       0.0000   9999     750   0     0    
2019/09/03  14:06:01  BASE  2.57544  230  3.59856  192  -6.6  100   -6.6  81    0     1014.4   NA       0.0000   9999     720   0     0    
2019/09/03  14:07:01  BASE  2.58132  241  3.59856  192  -6.6  100   -6.6  81    0     1014.4   NA       0.0000   9999     820   0     0    
2019/09/03  14:08:01  BASE  2.47548  240  3.29868  208  -6.6  100   -6.6  82    0     1014.4   NA       0.0000   9999     790   0     0    
2019/09/03  14:09:00  BASE  3.2928   228  4.86864  224  -6.6  100   -6.6  83    0     1014.4   NA       0.0000   9999     820   0     0    
2019/09/03  14:10:00  BASE  4.15128  219  4.86864  224  -6.6  100   -6.6  84    0     1014.5   NA       0.0000   9999     750   0     0    
2019/09/03  14:11:00  BASE  4.30416  218  4.86864  224  -6.6  100   -6.6  87    0     1014.4   NA       0.0000   9999     750   0     0    
2019/09/03  14:12:00  BASE  4.37472  224  5.08032  234  -6.6  100   -6.6  92    0     1014.4   NA       0.0000   9999     950   0     0    
2019/09/03  14:13:00  BASE  3.71028  232  5.08032  234  -6.6  100   -6.6  96    0     1014.4   NA       0.0000   9999     920   0     0    
2019/09/03  14:14:00  BASE  2.7636   221  5.08032  234  -6.6  100   -6.6  100   0     1014.4   NA       0.0000   9999     980   0     0    
2019/09/03  14:15:00  BASE  2.5872   211  5.08032  234  -6.6  100   -6.6  99    0     1014.4   NA       0.0000   9999     1150  0     0    
2019/09/03  14:16:00  BASE  2.2932   214  5.08032  234  -6.6  100   -6.6  95    0     1014.4   NA       0.0000   9999     1120  0     0    
2019/09/03  14:17:00  BASE  2.15208  226  5.08032  234  -6.6  100   -6.6  91    0     1014.4   NA       0.0000   9999     980   0     0    
2019/09/03  14:18:00  BASE  2.48724  228  5.08032  234  -6.6  100   -6.6  89    0     1014.4   NA       0.0000   9999     820   0     0    
2019/09/03  14:19:00  BASE  2.352    224  5.08032  234  -6.6  100   -6.6  87    0     1014.4   NA       0.0000   9999     820   0     0    
2019/09/03  14:20:00  BASE  1.65228  229  5.08032  234  -6.6  100   -6.6  85    0     1014.4   NA       0.0000   9999     750   0     0    
2019/09/03  14:21:00  BASE  1.21716  231  5.08032  234  -6.6  100   -6.6  85    0     1014.4   NA       0.0000   9999     750   0     0    
2019/09/03  14:22:00  BASE  1.4994   234  3.81024  230  -6.6  100   -6.6  85    0     1014.4   NA       0.0000   9999     750   0     0    
2019/09/03  14:23:00  BASE  2.13444  242  3.02232  209  -6.6  100   -6.6  85    0     1014.4   NA       0.0000   9999     790   0     0    
2019/09/03  14:24:00  BASE  2.91648  242  3.96312  229  -6.6  100   -6.6  87    0     1014.4   NA       0.0000   9999     850   0     0    
2019/09/03  14:25:00  BASE  4.03368  237  5.68596  233  -6.6  100   -6.6  87    0     1014.3   NA       0.0000   9999     890   0     0    
2019/09/03  14:26:00  BASE  4.66872  231  5.68596  233  -6.6  100   -6.6  87    0     1014.3   NA       0.0000   9999     850   0     0    
2019/09/03  14:27:00  BASE  4.79808  228  5.68596  233  -6.6  100   -6.6  88    0     1014.2   NA       0.0000   9999     850   0     0    
2019/09/03  14:28:00  BASE  4.66872  238  5.68596  233  -6.5  100   -6.5  91    0     1014.2   NA       0.0000   9999     750   0     0    
2019/09/03  14:29:00  BASE  4.1748   246  5.68596  233  -6.5  100   -6.5  94    0     1014.3   NA       0.0000   9999     750   0     0    
2019/09/03  14:30:00  BASE  3.9984   239  5.68596  233  -6.6  100   -6.6  96    0     1014.3   NA       0.0000   9999     920   0     0    
2019/09/03  14:31:00  BASE  4.33944  233  5.68596  233  -6.5  100   -6.5  96    0     1014.3   NA       0.0000   9999     980   0     0    
2019/09/03  14:32:00  BASE  4.5276   235  5.68596  233  -6.6  100   -6.6  96    0     1014.4   NA       0.0000   9999     790   0     0    
2019/09/03  14:33:00  BASE  3.65148  239  5.68596  233  -6.6  100   -6.6  96    0     1014.3   NA       0.0000   9999     790   0     0    
2019/09/03  14:34:00  BASE  2.8224   238  5.68596  233  -6.6  100   -6.6  96    0     1014.3   NA       0.0000   9999     920   0     0    
2019/09/03  14:35:00  BASE  3.28104  227  5.44488  225  -6.6  100   -6.6  96    0     1014.3   NA       0.0000   9999     750   0     0    
2019/09/03  14:36:00  BASE  3.37512  218  5.3214   229  -6.6  100   -6.6  96    0     1014.4   NA       0.0000   9999     750   0     0    
2019/09/03  14:37:00  BASE  2.69304  220  5.2626   230  -6.7  100   -6.7  98    0     1014.4   NA       0.0000   9999     790   0     0    
2019/09/03  14:38:00  BASE  2.31084  231  5.2626   230  -6.7  100   -6.7  100   0     1014.4   NA       0.0000   9999     820   0     0    
2019/09/03  14:39:00  BASE  2.16972  243  5.2626   230  -6.7  100   -6.7  100   0     1014.4   NA       0.0000   9999     850   0     0    
2019/09/03  14:40:00  BASE  2.36376  240  5.2038   241  -6.7  100   -6.7  100   0     1014.4   NA       0.0000   9999     920   0     0    
2019/09/03  14:41:00  BASE  2.76948  226  5.08032  233  -6.7  100   -6.7  99    0     1014.4   NA       0.0000   9999     890   0     0    
2019/09/03  14:42:00  BASE  2.75772  219  4.53936  216  -6.7  100   -6.7  98    0     1014.4   NA       0.0000   9999     850   0     0    
2019/09/03  14:43:00  BASE  2.47548  217  4.53936  216  -6.7  100   -6.7  98    0     1014.4   NA       0.0000   9999     850   0     0    
2019/09/03  14:44:00  BASE  2.95176  214  4.53936  216  -6.6  100   -6.6  99    0     1014.2   NA       0.0000   9999     850   0     0    
2019/09/03  14:45:00  BASE  3.63972  218  4.35708  225  -6.6  100   -6.6  99    0     1014.2   NA       0.0000   9999     920   0     0    
2019/09/03  14:46:00  BASE  3.95136  213  4.47468  201  -6.6  100   -6.6  101   0     1014.2   NA       0.0000   9999     920   0     0    
2019/09/03  14:47:00  BASE  3.9396   204  4.47468  201  -6.6  100   -6.6  104   0     1014.2   NA       0.0000   9999     920   0     0    
2019/09/03  14:48:00  BASE  3.85728  210  4.47468  201  -6.6  100   -6.6  106   0     1014.2   NA       0.0000   9999     950   0     0    
2019/09/03  14:49:00  BASE  4.33356  213  5.38608  205  -6.6  100   -6.6  107   0     1014.2   NA       0.0000   9999     890   0     0    
2019/09/03  14:50:00  BASE  4.56876  210  5.38608  205  -6.6  100   -6.6  108   0     1014.2   NA       0.0000   9999     850   0     0    
2019/09/03  14:51:00  BASE  3.94548  209  5.38608  205  -6.6  100   -6.6  109   0     1014.2   NA       0.0000   9999     890   0     0    
2019/09/03  14:52:00  BASE  3.53388  215  5.38608  205  -6.6  100   -6.6  110   0     1014.2   NA       0.0000   9999     820   0     0    
2019/09/03  14:53:00  BASE  3.28104  220  5.38608  205  -6.6  100   -6.6  113   0     1014.2   NA       0.0000   9999     850   0     0    
2019/09/03  14:54:00  BASE  3.03408  221  5.38608  205  -6.6  100   -6.6  115   0     1014.2   NA       0.0000   9999     850   0     0    
2019/09/03  14:55:00  BASE  3.37512  218  5.38608  205  -6.6  100   -6.6  115   0     1014.1   NA       0.0000   9999     890   0     0    
2019/09/03  14:56:00  BASE  3.7044   210  5.38608  205  -6.6  100   -6.6  114   0     1014.1   NA       0.0000   9999     890   0     0    
2019/09/03  14:57:00  BASE  3.47508  209  5.38608  205  -6.6  100   -6.6  113   0     1014.2   NA       0.0000   9999     920   0     0    
2019/09/03  14:58:00  BASE  3.16932  206  5.38608  205  -6.6  100   -6.6  114   0     1014.1   NA       0.0000   9999     920   0     0    
2019/09/03  14:59:00  BASE  3.22224  212  4.72164  206  -6.6  100   -6.6  117   0     1014.1   NA       0.0000   9999     790   0     0    
2019/09/03  15:00:00  BASE  2.9988   231  4.116    208  -6.6  100   -6.6  119   0     1014.1   NA       0.0000   9999     820   0     0    
2019/09/03  15:01:00  BASE  2.28732  236  4.116    208  -6.6  100   -6.6  118   0     1014.1   NA       0.0000   9999     1050  0     0    
2019/09/03  15:02:00  BASE  1.9992   223  4.116    208  -6.6  100   -6.6  122   0     1014.1   NA       0.0000   9999     950   20180 0    
2019/09/03  15:03:01  BASE  2.37552  215  4.116    208  -6.6  100   -6.6  129   0     1014.1   NA       0.0000   9999     1150  0     0    
2019/09/03  15:04:01  BASE  2.39316  221  4.116    208  -6.6  100   -6.6  133   0     1014.0   NA       0.0000   9999     1180  0     0    
2019/09/03  15:05:01  BASE  2.02272  222  4.116    208  -6.6  100   -6.6  132   0     1014.0   NA       0.0000   9999     1050  0     0    
2019/09/03  15:06:01  BASE  2.55192  222  3.96312  221  -6.6  100   -6.6  129   0     1014.0   NA       0.0000   9999     980   0     0    
2019/09/03  15:07:01  BASE  3.08112  228  3.96312  221  -6.6  100   -6.6  126   0     1014.0   NA       0.0000   9999     1050  0     0    
2019/09/03  15:08:01  BASE  2.71068  226  3.96312  221  -6.6  100   -6.6  121   0     1014.0   NA       0.0000   9999     1020  0     0    
2019/09/03  15:09:01  BASE  2.5578   227  3.86904  238  -6.6  100   -6.6  118   0     1014.0   NA       0.0000   9999     950   0     0    
2019/09/03  15:10:01  BASE  2.34024  235  3.75144  231  -6.6  100   -6.6  116   0     1014.0   NA       0.0000   9999     850   0     0    
2019/09/03  15:11:01  BASE  2.22852  223  3.75144  231  -6.6  100   -6.6  112   0     1014.0   NA       0.0000   9999     850   0     0    
2019/09/03  15:12:01  BASE  2.51076  212  3.75144  231  -6.6  100   -6.6  110   0     1014.0   NA       0.0000   9999     820   0     0    
2019/09/03  15:13:01  BASE  1.9698   209  3.75144  231  -6.6  100   -6.6  109   0     1014.0   NA       0.0000   9999     790   0     0    
2019/09/03  15:14:01  BASE  0.9702   221  3.75144  231  -6.6  100   -6.6  110   0     1014.0   NA       0.0000   9999     850   0     0    
2019/09/03  15:15:01  BASE  0.6762   220  3.75144  231  -6.6  100   -6.6  111   0     1014.0   NA       0.0000   9999     890   0     0    
2019/09/03  15:16:00  BASE  1.08192  199  3.41628  234  -6.6  100   -6.6  111   0     1014.0   NA       0.0000   9999     950   0     0    
2019/09/03  15:17:00  BASE  1.54056  200  3.02232  224  -6.6  100   -6.6  112   0     1014.0   NA       0.0000   9999     890   0     0    
2019/09/03  15:18:00  BASE  2.18736  208  3.26928  212  -6.6  100   -6.6  115   0     1014.0   NA       0.0000   9999     920   0     0    
2019/09/03  15:19:00  BASE  2.92824  215  4.35708  206  -6.6  100   -6.6  119   0     1014.0   NA       0.0000   9999     950   0     0    
2019/09/03  15:20:00  BASE  3.94548  213  4.99212  213  -6.5  100   -6.5  121   0     1014.0   NA       0.0000   9999     950   0     0    
2019/09/03  15:21:00  BASE  4.50996  207  4.99212  213  -6.5  100   -6.5  121   0     1014.0   NA       0.0000   9999     980   0     0    
2019/09/03  15:22:00  BASE  4.36296  202  4.99212  213  -6.5  100   -6.5  118   0     1013.9   NA       0.0000   9999     950   0     0    
2019/09/03  15:23:00  BASE  4.01016  201  4.99212  213  -6.5  100   -6.5  113   0     1014.0   NA       0.0000   9999     950   0     0    
2019/09/03  15:24:00  BASE  3.4104   201  4.99212  213  -6.5  100   -6.5  107   0     1013.9   NA       0.0000   9999     820   0     0    
2019/09/03  15:25:00  BASE  3.528    195  4.99212  213  -6.5  100   -6.5  104   0     1013.8   NA       0.0000   9999     790   0     0    
2019/09/03  15:26:00  BASE  3.81024  201  4.99212  213  -6.6  100   -6.6  103   0     1013.9   NA       0.0000   9999     790   0     0    
2019/09/03  15:27:00  BASE  3.80436  214  4.99212  213  -6.6  100   -6.6  103   0     1013.9   NA       0.0000   9999     790   0     0    
2019/09/03  15:28:00  BASE  4.19244  212  4.99212  213  -6.6  100   -6.6  104   0     1013.9   NA       0.0000   9999     850   0     0    
2019/09/03  15:29:00  BASE  4.63932  214  5.10972  228  -6.6  100   -6.6  106   0     1013.9   NA       0.0000   9999     790   0     0    
2019/09/03  15:30:00  BASE  4.7628   221  5.292    225  -6.5  100   -6.5  108   0     1013.9   NA       0.0000   9999     850   0     0    
2019/09/03  15:31:00  BASE  4.02192  224  5.292    225  -6.5  100   -6.5  110   0     1013.9   NA       0.0000   9999     720   0     0    
2019/09/03  15:32:00  BASE  3.43392  222  5.292    225  -6.5  100   -6.5  111   0     1013.9   NA       0.0000   9999     850   0     0    
2019/09/03  15:33:00  BASE  3.69852  213  5.292    225  -6.6  100   -6.6  111   0     1013.8   NA       0.0000   9999     890   0     0    
2019/09/03  15:34:00  BASE  3.65736  210  5.292    225  -6.6  100   -6.6  109   0     1013.8   NA       0.0000   9999     920   0     0    
2019/09/03  15:35:00  BASE  3.77496  211  5.292    225  -6.6  100   -6.6  106   0     1013.8   NA       0.0000   9999     950   0     0    
2019/09/03  15:36:00  BASE  4.116    206  5.292    225  -6.6  100   -6.6  107   0     1013.8   NA       0.0000   9999     850   0     0    
2019/09/03  15:37:00  BASE  4.68048  202  5.68596  206  -6.6  100   -6.6  107   0     1013.8   NA       0.0000   9999     890   0     0    
2019/09/03  15:38:00  BASE  4.73928  211  5.68596  206  -6.6  100   -6.6  109   0     1013.8   NA       0.0000   9999     820   0     0    
2019/09/03  15:39:00  BASE  3.69852  222  5.68596  206  -6.6  100   -6.6  111   0     1013.8   NA       0.0000   9999     820   0     0    
2019/09/03  15:40:00  BASE  2.9988   214  5.68596  206  -6.6  100   -6.6  112   0     1013.7   NA       0.0000   9999     890   0     0    
2019/09/03  15:41:00  BASE  3.37512  201  5.68596  206  -6.6  100   -6.6  112   0     1013.7   NA       0.0000   9999     890   0     0    
2019/09/03  15:42:00  BASE  3.72204  201  5.68596  206  -6.7  100   -6.7  110   0     1013.7   NA       0.0000   9999     850   0     0    
2019/09/03  15:43:00  BASE  3.1752   197  5.68596  206  -6.7  100   -6.7  107   0     1013.8   NA       0.0000   9999     820   0     0    
2019/09/03  15:44:00  BASE  2.58132  194  5.68596  206  -6.7  100   -6.7  108   0     1013.8   NA       0.0000   9999     790   0     0    
2019/09/03  15:45:00  BASE  2.81064  191  5.68596  206  -6.6  100   -6.6  108   0     1013.8   NA       0.0000   9999     820   0     0    
2019/09/03  15:46:00  BASE  3.4398   187  5.68596  206  -6.7  100   -6.7  108   0     1013.8   NA       0.0000   9999     820   0     0    
2019/09/03  15:47:00  BASE  3.78672  184  5.2038   216  -6.7  100   -6.7  107   0     1013.8   NA       0.0000   9999     850   0     0    
2019/09/03  15:48:00  BASE  4.32768  202  5.44488  224  -6.6  100   -6.6  106   0     1013.8   NA       0.0000   9999     850   0     0    
2019/09/03  15:49:00  BASE  5.00976  215  5.71536  209  -6.6  100   -6.6  108   0     1013.8   NA       0.0000   9999     790   0     0    
2019/09/03  15:50:00  BASE  5.16852  213  5.71536  209  -6.6  100   -6.6  110   0     1013.8   NA       0.0000   9999     790   0     0    
2019/09/03  15:51:00  BASE  5.56248  209  6.47388  204  -6.6  100   -6.6  112   0     1013.7   NA       0.0000   9999     890   0     0    
2019/09/03  15:52:00  BASE  5.80356  204  6.47388  204  -6.6  100   -6.6  116   0     1013.8   NA       0.0000   9999     890   0     0    
2019/09/03  15:53:00  BASE  5.20968  202  6.47388  204  -6.7  100   -6.7  118   0     1013.8   NA       0.0000   9999     890   0     0    
2019/09/03  15:54:00  BASE  4.37472  195  6.47388  204  -6.7  100   -6.7  121   0     1013.8   NA       0.0000   9999     980   0     0    
2019/09/03  15:55:00  BASE  3.86904  184  6.47388  204  -6.7  100   -6.7  124   0     1013.8   NA       0.0000   9999     1020  0     0    
2019/09/03  15:56:00  BASE  4.02192  177  6.47388  204  -6.7  100   -6.7  122   0     1013.8   NA       0.0000   9999     1020  0     0    
2019/09/03  15:57:00  BASE  4.18068  179  6.47388  204  -6.8  100   -6.8  120   0     1013.8   NA       0.0000   9999     1080  0     0    
2019/09/03  15:58:00  BASE  3.63384  183  6.47388  204  -6.8  100   -6.8  119   0     1013.9   NA       0.0000   9999     1020  0     0    
2019/09/03  15:59:00  BASE  3.12228  192  6.47388  204  -6.8  100   -6.8  119   0     1013.8   NA       0.0000   9999     1020  0     0    
2019/09/03  16:00:00  BASE  3.11052  194  6.47388  204  -6.7  100   -6.7  120   0     1013.8   NA       0.0000   9999     1020  0     0    
2019/09/03  16:01:00  BASE  3.71028  192  6.07992  202  -6.7  100   -6.7  122   0     1013.8   NA       0.0000   9999     1150  0     0    
2019/09/03  16:02:00  BASE  4.52172  199  5.62716  205  -6.7  100   -6.7  128   0     1013.8   NA       0.0000   9999     1280  0     0    
2019/09/03  16:03:00  BASE  4.40412  204  5.62716  205  -6.7  100   -6.7  136   0     1013.8   NA       0.0000   9999     1250  0     0    
2019/09/03  16:04:00  BASE  4.116    212  5.62716  205  -6.7  100   -6.7  138   0     1013.8   NA       0.0000   9999     980   0     0    
2019/09/03  16:05:00  BASE  3.969    214  5.62716  205  -6.7  100   -6.7  137   0     1013.8   NA       0.0000   9999     980   0     0    
2019/09/03  16:06:00  BASE  3.72792  215  5.62716  205  -6.7  100   -6.7  135   0     1013.8   NA       0.0000   9999     1080  0     0    
2019/09/03  16:07:00  BASE  3.75144  217  5.62716  205  -6.7  100   -6.7  132   0     1013.8   NA       0.0000   9999     1150  0     0    
2019/09/03  16:08:00  BASE  4.42176  226  5.99172  239  -6.7  100   -6.7  130   0     1013.7   NA       0.0000   9999     1080  0     0    
2019/09/03  16:09:00  BASE  5.12148  229  5.99172  239  -6.6  100   -6.6  129   0     1013.7   NA       0.0000   9999     1050  0     0    
2019/09/03  16:10:00  BASE  5.16852  219  6.07992  219  -6.6  100   -6.6  130   0     1013.7   NA       0.0000   9999     1050  0     0    
2019/09/03  16:11:00  BASE  4.80984  216  6.07992  219  -6.6  100   -6.6  129   0     1013.7   NA       0.0000   9999     1020  0     0    
2019/09/03  16:12:00  BASE  4.41588  220  6.07992  219  -6.6  100   -6.6  126   0     1013.7   NA       0.0000   9999     980   0     0    
2019/09/03  16:13:00  BASE  4.55112  219  6.07992  219  -6.6  100   -6.6  124   0     1013.7   NA       0.0000   9999     980   0     0    
2019/09/03  16:14:00  BASE  4.78044  213  6.07992  219  -6.6  100   -6.6  124   0     1013.7   NA       0.0000   9999     1020  0     0    
2019/09/03  16:15:00  BASE  4.63932  212  6.07992  219  -6.6  100   -6.6  125   0     1013.6   NA       0.0000   9999     950   0     0    
2019/09/03  16:16:00  BASE  4.66284  220  6.07992  219  -6.6  100   -6.6  125   0     1013.6   NA       0.0000   9999     890   0     0    
2019/09/03  16:17:00  BASE  5.00976  215  6.07992  219  -6.6  100   -6.6  124   0     1013.6   NA       0.0000   9999     920   0     0    
2019/09/03  16:18:00  BASE  4.86864  202  6.07992  219  -6.6  100   -6.6  126   0     1013.5   NA       0.0000   9999     890   0     0    
2019/09/03  16:19:00  BASE  4.29828  201  6.07992  219  -6.6  100   -6.6  130   0     1013.5   NA       0.0000   9999     950   0     0    
2019/09/03  16:20:01  BASE  4.69224  217  5.65656  236  -6.6  100   -6.6  133   0     1013.5   NA       0.0000   9999     920   0     0    
2019/09/03  16:21:01  BASE  4.79808  234  5.65656  236  -6.6  100   -6.6  131   0     1013.5   NA       0.0000   9999     920   0     0    
2019/09/03  16:22:01  BASE  4.06308  236  5.65656  236  -6.6  100   -6.6  128   0     1013.5   NA       0.0000   9999     850   0     0    
2019/09/03  16:23:00  BASE  4.0572   230  5.65656  236  -6.6  100   -6.6  126   0     1013.5   NA       0.0000   9999     850   0     0    
2019/09/03  16:24:00  BASE  4.19244  217  5.65656  236  -6.6  100   -6.6  124   0     1013.6   NA       0.0000   9999     890   0     0    
2019/09/03  16:25:00  BASE  4.08072  209  5.65656  236  -6.6  100   -6.6  123   0     1013.6   NA       0.0000   9999     920   0     0    
2019/09/03  16:26:00  BASE  4.60404  205  5.65656  236  -6.6  100   -6.6  124   0     1013.5   NA       0.0000   9999     1020  0     0    
2019/09/03  16:27:00  BASE  5.25084  202  5.95644  201  -6.6  100   -6.6  128   0     1013.4   NA       0.0000   9999     1050  0     0    
2019/09/03  16:28:00  BASE  4.75104  201  5.95644  201  -6.7  100   -6.7  132   0     1013.5   NA       0.0000   9999     950   21200 0    
2019/09/03  16:29:00  BASE  3.95136  203  5.95644  201  -6.7  100   -6.7  133   0     1013.6   NA       0.0000   9999     950   0     0    
2019/09/03  16:30:00  BASE  3.52212  203  5.95644  201  -6.7  100   -6.7  130   0     1013.5   NA       0.0000   9999     950   0     0    
2019/09/03  16:31:00  BASE  3.38688  192  5.95644  201  -6.7  100   -6.7  124   0     1013.5   NA       0.0000   9999     980   0     0    
2019/09/03  16:32:00  BASE  4.41     190  5.95644  201  -6.7  100   -6.7  119   0     1013.5   NA       0.0000   9999     890   0     0    
2019/09/03  16:33:00  BASE  5.18616  197  5.95644  201  -6.6  100   -6.6  117   0     1013.5   NA       0.0000   9999     890   0     0    
2019/09/03  16:34:00  BASE  4.77456  194  5.95644  201  -6.6  100   -6.6  117   0     1013.5   NA       0.0000   9999     890   0     0    
2019/09/03  16:35:00  BASE  4.22184  196  5.95644  201  -6.6  100   -6.6  118   0     1013.5   NA       0.0000   9999     890   0     0    
2019/09/03  16:36:00  BASE  4.66872  200  6.02112  202  -6.6  100   -6.6  119   0     1013.4   NA       0.0000   9999     920   0     0    
2019/09/03  16:37:00  BASE  4.78044  202  6.02112  202  -6.6  100   -6.6  120   0     1013.4   NA       0.0000   9999     920   0     0    
2019/09/03  16:38:00  BASE  3.68676  206  6.02112  202  -6.7  100   -6.7  119   0     1013.4   NA       0.0000   9999     950   0     0    
2019/09/03  16:39:00  BASE  2.9988   212  6.02112  202  -6.6  100   -6.6  119   0     1013.4   NA       0.0000   9999     850   0     0    
2019/09/03  16:40:00  BASE  4.01016  216  6.53268  217  -6.6  100   -6.6  122   0     1013.4   NA       0.0000   9999     950   0     0    
2019/09/03  16:41:00  BASE  5.63892  215  6.83844  218  -6.6  100   -6.6  125   0     1013.4   NA       0.0000   9999     1120  0     0    
2019/09/03  16:42:00  BASE  6.09756  217  6.83844  218  -6.6  100   -6.6  130   0     1013.4   NA       0.0000   9999     980   0     0    
2019/09/03  16:43:00  BASE  5.94468  218  6.83844  218  -6.6  100   -6.6  136   0     1013.4   NA       0.0000   9999     1020  0     0    
2019/09/03  16:44:00  BASE  5.92116  211  7.13832  211  -6.6  100   -6.6  141   0     1013.5   NA       0.0000   9999     850   0     0    
2019/09/03  16:45:00  BASE  5.59776  201  7.13832  211  -6.6  100   -6.6  137   0     1013.5   NA       0.0000   9999     950   0     0    
2019/09/03  16:46:00  BASE  4.68048  193  7.13832  211  -6.7  100   -6.7  133   0     1013.5   NA       0.0000   9999     950   0     0    
2019/09/03  16:47:00  BASE  4.6746   196  7.13832  211  -6.7  100   -6.7  134   0     1013.5   NA       0.0000   9999     950   0     0    
2019/09/03  16:48:00  BASE  5.3508   203  7.13832  211  -6.7  100   -6.7  137   0     1013.4   NA       0.0000   9999     950   0     0    
2019/09/03  16:49:00  BASE  5.145    202  7.13832  211  -6.8  100   -6.8  146   0     1013.4   NA       0.0000   9999     1080  0     0    
2019/09/03  16:50:00  BASE  4.48056  203  7.13832  211  -6.8  100   -6.8  159   0     1013.4   NA       0.0000   9999     1150  0     0    
2019/09/03  16:51:00  BASE  4.10424  201  7.13832  211  -6.8  100   -6.8  163   0     1013.4   NA       0.0000   9999     1150  0     0    
2019/09/03  16:52:00  BASE  3.99252  199  7.13832  211  -6.8  100   -6.8  155   0     1013.4   NA       0.0000   9999     1080  0     0    
2019/09/03  16:53:00  BASE  4.2336   204  7.13832  211  -6.8  100   -6.8  149   0     1013.4   NA       0.0000   9999     1120  0     0    
2019/09/03  16:54:00  BASE  4.22772  204  6.71496  205  -6.7  100   -6.7  148   0     1013.4   NA       0.0000   9999     1120  0     0    
2019/09/03  16:55:00  BASE  4.22184  195  6.71496  205  -6.7  100   -6.7  154   0     1013.4   NA       0.0000   9999     1050  0     0    
2019/09/03  16:56:00  BASE  4.09836  183  6.71496  205  -6.7  100   -6.7  158   0     1013.4   NA       0.0000   9999     1020  0     0    
2019/09/03  16:57:00  BASE  3.65148  179  6.53268  203  -6.7  100   -6.7  151   0     1013.4   NA       0.0000   9999     1150  0     0    
2019/09/03  16:58:00  BASE  3.62796  184  5.92704  204  -6.7  100   -6.7  144   0     1013.4   NA       0.0000   9999     1080  0     0    
2019/09/03  16:59:00  BASE  3.92784  201  4.99212  182  -6.7  100   -6.7  142   0     1013.4   NA       0.0000   9999     980   0     0    
2019/09/03  17:00:00  BASE  3.71616  209  4.99212  182  -6.7  100   -6.7  140   0     1013.4   NA       0.0000   9999     980   0     0    
2019/09/03  17:01:00  BASE  2.9988   200  4.99212  182  -6.7  100   -6.7  139   0     1013.4   NA       0.0000   9999     980   0     0    
2019/09/03  17:02:00  BASE  2.7636   201  4.99212  182  -6.7  100   -6.7  142   0     1013.4   NA       0.0000   9999     1020  0     0    
2019/09/03  17:03:00  BASE  2.77536  209  4.99212  182  -6.7  100   -6.7  146   0     1013.4   NA       0.0000   9999     1050  0     0    
2019/09/03  17:04:00  BASE  2.95764  208  4.99212  182  -6.6  100   -6.6  151   0     1013.4   NA       0.0000   9999     1120  0     0    
2019/09/03  17:05:00  BASE  3.66912  210  5.2332   215  -6.6  100   -6.6  161   0     1013.4   NA       0.0000   9999     1050  0     0    
2019/09/03  17:06:00  BASE  3.52212  212  5.2332   215  -6.6  100   -6.6  164   0     1013.4   NA       0.0000   9999     980   0     0    
2019/09/03  17:07:00  BASE  2.98116  213  5.2332   215  -6.6  100   -6.6  160   0     1013.4   NA       0.0000   9999     1020  0     0    
2019/09/03  17:08:00  BASE  3.09288  216  5.2332   215  -6.7  100   -6.7  155   0     1013.4   NA       0.0000   9999     1080  0     0    
2019/09/03  17:09:00  BASE  3.75732  225  5.2332   215  -6.7  100   -6.7  154   0     1013.4   NA       0.0000   9999     1080  0     0    
2019/09/03  17:10:00  BASE  4.25712  232  5.2332   215  -6.7  100   -6.7  155   0     1013.4   NA       0.0000   9999     1120  0     0    
2019/09/03  17:11:00  BASE  3.88668  233  5.2332   215  -6.7  100   -6.7  163   0     1013.4   NA       0.0000   9999     1050  0     0    
2019/09/03  17:12:00  BASE  3.48096  232  5.2332   215  -6.7  100   -6.7  167   0     1013.4   NA       0.0000   9999     1020  0     0    
2019/09/03  17:13:00  BASE  3.22224  225  5.2332   215  -6.6  100   -6.6  167   0     1013.3   NA       0.0000   9999     1020  0     0    
2019/09/03  17:14:00  BASE  2.99292  214  5.2332   215  -6.6  100   -6.6  158   0     1013.3   NA       0.0000   9999     1050  0     0    
2019/09/03  17:15:00  BASE  2.90472  211  4.80984  234  -6.6  100   -6.6  151   0     1013.3   NA       0.0000   9999     1050  0     0    
2019/09/03  17:16:00  BASE  3.36336  219  4.99212  231  -6.6  100   -6.6  149   0     1013.3   NA       0.0000   9999     1080  0     0    
2019/09/03  17:17:00  BASE  4.27476  222  5.1744   225  -6.5  100   -6.5  154   0     1013.3   NA       0.0000   9999     1080  0     0    
2019/09/03  17:18:00  BASE  4.47468  226  5.1744   225  -6.5  100   -6.5  165   0     1013.3   NA       0.0000   9999     1120  0     0    
2019/09/03  17:19:00  BASE  4.1454   228  5.1744   225  -6.5  100   -6.5  168   0     1013.3   NA       0.0000   9999     1020  0     0    
2019/09/03  17:20:00  BASE  3.71616  222  5.1744   225  -6.5  100   -6.5  166   0     1013.3   NA       0.0000   9999     1050  0     0    
2019/09/03  17:21:00  BASE  3.13992  210  5.1744   225  -6.5  100   -6.5  165   0     1013.3   NA       0.0000   9999     1050  0     0    
2019/09/03  17:22:00  BASE  2.69892  206  5.1744   225  -6.6  100   -6.6  166   0     1013.3   NA       0.0000   9999     1080  0     0    
2019/09/03  17:23:00  BASE  2.499    215  5.1744   225  -6.6  100   -6.6  165   0     1013.2   NA       0.0000   9999     1080  0     0    
2019/09/03  17:24:00  BASE  2.56956  228  5.1744   225  -6.6  100   -6.6  159   0     1013.2   NA       0.0000   9999     1050  0     0    
2019/09/03  17:25:00  BASE  2.74008  227  5.1744   225  -6.6  100   -6.6  149   0     1013.2   NA       0.0000   9999     1080  0     0    
2019/09/03  17:26:00  BASE  2.95764  221  5.1744   225  -6.6  100   -6.6  143   0     1013.2   NA       0.0000   9999     1080  0     0    
2019/09/03  17:27:00  BASE  3.25164  220  4.68636  227  -6.6  100   -6.6  138   0     1013.3   NA       0.0000   9999     1050  0     0    
2019/09/03  17:28:01  BASE  4.12188  217  5.2038   216  -6.5  100   -6.5  146   0     1013.3   NA       0.0000   9999     1120  0     0    
2019/09/03  17:29:01  BASE  4.48644  217  5.2038   216  -6.5  100   -6.5  157   0     1013.3   NA       0.0000   9999     1080  1610  0    
2019/09/03  17:30:01  BASE  4.09836  217  5.2038   216  -6.6  100   -6.6  167   0     1013.3   NA       0.0000   9999     1120  0     0    
2019/09/03  17:31:01  BASE  3.675    220  5.2038   216  -6.6  100   -6.6  171   0     1013.3   NA       0.0000   9999     1150  20440 0    
2019/09/03  17:32:00  BASE  3.21636  220  5.2038   216  -6.6  100   -6.6  175   0     1013.3   NA       0.0000   9999     1150  0     0    
2019/09/03  17:33:00  BASE  3.33396  224  5.2038   216  -6.6  100   -6.6  169   0     1013.3   NA       0.0000   9999     1050  0     0    
2019/09/03  17:34:00  BASE  3.94548  230  5.2038   216  -6.6  100   -6.6  156   0     1013.2   NA       0.0000   9999     1020  0     0    
2019/09/03  17:35:00  BASE  4.05132  223  5.2038   216  -6.5  100   -6.5  151   0     1013.2   NA       0.0000   9999     1050  0     0    
2019/09/03  17:36:00  BASE  3.65148  216  5.2038   216  -6.5  100   -6.5  156   0     1013.2   NA       0.0000   9999     1020  0     0    
2019/09/03  17:37:00  BASE  3.53976  222  5.2038   216  -6.5  100   -6.5  151   0     1013.2   NA       0.0000   9999     1020  0     0    
2019/09/03  17:38:00  BASE  3.7926   226  5.65656  219  -6.5  100   -6.5  145   0     1013.2   NA       0.0000   9999     1080  0     0    
2019/09/03  17:39:00  BASE  4.72752  222  6.07992  219  -6.6  100   -6.6  138   0     1013.2   NA       0.0000   9999     1150  0     0    
2019/09/03  17:40:00  BASE  4.7922   217  6.07992  219  -6.6  100   -6.6  146   0     1013.1   NA       0.0000   9999     1120  0     0    
2019/09/03  17:41:00  BASE  3.58092  222  6.07992  219  -6.7  100   -6.7  151   0     1013.2   NA       0.0000   9999     1120  0     0    
2019/09/03  17:42:00  BASE  3.26928  219  6.07992  219  -6.7  100   -6.7  144   0     1013.2   NA       0.0000   9999     1080  0     0    
2019/09/03  17:43:00  BASE  3.675    205  6.07992  219  -6.6  100   -6.6  142   0     1013.1   NA       0.0000   9999     1080  0     0    
2019/09/03  17:44:00  BASE  3.79848  206  6.07992  219  -6.6  100   -6.6  146   0     1013.2   NA       0.0000   9999     1080  0     0    
2019/09/03  17:45:00  BASE  3.56328  214  6.07992  219  -6.6  100   -6.6  147   0     1013.1   NA       0.0000   9999     1080  0     0    
2019/09/03  17:46:00  BASE  3.38688  215  6.07992  219  -6.6  100   -6.6  143   0     1013.0   NA       0.0000   9999     1020  0     0    
2019/09/03  17:47:00  BASE  3.33984  218  6.07992  219  -6.6  100   -6.6  136   0     1013.0   NA       0.0000   9999     1050  0     0    
2019/09/03  17:48:00  BASE  4.06308  225  6.07992  219  -6.6  100   -6.6  130   0     1013.0   NA       0.0000   9999     1120  0     0    
2019/09/03  17:49:00  BASE  5.06268  230  5.59776  230  -6.6  100   -6.6  138   0     1013.0   NA       0.0000   9999     1120  0     0    
2019/09/03  17:50:00  BASE  5.12148  229  5.59776  230  -6.6  100   -6.6  156   0     1013.0   NA       0.0000   9999     1210  0     0    
2019/09/03  17:51:00  BASE  4.90392  229  5.59776  230  -6.6  100   -6.6  150   0     1013.0   NA       0.0000   9999     1150  0     0    
2019/09/03  17:52:00  BASE  4.65108  228  5.59776  230  -6.6  100   -6.6  138   0     1013.0   NA       0.0000   9999     1120  0     0    
2019/09/03  17:53:00  BASE  4.23948  228  5.59776  230  -6.6  100   -6.6  138   0     1012.9   NA       0.0000   9999     1080  0     0    
2019/09/03  17:54:00  BASE  3.77496  225  5.59776  230  -6.6  100   -6.6  134   0     1013.0   NA       0.0000   9999     1050  0     0    
2019/09/03  17:55:00  BASE  3.69852  217  5.59776  230  -6.6  100   -6.6  127   0     1012.9   NA       0.0000   9999     1020  0     0    
2019/09/03  17:56:00  BASE  3.48096  216  5.59776  230  -6.6  100   -6.6  127   0     1012.9   NA       0.0000   9999     920   0     0    
2019/09/03  17:57:00  BASE  2.97528  223  5.59776  230  -6.6  100   -6.6  127   0     1012.9   NA       0.0000   9999     980   0     0    
2019/09/03  17:58:00  BASE  2.99292  219  5.59776  230  -6.6  100   -6.6  123   0     1012.9   NA       0.0000   9999     1050  0     0    
2019/09/03  17:59:00  BASE  3.3222   202  5.41548  229  -6.6  100   -6.6  118   0     1013.0   NA       0.0000   9999     1020  0     0    
2019/09/03  18:00:00  BASE  3.28104  197  5.41548  229  -6.6  100   -6.6  113   0     1013.0   NA       0.0000   9999     890   0     0    
2019/09/03  18:01:00  BASE  2.78124  203  5.02152  223  -6.6  100   -6.6  113   0     1013.1   NA       0.0000   9999     890   0     0    
2019/09/03  18:02:00  BASE  2.12856  201  4.41588  229  -6.6  100   -6.6  116   0     1013.0   NA       0.0000   9999     890   0     0    
2019/09/03  18:03:00  BASE  2.26968  192  4.2042   215  -6.6  100   -6.6  122   0     1013.0   NA       0.0000   9999     850   22050 0    
2019/09/03  18:04:00  BASE  2.99292  199  4.2042   215  -6.6  100   -6.6  124   0     1013.1   NA       0.0000   9999     920   0     0    
2019/09/03  18:05:00  BASE  3.55152  219  4.2042   229  -6.6  100   -6.6  122   0     1013.1   NA       0.0000   9999     980   0     0    
2019/09/03  18:06:00  BASE  3.83964  230  4.2042   229  -6.6  100   -6.6  118   0     1013.0   NA       0.0000   9999     920   21590 0    
2019/09/03  18:07:00  BASE  3.68676  222  4.62756  228  -6.6  100   -6.6  115   0     1013.0   NA       0.0000   9999     890   0     0    
2019/09/03  18:08:00  BASE  3.46332  209  4.62756  228  -6.5  100   -6.5  114   0     1013.0   NA       0.0000   9999     920   0     0    
2019/09/03  18:09:00  BASE  3.41628  198  4.62756  228  -6.5  100   -6.5  112   0     1013.0   NA       0.0000   9999     950   0     0    
2019/09/03  18:10:00  BASE  3.46332  192  4.62756  228  -6.6  100   -6.6  113   0     1013.0   NA       0.0000   9999     920   0     0    
2019/09/03  18:11:00  BASE  3.36336  197  4.62756  228  -6.6  100   -6.6  112   0     1013.0   NA       0.0000   9999     980   0     0    
2019/09/03  18:12:00  BASE  3.30456  196  4.62756  228  -6.6  100   -6.6  109   0     1013.0   NA       0.0000   9999     980   23000 0    
2019/09/03  18:13:00  BASE  3.528    199  4.62756  228  -6.6  100   -6.6  108   0     1013.0   NA       0.0000   9999     850   0     0    
2019/09/03  18:14:00  BASE  3.66912  207  4.62756  228  -6.6  100   -6.6  107   0     1013.0   NA       0.0000   9999     820   0     0    
2019/09/03  18:15:00  BASE  3.46332  206  4.62756  228  -6.6  100   -6.6  108   0     1013.0   NA       0.0000   9999     820   0     0    
2019/09/03  18:16:00  BASE  3.05172  205  4.62756  228  -6.6  100   -6.6  110   0     1013.0   NA       0.0000   9999     820   0     0    
2019/09/03  18:17:00  BASE  2.50488  202  4.116    197  -6.6  100   -6.6  107   0     1013.0   NA       0.0000   9999     820   0     0    
2019/09/03  18:18:00  BASE  2.058    202  4.116    197  -6.6  100   -6.6  105   0     1013.0   NA       0.0000   9999     820   0     0    
2019/09/03  18:19:00  BASE  2.06388  203  4.116    197  -6.6  100   -6.6  102   0     1013.0   NA       0.0000   9999     890   0     0    
2019/09/03  18:20:00  BASE  2.8812   204  4.1748   203  -6.5  100   -6.5  99    0     1013.0   NA       0.0000   9999     820   0     0    
2019/09/03  18:21:00  BASE  3.234    213  4.1748   203  -6.5  100   -6.5  98    0     1013.0   NA       0.0000   9999     890   0     0    
2019/09/03  18:22:00  BASE  3.3516   217  4.29828  214  -6.5  100   -6.5  97    0     1013.0   NA       0.0000   9999     920   0     0    
2019/09/03  18:23:00  BASE  4.10424  209  4.86864  208  -6.5  100   -6.5  95    0     1013.0   NA       0.0000   9999     890   0     0    
2019/09/03  18:24:00  BASE  4.11012  202  4.86864  208  -6.4  100   -6.4  95    0     1012.9   NA       0.0000   9999     750   0     0    
2019/09/03  18:25:01  BASE  3.9102   205  4.96272  219  -6.5  100   -6.5  96    0     1012.9   NA       0.0000   9999     820   0     0    
2019/09/03  18:26:01  BASE  3.81024  206  4.96272  219  -6.5  100   -6.5  98    0     1013.0   NA       0.0000   9999     850   0     0    
2019/09/03  18:27:01  BASE  3.62796  203  4.96272  219  -6.5  100   -6.5  98    0     1012.9   NA       0.0000   9999     850   0     0    
2019/09/03  18:28:01  BASE  4.03956  216  5.05092  224  -6.5  100   -6.5  97    0     1012.9   NA       0.0000   9999     850   0     0    
2019/09/03  18:29:01  BASE  4.4394   225  6.47388  222  -6.5  100   -6.5  94    0     1012.9   NA       0.0000   9999     790   0     0    
2019/09/03  18:30:01  BASE  4.86276  212  6.50328  213  -6.5  100   -6.5  91    0     1012.9   NA       0.0000   9999     820   0     0    
2019/09/03  18:31:01  BASE  4.5276   202  6.50328  213  -6.5  100   -6.5  88    0     1012.9   NA       0.0000   9999     850   0     0    
2019/09/03  18:32:01  BASE  3.78084  207  6.50328  213  -6.4  100   -6.4  85    0     1012.9   NA       0.0000   9999     820   0     0    
2019/09/03  18:33:01  BASE  4.21008  207  6.50328  213  -6.4  100   -6.4  84    0     1012.9   NA       0.0000   9999     820   0     0    
2019/09/03  18:34:01  BASE  4.79808  209  6.50328  213  -6.4  100   -6.4  82    0     1012.9   NA       0.0000   9999     750   0     0    
2019/09/03  18:35:01  BASE  5.32728  210  6.50328  213  -6.4  100   -6.4  82    0     1012.8   NA       0.0000   9999     790   0     0    
2019/09/03  18:36:01  BASE  5.51544  205  6.50328  213  -6.5  100   -6.5  82    0     1012.9   NA       0.0000   9999     790   0     0    
2019/09/03  18:37:01  BASE  4.7334   200  6.50328  213  -6.5  100   -6.5  83    0     1012.9   NA       0.0000   9999     790   0     0    
2019/09/03  18:38:01  BASE  3.83964  196  6.50328  213  -6.6  100   -6.6  85    0     1012.9   NA       0.0000   9999     690   0     0    
2019/09/03  18:39:01  BASE  3.71028  196  6.50328  213  -6.6  100   -6.6  85    0     1012.9   NA       0.0000   9999     720   0     0    
2019/09/03  18:40:01  BASE  3.47508  195  6.07992  205  -6.7  100   -6.7  84    0     1012.9   NA       0.0000   9999     790   0     0    
2019/09/03  18:41:01  BASE  3.087    197  6.07992  205  -6.7  100   -6.7  83    0     1012.9   NA       0.0000   9999     820   0     0    
2019/09/03  18:42:00  BASE  2.95764  194  6.07992  205  -6.7  100   -6.7  84    0     1013.0   NA       0.0000   9999     720   0     0    
2019/09/03  18:43:00  BASE  2.95764  192  6.07992  205  -6.7  100   -6.7  84    0     1013.0   NA       0.0000   9999     720   0     0    
2019/09/03  18:44:00  BASE  3.68088  200  6.07992  205  -6.7  100   -6.7  84    0     1013.0   NA       0.0000   9999     750   0     0    
2019/09/03  18:45:00  BASE  4.45116  212  5.78004  209  -6.6  100   -6.6  82    0     1012.9   NA       0.0000   9999     690   0     0    
2019/09/03  18:46:00  BASE  4.0572   213  5.02152  219  -6.6  100   -6.6  79    0     1013.0   NA       0.0000   9999     720   0     0    
2019/09/03  18:47:00  BASE  3.47508  207  5.02152  219  -6.6  100   -6.6  76    0     1013.0   NA       0.0000   9999     720   0     0    
2019/09/03  18:48:00  BASE  3.61032  205  5.02152  219  -6.6  100   -6.6  74    0     1013.0   NA       0.0000   9999     620   0     0    
2019/09/03  18:49:00  BASE  4.06896  205  5.47428  209  -6.6  100   -6.6  73    0     1013.0   NA       0.0000   9999     790   0     0    
2019/09/03  18:50:00  BASE  5.09208  212  6.13872  214  -6.6  100   -6.6  74    0     1013.0   NA       0.0000   9999     750   0     0    
2019/09/03  18:51:00  BASE  5.6154   223  6.13872  214  -6.6  100   -6.6  78    0     1013.0   NA       0.0000   9999     850   0     0    
2019/09/03  18:52:00  BASE  5.07444  228  6.13872  214  -6.6  100   -6.6  82    0     1013.1   NA       0.0000   9999     820   0     0    
2019/09/03  18:53:00  BASE  4.48644  219  6.13872  214  -6.6  100   -6.6  84    0     1013.0   NA       0.0000   9999     820   0     0    
2019/09/03  18:54:00  BASE  4.36296  211  6.13872  214  -6.6  100   -6.6  82    0     1013.0   NA       0.0000   9999     790   0     0    
2019/09/03  18:55:00  BASE  4.63932  212  6.13872  214  -6.6  100   -6.6  78    0     1013.0   NA       0.0000   9999     820   0     0    
2019/09/03  18:56:00  BASE  4.51584  203  6.13872  214  -6.6  100   -6.6  75    0     1013.0   NA       0.0000   9999     750   0     0    
2019/09/03  18:57:00  BASE  3.86316  190  6.13872  214  -6.6  100   -6.6  72    0     1013.0   NA       0.0000   9999     790   0     0    
2019/09/03  18:58:00  BASE  3.2634   183  6.13872  214  -6.6  100   -6.6  71    0     1013.0   NA       0.0000   9999     850   0     0    
2019/09/03  18:59:00  BASE  2.95764  180  6.13872  214  -6.6  100   -6.6  69    0     1013.0   NA       0.0000   9999     890   0     0    
2019/09/03  19:00:00  BASE  2.94     178  5.78004  227  -6.6  100   -6.6  68    0     1013.0   NA       0.0000   9999     850   0     0    
2019/09/03  19:01:00  BASE  3.06936  184  5.47428  209  -6.6  100   -6.6  67    0     1013.0   NA       0.0000   9999     890   0     0    
2019/09/03  19:02:00  BASE  3.42804  198  5.47428  209  -6.6  100   -6.6  67    0     1013.0   NA       0.0000   9999     920   0     0    
2019/09/03  19:03:00  BASE  3.68088  200  5.47428  209  -6.6  100   -6.6  68    0     1013.0   NA       0.0000   9999     890   0     0    
2019/09/03  19:04:00  BASE  3.42804  196  5.47428  209  -6.5  100   -6.5  68    0     1013.0   NA       0.0000   9999     850   0     0    
2019/09/03  19:05:00  BASE  3.26928  197  4.80984  200  -6.5  100   -6.5  68    0     1013.0   NA       0.0000   9999     790   0     0    
2019/09/03  19:06:00  BASE  3.71616  203  4.65696  203  -6.5  100   -6.5  70    0     1012.9   NA       0.0000   9999     750   0     0    
2019/09/03  19:07:00  BASE  4.04544  210  4.65696  203  -6.5  100   -6.5  71    0     1013.0   NA       0.0000   9999     720   0     0    
2019/09/03  19:08:00  BASE  3.75732  213  4.65696  203  -6.5  100   -6.5  72    0     1013.0   NA       0.0000   9999     890   0     0    
2019/09/03  19:09:01  BASE  3.15756  214  4.65696  203  -6.5  100   -6.5  72    0     1013.0   NA       0.0000   9999     920   0     0    
2019/09/03  19:10:00  BASE  2.89884  209  4.65696  203  -6.5  100   -6.5  72    0     1012.9   NA       0.0000   9999     890   0     0    
2019/09/03  19:11:00  BASE  3.15168  204  4.65696  203  -6.5  100   -6.5  71    0     1012.9   NA       0.0000   9999     850   0     0    
2019/09/03  19:12:00  BASE  3.24576  206  4.65696  203  -6.5  100   -6.5  71    0     1012.9   NA       0.0000   9999     820   0     0    
2019/09/03  19:13:00  BASE  3.72792  206  4.86864  204  -6.5  100   -6.5  72    0     1012.9   NA       0.0000   9999     850   0     0    
2019/09/03  19:14:00  BASE  4.15128  209  5.10972  213  -6.4  100   -6.4  73    0     1012.9   NA       0.0000   9999     1020  0     0    
2019/09/03  19:15:00  BASE  3.234    209  5.10972  213  -6.4  100   -6.4  74    0     1012.9   NA       0.0000   9999     950   0     0    
2019/09/03  19:16:00  BASE  2.75772  205  5.10972  213  -6.4  100   -6.4  78    0     1012.9   NA       0.0000   9999     980   0     0    
2019/09/03  19:17:00  BASE  3.63972  210  5.10972  213  -6.4  100   -6.4  81    0     1012.9   NA       0.0000   9999     1080  0     0    
2019/09/03  19:18:01  BASE  4.1454   208  5.10972  213  -6.4  100   -6.4  81    0     1012.9   NA       0.0000   9999     1150  0     0    
2019/09/03  19:19:01  BASE  3.94548  198  5.10972  213  -6.4  100   -6.4  78    0     1012.9   NA       0.0000   9999     1020  0     0    
2019/09/03  19:20:01  BASE  3.49272  190  5.10972  213  -6.4  100   -6.4  75    0     1013.0   NA       0.0000   9999     1050  0     0    
2019/09/03  19:21:01  BASE  3.26928  186  5.10972  213  -6.4  100   -6.4  71    0     1013.0   NA       0.0000   9999     1050  0     0    
2019/09/03  19:22:01  BASE  3.01644  185  5.10972  213  -6.4  100   -6.4  66    0     1013.0   NA       0.0000   9999     1050  0     0    
2019/09/03  19:23:01  BASE  2.87532  193  5.10972  213  -6.4  100   -6.4  62    0     1013.0   NA       0.0000   9999     1020  0     0    
2019/09/03  19:24:01  BASE  3.04584  201  4.99212  211  -6.4  100   -6.4  60    0     1013.0   NA       0.0000   9999     920   0     0    
2019/09/03  19:25:01  BASE  3.19872  202  4.99212  211  -6.3  100   -6.3  59    0     1013.0   NA       0.0000   9999     950   0     0    
2019/09/03  19:26:01  BASE  3.08112  206  4.99212  211  -6.3  100   -6.3  58    0     1013.0   NA       0.0000   9999     920   0     0    
2019/09/03  19:27:01  BASE  2.92236  205  4.59816  194  -6.3  100   -6.3  57    0     1013.0   NA       0.0000   9999     950   0     0    
2019/09/03  19:28:01  BASE  3.69852  200  4.86864  200  -6.2  100   -6.2  55    0     1013.0   NA       0.0000   9999     1020  0     0    
2019/09/03  19:29:01  BASE  4.55112  197  5.41548  196  -6.2  100   -6.2  55    0     1013.0   NA       0.0000   9999     980   0     0    
2019/09/03  19:30:01  BASE  5.02152  190  5.68596  190  -6.2  100   -6.2  55    0     1013.0   NA       0.0000   9999     1020  0     0    
2019/09/03  19:31:01  BASE  4.998    186  5.68596  190  -6.1  100   -6.1  55    0     1013.0   NA       0.0000   9999     1050  0     0    
2019/09/03  19:32:01  BASE  4.5864   187  5.68596  190  -6.1  100   -6.1  53    0     1013.0   NA       0.0000   9999     1080  0     0    
2019/09/03  19:33:01  BASE  4.0572   185  5.68596  190  -6.1  100   -6.1  52    0     1013.0   NA       0.0000   9999     1050  0     0    
2019/09/03  19:34:01  BASE  3.4104   182  5.68596  190  -6.1  100   -6.1  51    0     1013.0   NA       0.0000   9999     1050  0     0    
2019/09/03  19:35:01  BASE  3.39864  181  5.68596  190  -6.1  100   -6.1  50    0     1013.0   NA       0.0000   9999     1080  0     0    
2019/09/03  19:36:01  BASE  3.7926   180  5.68596  190  -6.1  100   -6.1  49    0     1013.1   NA       0.0000   9999     1080  0     0    
2019/09/03  19:37:01  BASE  3.73968  182  5.68596  190  -6.1  100   -6.1  48    0     1013.2   NA       0.0000   9999     1020  0     0    
2019/09/03  19:38:01  BASE  3.381    188  5.68596  190  -6.1  100   -6.1  48    0     1013.1   NA       0.0000   9999     1020  0     0    
2019/09/03  19:39:01  BASE  2.94588  197  5.68596  190  -6.1  100   -6.1  47    0     1013.2   NA       0.0000   9999     1020  0     0    
2019/09/03  19:40:01  BASE  3.01644  195  5.41548  191  -6.1  100   -6.1  48    0     1013.1   NA       0.0000   9999     1080  0     0    
2019/09/03  19:41:01  BASE  3.3516   191  4.93332  184  -6.0  100   -6.0  47    0     1013.1   NA       0.0000   9999     1080  0     0    
2019/09/03  19:42:01  BASE  3.34572  194  4.59816  171  -6.0  100   -6.0  47    0     1013.0   NA       0.0000   9999     1080  0     0    
2019/09/03  19:43:01  BASE  3.29868  189  4.59816  192  -5.9  100   -5.9  46    0     1013.0   NA       0.0000   9999     1050  0     0    
2019/09/03  19:44:01  BASE  3.73968  186  5.02152  190  -5.9  100   -5.9  46    0     1013.0   NA       0.0000   9999     1050  0     0    
2019/09/03  19:45:01  BASE  4.32768  192  5.02152  190  -5.9  100   -5.9  46    0     1013.0   NA       0.0000   9999     980   0     0    
2019/09/03  19:46:01  BASE  4.31004  195  5.02152  190  -5.9  100   -5.9  46    0     1013.0   NA       0.0000   9999     1020  0     0    
2019/09/03  19:47:01  BASE  3.7338   204  5.02152  190  -5.9  100   -5.9  46    0     1013.0   NA       0.0000   9999     980   0     0    
2019/09/03  19:48:01  BASE  3.39864  212  5.02152  190  -5.9  100   -5.9  46    0     1013.0   NA       0.0000   9999     980   0     0    
2019/09/03  19:49:01  BASE  3.39864  210  5.02152  190  -5.9  100   -5.9  46    0     1012.9   NA       0.0000   9999     980   0     0    
2019/09/03  19:50:01  BASE  2.90472  208  5.02152  190  -5.9  100   -5.9  46    0     1012.9   NA       0.0000   9999     1020  0     0    
2019/09/03  19:51:01  BASE  2.65776  210  5.02152  190  -5.9  100   -5.9  45    0     1012.9   NA       0.0000   9999     980   0     0    
2019/09/03  19:52:01  BASE  2.94     218  5.02152  190  -5.9  100   -5.9  46    0     1012.9   NA       0.0000   9999     980   0     0    
2019/09/03  19:53:01  BASE  3.08112  224  5.02152  190  -5.9  100   -5.9  46    0     1012.8   NA       0.0000   9999     950   0     0    
2019/09/03  19:54:01  BASE  2.91648  223  4.75104  194  -5.9  100   -5.9  46    0     1012.8   NA       0.0000   9999     980   0     0    
2019/09/03  19:55:01  BASE  2.72832  223  4.75104  194  -5.9  100   -5.9  45    0     1012.8   NA       0.0000   9999     920   0     0    
2019/09/03  19:56:01  BASE  2.42844  231  4.05132  207  -5.9  100   -5.9  45    0     1012.8   NA       0.0000   9999     980   0     0    
2019/09/03  19:57:01  BASE  2.2344   238  3.96312  214  -5.9  100   -5.9  45    0     1012.8   NA       0.0000   9999     980   0     0    
2019/09/03  19:58:01  BASE  2.2638   236  3.72204  216  -5.9  100   -5.9  45    0     1012.8   NA       0.0000   9999     980   0     0    
2019/09/03  19:59:01  BASE  2.59896  238  3.72204  216  -5.9  100   -5.9  44    0     1012.8   NA       0.0000   9999     890   0     0    
2019/09/03  20:00:01  BASE  3.2928   240  4.116    232  -5.9  100   -5.9  43    0     1012.8   NA       0.0000   9999     920   0     0    
2019/09/03  20:01:01  BASE  3.91608  240  4.53936  230  -5.9  100   -5.9  42    0     1012.8   NA       0.0000   9999     890   0     0    
2019/09/03  20:02:01  BASE  4.16304  237  4.59816  228  -5.8  100   -5.8  41    0     1012.8   NA       0.0000   9999     890   0     0    
2019/09/03  20:03:01  BASE  3.86904  230  4.59816  228  -5.8  100   -5.8  42    0     1012.8   NA       0.0000   9999     890   0     0    
2019/09/03  20:04:01  BASE  3.68676  226  4.59816  228  -5.8  100   -5.8  42    0     1012.8   NA       0.0000   9999     980   0     0    
2019/09/03  20:05:01  BASE  3.72792  225  4.59816  228  -5.8  100   -5.8  41    0     1012.8   NA       0.0000   9999     950   0     0    
2019/09/03  20:06:01  BASE  3.92784  221  5.02152  206  -5.9  100   -5.9  40    0     1012.8   NA       0.0000   9999     1150  0     0    
2019/09/03  20:07:01  BASE  4.15716  209  5.02152  206  -5.9  100   -5.9  38    0     1012.8   NA       0.0000   9999     1210  0     0    
2019/09/03  20:08:01  BASE  3.92784  204  5.02152  206  -5.9  100   -5.9  37    0     1012.8   NA       0.0000   9999     1150  0     0    
2019/09/03  20:09:01  BASE  3.5868   204  5.02152  206  -5.9  100   -5.9  37    0     1012.8   NA       0.0000   9999     1050  21980 0    
2019/09/03  20:10:01  BASE  3.59856  203  5.02152  206  -5.9  100   -5.9  39    0     1012.8   NA       0.0000   9999     1150  0     0    
2019/09/03  20:11:01  BASE  3.72792  213  5.02152  206  -6.0  100   -6.0  40    0     1012.8   NA       0.0000   9999     1310  0     0    
2019/09/03  20:12:01  BASE  3.98664  219  5.02152  206  -5.9  100   -5.9  40    0     1012.8   NA       0.0000   9999     1440  0     0    
2019/09/03  20:13:00  BASE  4.42764  214  5.02152  206  -5.9  100   -5.9  38    0     1012.8   NA       0.0000   9999     1250  0     0    
2019/09/03  20:14:01  BASE  4.41588  213  5.02152  206  -5.9  100   -5.9  37    0     1012.8   NA       0.0000   9999     1250  0     0    
2019/09/03  20:15:01  BASE  3.82788  213  5.02152  206  -5.9  100   -5.9  36    0     1012.8   NA       0.0000   9999     1180  0     0    
2019/09/03  20:16:01  BASE  3.28692  222  4.99212  215  -5.9  100   -5.9  36    0     1012.8   NA       0.0000   9999     1050  0     0    
2019/09/03  20:17:00  BASE  2.88708  230  4.99212  215  -5.9  100   -5.9  35    0     1012.9   NA       0.0000   9999     1120  0     0    
2019/09/03  20:18:01  BASE  2.9106   221  4.99212  215  -5.9  100   -5.9  34    0     1012.9   NA       0.0000   9999     1080  0     0    
2019/09/03  20:19:00  BASE  3.48096  207  4.99212  215  -5.9  100   -5.9  34    0     1012.9   NA       0.0000   9999     1280  0     0    
2019/09/03  20:20:01  BASE  4.16304  206  4.99212  215  -5.9  100   -5.9  34    0     1012.9   NA       0.0000   9999     1250  0     0    
2019/09/03  20:21:01  BASE  4.1748   209  4.99212  215  -5.8  100   -5.8  34    0     1012.9   NA       0.0000   9999     1280  0     0    
2019/09/03  20:22:01  BASE  4.13952  206  4.99212  215  -5.8  100   -5.8  33    0     1012.9   NA       0.0000   9999     1180  0     0    
2019/09/03  20:23:00  BASE  4.45116  209  4.93332  215  -5.8  100   -5.8  33    0     1012.9   NA       0.0000   9999     1250  0     0    
2019/09/03  20:24:01  BASE  4.40412  211  4.93332  215  -5.8  100   -5.8  33    0     1012.9   NA       0.0000   9999     1210  0     0    
2019/09/03  20:25:00  BASE  4.23948  215  4.93332  215  -5.8  100   -5.8  33    0     1012.9   NA       0.0000   9999     1210  0     0    
2019/09/03  20:26:01  BASE  3.96312  219  4.93332  215  -5.8  100   -5.8  32    0     1012.9   NA       0.0000   9999     1210  0     0    
2019/09/03  20:27:01  BASE  4.12776  218  4.93332  215  -5.8  100   -5.8  31    0     1012.9   NA       0.0000   9999     1250  0     0    
2019/09/03  20:28:01  BASE  4.35708  215  4.93332  215  -5.8  100   -5.8  31    0     1012.9   NA       0.0000   9999     1250  0     0    
2019/09/03  20:29:00  BASE  4.07484  212  4.93332  215  -5.8  100   -5.8  31    0     1012.9   NA       0.0000   9999     1180  0     0    
2019/09/03  20:30:00  BASE  3.822    209  4.93332  215  -5.8  100   -5.8  31    0     1012.9   NA       0.0000   9999     1150  0     0    
2019/09/03  20:31:00  BASE  3.9102   212  4.93332  215  -5.7  100   -5.7  30    0     1012.9   NA       0.0000   9999     1150  0     0    
2019/09/03  20:32:01  BASE  4.15128  210  4.93332  215  -5.7  100   -5.7  28    0     1012.9   NA       0.0000   9999     1210  0     0    
2019/09/03  20:33:00  BASE  4.2042   208  4.89804  219  -5.7  100   -5.7  27    0     1012.8   NA       0.0000   9999     1280  0     0    
2019/09/03  20:34:01  BASE  4.22184  211  4.89804  219  -5.7  100   -5.7  28    0     1012.8   NA       0.0000   9999     1280  0     0    
2019/09/03  20:35:00  BASE  4.49232  209  5.02152  204  -5.7  100   -5.7  28    0     1012.8   NA       0.0000   9999     1150  0     0    
2019/09/03  20:36:00  BASE  4.8216   207  5.56836  210  -5.7  100   -5.7  27    0     1012.8   NA       0.0000   9999     1180  0     0    
2019/09/03  20:37:01  BASE  4.89804  207  5.59776  203  -5.7  100   -5.7  26    0     1012.8   NA       0.0000   9999     1150  0     0    
2019/09/03  20:38:00  BASE  4.39236  204  5.59776  203  -5.7  100   -5.7  25    0     1012.8   NA       0.0000   9999     1250  0     0    
2019/09/03  20:39:00  BASE  4.15716  200  5.59776  203  -5.8  100   -5.8  25    0     1012.8   NA       0.0000   9999     1210  0     0    
2019/09/03  20:40:00  BASE  3.97488  198  5.59776  203  -5.8  100   -5.8  25    0     1012.9   NA       0.0000   9999     1250  0     0    
2019/09/03  20:41:00  BASE  3.83376  197  5.59776  203  -5.8  100   -5.8  24    0     1012.9   NA       0.0000   9999     1180  0     0    
2019/09/03  20:42:01  BASE  4.0572   202  5.59776  203  -5.8  100   -5.8  24    0     1012.8   NA       0.0000   9999     1150  0     0    
2019/09/03  20:43:01  BASE  3.86316  208  5.59776  203  -5.8  100   -5.8  23    0     1012.8   NA       0.0000   9999     1150  0     0    
2019/09/03  20:44:00  BASE  3.82788  222  5.59776  203  -5.8  100   -5.8  22    0     1012.8   NA       0.0000   9999     1120  0     0    
2019/09/03  20:45:00  BASE  4.40412  235  5.59776  203  -5.8  100   -5.8  22    0     1012.8   NA       0.0000   9999     1050  0     0    
2019/09/03  20:46:00  BASE  4.71576  232  5.59776  203  -5.8  100   -5.8  21    0     1012.8   NA       0.0000   9999     1120  0     0    
2019/09/03  20:47:00  BASE  4.3512   227  5.2038   235  -5.8  100   -5.8  20    0     1012.8   NA       0.0000   9999     1120  0     0    
2019/09/03  20:48:01  BASE  3.83376  228  5.2038   235  -5.8  100   -5.8  19    0     1012.8   NA       0.0000   9999     1120  0     0    
2019/09/03  20:49:00  BASE  3.8514   226  5.2038   235  -5.8  100   -5.8  18    0     1012.8   NA       0.0000   9999     1280  0     0    
2019/09/03  20:50:00  BASE  4.2336   217  5.2038   235  -5.8  100   -5.8  17    0     1012.8   NA       0.0000   9999     1180  0     0    
2019/09/03  20:51:00  BASE  4.21596  202  5.2038   235  -5.8  100   -5.8  17    0     1012.8   NA       0.0000   9999     1280  0     0    
2019/09/03  20:52:01  BASE  3.79848  196  5.2038   235  -5.8  100   -5.8  15    0     1012.8   NA       0.0000   9999     1150  0     0    
2019/09/03  20:53:00  BASE  3.61032  199  5.2038   235  -5.8  100   -5.8  13    0     1012.8   NA       0.0000   9999     1210  0     0    
2019/09/03  20:54:00  BASE  4.05132  201  5.2038   235  -5.8  100   -5.8  12    0     1012.8   NA       0.0000   9999     1210  0     0    
2019/09/03  20:55:00  BASE  4.16892  200  4.99212  212  -5.8  100   -5.8  12    0     1012.8   NA       0.0000   9999     1180  0     0    
2019/09/03  20:56:00  BASE  4.16892  202  4.99212  212  -5.8  100   -5.8  11    0     1012.8   NA       0.0000   9999     1180  0     0    
2019/09/03  20:57:00  BASE  4.5276   209  5.2332   210  -5.8  100   -5.8  11    0     1012.8   NA       0.0000   9999     1080  0     0    
2019/09/03  20:58:00  BASE  4.85688  210  5.53308  212  -5.8  100   -5.8  10    0     1012.8   NA       0.0000   9999     1180  0     0    
2019/09/03  20:59:00  BASE  4.90392  209  5.53308  212  -5.8  100   -5.8  10    0     1012.7   NA       0.0000   9999     1210  0     0    
2019/09/03  21:00:01  BASE  5.00976  208  6.2328   208  -5.8  100   -5.8  9     0     1012.7   NA       0.0000   9999     1210  0     0    
2019/09/03  21:01:01  BASE  5.38608  207  6.2916   205  -5.8  100   -5.8  9     0     1012.7   NA       0.0000   9999     1280  0     0    
2019/09/03  21:02:01  BASE  5.31552  205  6.2916   205  -5.8  100   -5.8  8     0     1012.7   NA       0.0000   9999     1180  0     0    
2019/09/03  21:03:01  BASE  4.81572  206  6.2916   205  -5.8  100   -5.8  8     0     1012.7   NA       0.0000   9999     1180  0     0    
2019/09/03  21:04:01  BASE  4.26888  208  6.2916   205  -5.8  100   -5.8  7     0     1012.7   NA       0.0000   9999     1150  0     0    
2019/09/03  21:05:01  BASE  3.82788  209  6.2916   205  -5.8  100   -5.8  7     0     1012.7   NA       0.0000   9999     1180  0     0    
2019/09/03  21:06:01  BASE  3.91608  211  6.2916   205  -5.8  100   -5.8  6     0     1012.7   NA       0.0000   9999     1180  0     0    
2019/09/03  21:07:01  BASE  4.09248  210  6.2916   205  -5.8  100   -5.8  6     0     1012.7   NA       0.0000   9999     1250  0     0    
2019/09/03  21:08:01  BASE  4.06896  211  6.2916   205  -5.8  100   -5.8  6     0     1012.7   NA       0.0000   9999     1180  0     0    
2019/09/03  21:09:01  BASE  3.96312  223  6.2916   205  -5.8  100   -5.8  6     0     1012.7   NA       0.0000   9999     1180  0     0    
2019/09/03  21:10:01  BASE  3.675    227  6.2916   205  -5.8  100   -5.8  6     0     1012.7   NA       0.0000   9999     1150  0     0    
2019/09/03  21:11:01  BASE  3.1752   225  5.62716  210  -5.8  100   -5.8  5     0     1012.7   NA       0.0000   9999     1210  0     0    
2019/09/03  21:12:01  BASE  2.72832  225  5.145    208  -5.8  100   -5.8  5     0     1012.7   NA       0.0000   9999     1180  0     0    
2019/09/03  21:13:01  BASE  2.52252  224  5.02152  211  -5.8  100   -5.8  4     0     1012.7   NA       0.0000   9999     1180  0     0    
2019/09/03  21:14:01  BASE  2.66364  226  5.02152  211  -5.8  100   -5.8  4     0     1012.7   NA       0.0000   9999     1120  0     0    
2019/09/03  21:15:01  BASE  3.33396  225  5.02152  211  -5.8  100   -5.8  4     0     1012.7   NA       0.0000   9999     1120  0     0    
2019/09/03  21:16:01  BASE  3.31044  217  4.96272  206  -5.8  100   -5.8  4     0     1012.8   NA       0.0000   9999     1250  0     0    
2019/09/03  21:17:01  BASE  3.11052  213  4.59816  225  -5.8  100   -5.8  3     0     1012.7   NA       0.0000   9999     1180  0     0    
2019/09/03  21:18:01  BASE  3.62796  213  4.59816  213  -5.8  100   -5.8  3     0     1012.7   NA       0.0000   9999     1120  0     0    
2019/09/03  21:19:01  BASE  4.11012  211  4.78044  215  -5.7  100   -5.7  3     0     1012.8   NA       0.0000   9999     1150  0     0    
2019/09/03  21:20:01  BASE  4.15128  214  4.78044  215  -5.7  100   -5.7  2     0     1012.8   NA       0.0000   9999     1250  0     0    
2019/09/03  21:21:01  BASE  3.969    216  4.78044  215  -5.7  100   -5.7  2     0     1012.8   NA       0.0000   9999     1180  0     0    
2019/09/03  21:22:01  BASE  4.07484  212  4.78044  215  -5.7  100   -5.7  2     0     1012.8   NA       0.0000   9999     1120  0     0    
2019/09/03  21:23:01  BASE  3.93372  212  4.78044  215  -5.7  100   -5.7  1     0     1012.7   NA       0.0000   9999     1250  0     0    
2019/09/03  21:24:01  BASE  3.52212  216  4.78044  215  -5.8  100   -5.8  1     0     1012.7   NA       0.0000   9999     1250  0     0    
2019/09/03  21:25:01  BASE  3.27516  214  4.78044  215  -5.8  100   -5.8  1     0     1012.8   NA       0.0000   9999     1150  0     0    
2019/09/03  21:26:01  BASE  3.1164   207  4.78044  215  -5.8  100   -5.8  1     0     1012.7   NA       0.0000   9999     1080  0     0    
2019/09/03  21:27:01  BASE  2.6754   201  4.78044  215  -5.8  100   -5.8  1     0     1012.7   NA       0.0000   9999     1080  0     0    
2019/09/03  21:28:01  BASE  2.2932   195  4.78044  215  -5.8  100   -5.8  1     0     1012.7   NA       0.0000   9999     1020  0     0    
2019/09/03  21:29:01  BASE  2.646    198  4.75104  210  -5.8  100   -5.8  1     0     1012.7   NA       0.0000   9999     1050  0     0    
2019/09/03  21:30:01  BASE  2.87532  202  4.75104  210  -5.8  100   -5.8  0     0     1012.7   NA       0.0000   9999     1020  0     0    
2019/09/03  21:31:01  BASE  2.5872   204  4.65696  210  -5.8  100   -5.8  0     0     1012.7   NA       0.0000   9999     1080  0     0    
2019/09/03  21:32:01  BASE  2.54604  208  4.02192  207  -5.8  100   -5.8  0     0     1012.7   NA       0.0000   9999     1120  0     0    
2019/09/03  21:33:01  BASE  3.234    209  4.2042   210  -5.8  100   -5.8  0     0     1012.7   NA       0.0000   9999     1180  0     0    
2019/09/03  21:34:01  BASE  3.71616  208  4.32768  202  -5.9  100   -5.9  0     0     1012.6   NA       0.0000   9999     1410  0     0    
2019/09/03  21:35:01  BASE  3.63972  207  4.32768  202  -5.9  100   -5.9  0     0     1012.6   NA       0.0000   9999     1250  0     0    
2019/09/03  21:36:01  BASE  3.19872  206  4.32768  202  -5.9  100   -5.9  0     0     1012.6   NA       0.0000   9999     1180  0     0    
2019/09/03  21:37:01  BASE  3.19284  208  4.32768  202  -6.0  100   -6.0  0     0     1012.7   NA       0.0000   9999     1250  0     0    
2019/09/03  21:38:01  BASE  3.4986   210  4.32768  202  -6.0  100   -6.0  0     0     1012.7   NA       0.0000   9999     1210  0     0    
2019/09/03  21:39:01  BASE  3.22812  206  4.32768  202  -6.0  100   -6.0  0     0     1012.7   NA       0.0000   9999     1120  0     0    
2019/09/03  21:40:01  BASE  2.84004  201  4.32768  202  -6.0  100   -6.0  0     0     1012.7   NA       0.0000   9999     1180  0     0    
2019/09/03  21:41:01  BASE  2.36376  195  4.32768  202  -6.0  100   -6.0  0     0     1012.7   NA       0.0000   9999     1150  0     0    
2019/09/03  21:42:01  BASE  2.5578   194  4.32768  202  -6.0  100   -6.0  0     0     1012.7   NA       0.0000   9999     1120  0     0    
2019/09/03  21:43:01  BASE  3.2046   199  4.32768  202  -6.0  100   -6.0  0     0     1012.7   NA       0.0000   9999     1120  0     0    
2019/09/03  21:44:01  BASE  3.25164  201  4.08072  209  -6.0  100   -6.0  0     0     1012.7   NA       0.0000   9999     1150  0     0    
2019/09/03  21:45:01  BASE  2.79888  197  4.08072  209  -6.0  100   -6.0  0     0     1012.7   NA       0.0000   9999     1080  0     0    
2019/09/03  21:46:01  BASE  2.30496  198  4.08072  209  -6.0  100   -6.0  0     0     1012.7   NA       0.0000   9999     1080  0     0    
2019/09/03  21:47:01  BASE  2.0286   212  4.08072  209  -6.0  100   -6.0  0     0     1012.6   NA       0.0000   9999     1050  0     0    
2019/09/03  21:48:01  BASE  1.764    221  3.75144  201  -6.0  100   -6.0  0     0     1012.6   NA       0.0000   9999     1180  0     0    
2019/09/03  21:49:01  BASE  1.96392  219  3.75144  201  -6.0  100   -6.0  0     0     1012.6   NA       0.0000   9999     1150  0     0    
2019/09/03  21:50:01  BASE  3.12228  221  4.35708  223  -6.0  100   -6.0  0     0     1012.6   NA       0.0000   9999     1210  0     0    
2019/09/03  21:51:01  BASE  4.22772  225  4.80984  225  -6.0  100   -6.0  0     0     1012.6   NA       0.0000   9999     1350  0     0    
2019/09/03  21:52:01  BASE  4.62756  232  5.2038   240  -6.0  100   -6.0  0     0     1012.5   NA       0.0000   9999     0     0     0    
2019/09/03  21:53:01  BASE  4.28064  235  5.2038   240  -6.0  100   -6.0  0     0     1012.6   NA       0.0000   9999     1570  0     0    
2019/09/03  21:54:01  BASE  3.77496  228  5.2038   240  -6.0  100   -6.0  0     0     1012.6   NA       0.0000   9999     1210  0     0    
2019/09/03  21:55:00  BASE  3.56916  224  5.2038   240  -6.1  100   -6.1  0     0     1012.6   NA       0.0000   9999     1080  0     0    
2019/09/03  21:56:01  BASE  3.3222   220  5.2038   240  -6.1  100   -6.1  0     0     1012.6   NA       0.0000   9999     980   0     0    
2019/09/03  21:57:00  BASE  3.13404  219  5.2038   240  -6.0  100   -6.0  0     0     1012.6   NA       0.0000   9999     1050  0     0    
2019/09/03  21:58:01  BASE  2.95764  220  5.2038   240  -6.0  100   -6.0  0     0     1012.6   NA       0.0000   9999     1080  0     0    
2019/09/03  21:59:00  BASE  2.94     214  5.2038   240  -5.9  100   -5.9  0     0     1012.6   NA       0.0000   9999     1120  0     0    
2019/09/03  22:00:00  BASE  2.92824  208  5.2038   240  -5.9  100   -5.9  0     0     1012.6   NA       0.0000   9999     1080  0     0    
2019/09/03  22:01:00  BASE  2.89884  198  5.2038   240  -5.9  100   -5.9  0     0     1012.7   NA       0.0000   9999     1080  0     0    
2019/09/03  22:02:01  BASE  2.86944  194  4.53936  238  -5.9  100   -5.9  0     0     1012.7   NA       0.0000   9999     1050  0     0    
2019/09/03  22:03:00  BASE  3.29868  200  4.08072  194  -5.9  100   -5.9  0     0     1012.7   NA       0.0000   9999     1020  0     0    
2019/09/03  22:04:01  BASE  3.7338   195  4.08072  194  -5.9  100   -5.9  0     0     1012.8   NA       0.0000   9999     1020  0     0    
2019/09/03  22:05:00  BASE  3.75144  190  4.263    196  -5.9  100   -5.9  0     0     1012.8   NA       0.0000   9999     1020  0     0    
2019/09/03  22:06:01  BASE  3.86316  191  4.263    196  -5.9  100   -5.9  0     0     1012.8   NA       0.0000   9999     980   0     0    
2019/09/03  22:07:00  BASE  3.40452  196  4.263    196  -5.9  100   -5.9  0     0     1012.8   NA       0.0000   9999     1050  0     0    
2019/09/03  22:08:00  BASE  2.87532  205  4.263    196  -5.9  100   -5.9  0     0     1012.8   NA       0.0000   9999     1050  0     0    
2019/09/03  22:09:00  BASE  2.56368  205  4.263    196  -5.9  100   -5.9  0     0     1012.8   NA       0.0000   9999     1080  0     0    
2019/09/03  22:10:00  BASE  2.63424  200  4.263    196  -5.9  100   -5.9  0     0     1012.8   NA       0.0000   9999     1080  0     0    
2019/09/03  22:11:00  BASE  3.72204  199  5.08032  209  -5.9  100   -5.9  0     0     1012.8   NA       0.0000   9999     1120  0     0    
2019/09/03  22:12:01  BASE  4.32768  206  5.2626   209  -5.9  100   -5.9  0     0     1012.8   NA       0.0000   9999     1120  0     0    
2019/09/03  22:13:00  BASE  3.66912  212  5.2626   209  -5.9  100   -5.9  0     0     1012.8   NA       0.0000   9999     1020  0     0    
2019/09/03  22:14:00  BASE  3.33984  214  5.2626   209  -5.9  100   -5.9  0     0     1012.8   NA       0.0000   9999     1050  0     0    
2019/09/03  22:15:00  BASE  3.528    222  5.2626   209  -5.9  100   -5.9  0     0     1012.7   NA       0.0000   9999     1080  0     0    
2019/09/03  22:16:01  BASE  2.95764  236  5.2626   209  -5.9  100   -5.9  0     0     1012.7   NA       0.0000   9999     1020  0     0    
2019/09/03  22:17:00  BASE  2.25204  238  5.2626   209  -5.9  100   -5.9  0     0     1012.7   NA       0.0000   9999     1080  0     0    
2019/09/03  22:18:00  BASE  2.54016  228  5.2626   209  -5.9  100   -5.9  0     0     1012.8   NA       0.0000   9999     1210  0     0    
2019/09/03  22:19:00  BASE  3.43392  215  5.2626   209  -5.9  100   -5.9  0     0     1012.8   NA       0.0000   9999     1250  0     0    
2019/09/03  22:20:00  BASE  4.116    208  5.2626   209  -5.9  100   -5.9  0     0     1012.8   NA       0.0000   9999     1150  0     0    
2019/09/03  22:21:00  BASE  4.18068  209  5.2626   209  -5.9  100   -5.9  0     0     1012.8   NA       0.0000   9999     1150  0     0    
2019/09/03  22:22:00  BASE  3.83964  205  4.93332  213  -5.9  100   -5.9  0     0     1012.8   NA       0.0000   9999     1080  0     0    
2019/09/03  22:23:00  BASE  3.48684  207  4.93332  213  -5.9  100   -5.9  0     0     1012.8   NA       0.0000   9999     1250  0     0    
2019/09/03  22:24:00  BASE  3.25752  216  4.93332  213  -5.9  100   -5.9  0     0     1012.8   NA       0.0000   9999     1150  0     0    
2019/09/03  22:25:00  BASE  3.02232  217  4.93332  213  -5.9  100   -5.9  0     0     1012.8   NA       0.0000   9999     1120  0     0    
2019/09/03  22:26:00  BASE  2.793    208  4.93332  213  -5.9  100   -5.9  0     0     1012.8   NA       0.0000   9999     1150  0     0    
2019/09/03  22:27:00  BASE  2.64012  199  4.93332  213  -5.9  100   -5.9  0     0     1012.9   NA       0.0000   9999     1310  0     0    
2019/09/03  22:28:00  BASE  2.47548  194  4.93332  213  -5.9  100   -5.9  0     0     1012.8   NA       0.0000   9999     1210  0     0    
2019/09/03  22:29:00  BASE  2.54016  194  4.93332  213  -5.9  100   -5.9  0     0     1012.8   NA       0.0000   9999     1150  0     0    
2019/09/03  22:30:00  BASE  2.58132  195  4.75104  214  -5.9  100   -5.9  0     0     1012.8   NA       0.0000   9999     1120  0     0    
2019/09/03  22:31:00  BASE  2.90472  195  3.81024  185  -6.0  100   -6.0  0     0     1012.8   NA       0.0000   9999     1350  0     0    
2019/09/03  22:32:00  BASE  3.19284  198  3.81024  185  -6.0  100   -6.0  0     0     1012.8   NA       0.0000   9999     1250  0     0    
2019/09/03  22:33:00  BASE  2.76948  205  3.81024  185  -6.0  100   -6.0  0     0     1012.8   NA       0.0000   9999     1280  0     0    
2019/09/03  22:34:00  BASE  2.75184  207  3.81024  185  -5.9  100   -5.9  0     0     1012.8   NA       0.0000   9999     1210  0     0    
2019/09/03  22:35:00  BASE  2.94588  206  3.81024  185  -5.9  100   -5.9  0     0     1012.8   NA       0.0000   9999     1280  0     0    
2019/09/03  22:36:00  BASE  3.18108  215  3.81024  223  -5.9  100   -5.9  0     0     1012.8   NA       0.0000   9999     1250  0     0    
2019/09/03  22:37:00  BASE  3.22812  225  3.81024  223  -5.9  100   -5.9  0     0     1012.8   NA       0.0000   9999     1180  0     0    
2019/09/03  22:38:00  BASE  3.07524  221  3.81024  223  -5.8  100   -5.8  0     0     1012.9   NA       0.0000   9999     1180  0     0    
2019/09/03  22:39:00  BASE  3.13404  213  3.81024  223  -5.8  100   -5.8  0     0     1012.9   NA       0.0000   9999     1250  1870  0    
2019/09/03  22:40:00  BASE  2.61072  200  3.81024  223  -5.8  100   -5.8  0     0     1012.9   NA       0.0000   9999     1310  0     0    
2019/09/03  22:41:00  BASE  1.9404   195  3.81024  223  -5.8  100   -5.8  0     0     1012.9   NA       0.0000   9999     1280  1900  0    
2019/09/03  22:42:00  BASE  1.90512  201  3.81024  223  -5.8  100   -5.8  0     0     1012.9   NA       0.0000   9999     1210  0     0    
2019/09/03  22:43:00  BASE  2.1168   207  3.81024  223  -5.8  100   -5.8  0     0     1012.9   NA       0.0000   9999     1250  0     0    
2019/09/03  22:44:00  BASE  2.22264  206  3.81024  223  -5.8  100   -5.8  0     0     1012.9   NA       0.0000   9999     1180  0     0    
2019/09/03  22:45:00  BASE  2.51664  197  3.81024  223  -5.8  100   -5.8  0     0     1012.9   NA       0.0000   9999     1250  0     0    
2019/09/03  22:46:00  BASE  2.74008  197  3.51036  212  -5.8  100   -5.8  0     0     1012.9   NA       0.0000   9999     1210  0     0    
2019/09/03  22:47:00  BASE  2.41668  202  3.51036  212  -5.8  100   -5.8  0     0     1012.9   NA       0.0000   9999     1150  0     0    
2019/09/03  22:48:00  BASE  2.19324  201  3.32808  206  -5.8  100   -5.8  0     0     1012.9   NA       0.0000   9999     1050  0     0    
2019/09/03  22:49:01  BASE  2.0286   189  3.26928  212  -5.8  100   -5.8  0     0     1012.9   NA       0.0000   9999     1180  0     0    
2019/09/03  22:50:00  BASE  2.03448  169  3.26928  212  -5.8  100   -5.8  0     0     1012.8   NA       0.0000   9999     1310  0     0    
2019/09/03  22:51:00  BASE  2.24028  157  3.26928  212  -5.8  100   -5.8  0     0     1012.9   NA       0.0000   9999     1350  0     0    
2019/09/03  22:52:00  BASE  2.29908  158  3.26928  212  -5.9  100   -5.9  0     0     1012.9   NA       0.0000   9999     1210  0     0    
2019/09/03  22:53:00  BASE  2.24616  167  3.26928  212  -5.9  100   -5.9  0     0     1012.9   NA       0.0000   9999     1120  0     0    
2019/09/03  22:54:00  BASE  2.15796  183  3.26928  212  -5.9  100   -5.9  0     0     1012.8   NA       0.0000   9999     1150  0     0    
2019/09/03  22:55:00  BASE  2.12268  190  3.26928  212  -5.9  100   -5.9  0     0     1012.8   NA       0.0000   9999     1180  0     0    
2019/09/03  22:56:00  BASE  1.89924  184  2.69304  174  -5.9  100   -5.9  0     0     1012.8   NA       0.0000   9999     1180  0     0    
2019/09/03  22:57:00  BASE  1.6464   182  2.69304  174  -5.9  100   -5.9  0     0     1012.8   NA       0.0000   9999     1180  0     0    
2019/09/03  22:58:00  BASE  1.76988  190  2.69304  174  -5.9  100   -5.9  0     0     1012.8   NA       0.0000   9999     1180  0     0    
2019/09/03  22:59:00  BASE  1.85808  202  2.69304  174  -5.9  100   -5.9  0     0     1012.9   NA       0.0000   9999     1180  0     0    
2019/09/03  23:00:00  BASE  1.86396  212  2.96352  210  -5.9  100   -5.9  0     0     1012.9   NA       0.0000   9999     1180  0     0    
2019/09/03  23:01:00  BASE  2.71656  226  3.69264  242  -5.8  100   -5.8  0     0     1012.9   NA       0.0000   9999     1180  0     0    
2019/09/03  23:02:00  BASE  3.47508  229  3.75144  222  -5.8  100   -5.8  0     0     1012.9   NA       0.0000   9999     1210  0     0    
2019/09/03  23:03:00  BASE  3.58092  218  3.99252  214  -5.8  100   -5.8  0     0     1012.9   NA       0.0000   9999     1250  0     0    
2019/09/03  23:04:00  BASE  3.54564  210  3.99252  214  -5.8  100   -5.8  0     0     1012.8   NA       0.0000   9999     1210  0     0    
2019/09/03  23:05:00  BASE  3.45156  206  3.99252  214  -5.7  100   -5.7  0     0     1012.8   NA       0.0000   9999     1150  0     0    
2019/09/03  23:06:00  BASE  3.19872  203  3.99252  214  -5.7  100   -5.7  0     0     1012.8   NA       0.0000   9999     1150  0     0    
2019/09/03  23:07:00  BASE  2.86356  203  3.99252  214  -5.7  100   -5.7  0     0     1012.8   NA       0.0000   9999     1150  0     0    
2019/09/03  23:08:00  BASE  3.01644  205  3.99252  214  -5.7  100   -5.7  0     0     1012.8   NA       0.0000   9999     1210  0     0    
2019/09/03  23:09:00  BASE  3.09288  210  3.99252  214  -5.8  100   -5.8  0     0     1012.8   NA       0.0000   9999     1180  0     0    
2019/09/03  23:10:00  BASE  2.79888  218  3.99252  214  -5.8  100   -5.8  0     0     1012.8   NA       0.0000   9999     1210  0     0    
2019/09/03  23:11:00  BASE  2.58132  218  3.99252  214  -5.8  100   -5.8  0     0     1012.9   NA       0.0000   9999     1180  0     0    
2019/09/03  23:12:00  BASE  2.32848  215  3.99252  214  -5.8  100   -5.8  0     0     1012.9   NA       0.0000   9999     1150  0     0    
2019/09/03  23:13:00  BASE  2.16384  212  3.75144  202  -5.8  100   -5.8  0     0     1012.9   NA       0.0000   9999     1150  0     0    
2019/09/03  23:14:00  BASE  2.058    203  3.69264  203  -5.8  100   -5.8  0     0     1013.0   NA       0.0000   9999     1150  0     0    
2019/09/03  23:15:00  BASE  2.00508  204  3.69264  203  -5.8  100   -5.8  0     0     1013.0   NA       0.0000   9999     1250  0     0    
2019/09/03  23:16:00  BASE  2.15208  205  3.69264  203  -5.8  100   -5.8  0     0     1012.9   NA       0.0000   9999     1180  0     0    
2019/09/03  23:17:00  BASE  2.499    198  3.69264  203  -5.9  100   -5.9  0     0     1012.9   NA       0.0000   9999     1180  0     0    
2019/09/03  23:18:01  BASE  2.63424  202  3.26928  224  -5.9  100   -5.9  0     0     1012.9   NA       0.0000   9999     1250  0     0    
2019/09/03  23:19:00  BASE  2.4108   205  3.1458   201  -5.9  100   -5.9  0     0     1012.9   NA       0.0000   9999     1180  0     0    
2019/09/03  23:20:00  BASE  2.1168   200  3.1458   201  -5.9  100   -5.9  0     0     1012.9   NA       0.0000   9999     1180  0     0    
2019/09/03  23:21:01  BASE  1.83456  196  3.1458   201  -5.9  100   -5.9  0     0     1012.9   NA       0.0000   9999     1180  0     0    
2019/09/03  23:22:01  BASE  1.9404   199  3.1458   201  -6.0  100   -6.0  0     0     1012.8   NA       0.0000   9999     1150  0     0    
2019/09/03  23:23:00  BASE  2.06976  208  3.1458   201  -6.0  100   -6.0  0     0     1012.9   NA       0.0000   9999     1280  0     0    
2019/09/03  23:24:01  BASE  1.86396  210  3.1458   201  -6.0  100   -6.0  0     0     1012.9   NA       0.0000   9999     1250  0     0    
2019/09/03  23:25:00  BASE  1.62876  204  3.1458   201  -6.0  100   -6.0  0     0     1012.9   NA       0.0000   9999     1210  0     0    
2019/09/03  23:26:01  BASE  1.4406   206  3.1458   201  -5.9  100   -5.9  0     0     1012.9   NA       0.0000   9999     1180  0     0    
2019/09/03  23:27:01  BASE  1.28772  208  2.69304  210  -5.9  100   -5.9  0     0     1012.9   NA       0.0000   9999     1120  0     0    
2019/09/03  23:28:01  BASE  1.21716  206  2.51076  202  -5.9  100   -5.9  0     0     1012.9   NA       0.0000   9999     1250  0     0    
2019/09/03  23:29:00  BASE  1.81692  212  3.48096  200  -6.0  100   -6.0  0     0     1012.9   NA       0.0000   9999     1280  0     0    
2019/09/03  23:30:00  BASE  2.96352  209  3.86904  204  -6.0  100   -6.0  0     0     1013.0   NA       0.0000   9999     1350  1840  0    
2019/09/03  23:31:00  BASE  3.39276  206  3.86904  204  -6.0  100   -6.0  0     0     1013.0   NA       0.0000   9999     1350  0     0    
2019/09/03  23:32:01  BASE  3.234    207  3.86904  204  -6.0  100   -6.0  0     0     1013.0   NA       0.0000   9999     1250  0     0    
2019/09/03  23:33:00  BASE  2.98116  205  3.86904  204  -6.0  100   -6.0  0     0     1013.0   NA       0.0000   9999     1210  0     0    
2019/09/03  23:34:01  BASE  3.01644  207  3.86904  204  -5.9  100   -5.9  0     0     1013.0   NA       0.0000   9999     1210  0     0    
2019/09/03  23:35:00  BASE  3.18696  210  3.86904  204  -5.9  100   -5.9  0     0     1013.0   NA       0.0000   9999     1310  0     0    
2019/09/03  23:36:01  BASE  2.9988   206  3.86904  204  -5.9  100   -5.9  0     0     1012.9   NA       0.0000   9999     1210  0     0    
2019/09/03  23:37:01  BASE  2.95764  204  3.86904  204  -5.9  100   -5.9  0     0     1012.9   NA       0.0000   9999     1710  0     0    
2019/09/03  23:38:01  BASE  3.01056  207  3.86904  204  -5.9  100   -5.9  0     0     1012.9   NA       0.0000   9999     1610  0     0    
2019/09/03  23:39:00  BASE  2.9106   206  3.86904  204  -5.9  100   -5.9  0     0     1012.9   NA       0.0000   9999     1350  0     0    
2019/09/03  23:40:00  BASE  2.45196  201  3.62796  213  -6.0  100   -6.0  0     0     1012.9   NA       0.0000   9999     1510  0     0    
2019/09/03  23:41:00  BASE  2.08152  205  3.56916  219  -6.0  100   -6.0  0     0     1012.9   NA       0.0000   9999     1440  0     0    
2019/09/03  23:42:00  BASE  1.93452  204  3.56916  219  -6.0  100   -6.0  0     0     1012.9   NA       0.0000   9999     1380  0     0    
2019/09/03  23:43:00  BASE  2.0286   196  3.56916  219  -6.0  100   -6.0  0     0     1012.9   NA       0.0000   9999     1310  0     0    
2019/09/03  23:44:01  BASE  2.31084  198  3.41628  201  -6.0  100   -6.1  0     0     1012.9   NA       0.0000   9999     1380  0     0    
2019/09/03  23:45:00  BASE  2.25204  196  3.41628  201  -6.0  99    -6.1  0     0     1012.9   NA       0.0000   9999     1440  0     0    
2019/09/03  23:46:01  BASE  2.04036  190  3.41628  201  -6.1  99    -6.2  0     0     1012.9   NA       0.0000   9999     1540  0     0    
2019/09/03  23:47:00  BASE  1.89924  193  3.41628  201  -6.1  99    -6.2  0     0     1012.9   NA       0.0000   9999     1380  0     0    
2019/09/03  23:48:00  BASE  1.76988  195  3.41628  201  -6.1  99    -6.2  0     0     1012.9   NA       0.0000   9999     1380  0     0    
2019/09/03  23:49:00  BASE  1.76988  188  2.75184  207  -6.1  99    -6.2  0     0     1012.9   NA       0.0000   9999     1410  0     0    
2019/09/03  23:50:00  BASE  1.764    179  2.75184  207  -6.1  99    -6.2  0     0     1012.9   NA       0.0000   9999     1350  0     0    
2019/09/03  23:51:00  BASE  1.56408  170  2.75184  207  -6.1  99    -6.3  0     0     1012.9   NA       0.0000   9999     1250  0     0    
2019/09/03  23:52:00  BASE  1.48764  172  2.75184  207  -6.1  99    -6.3  0     0     1012.9   NA       0.0000   9999     1310  0     0    
2019/09/03  23:53:00  BASE  1.19952  169  2.66364  208  -6.2  98    -6.4  0     0     1012.9   NA       0.0000   9999     1310  0     0    
2019/09/03  23:54:00  BASE  0.90552  170  2.48136  195  -6.2  98    -6.4  0     0     1012.9   NA       0.0000   9999     1350  0     0    
2019/09/03  23:55:00  BASE  1.01136  175  2.24028  184  -6.2  98    -6.4  0     0     1013.0   NA       0.0000   9999     1380  0     0    
2019/09/03  23:56:00  BASE  1.31712  178  2.1462   201  -6.2  99    -6.4  0     0     1012.9   NA       0.0000   9999     1410  0     0    
2019/09/03  23:57:00  BASE  1.72284  188  2.54016  189  -6.2  99    -6.3  0     0     1012.9   NA       0.0000   9999     1280  0     0    
2019/09/03  23:58:00  BASE  1.84632  189  2.54016  189  -6.1  99    -6.3  0     0     1012.9   NA       0.0000   9999     1280  0     0    
2019/09/03  23:59:00  BASE  1.92864  189  2.75184  208  -6.1  99    -6.3  0     0     1012.9   NA       0.0000   9999     1310  0     0